[[{"header":{"parameterUnit":"m.s-1","parameterCategory":1,"la1":30.6,"la2":28.766,"lo1":-90.7593,"lo2":-88.6598,"dy":0.0162,"dx":0.0183,"nx":116,"ny":114,"refTime":"2023-08-10T12:00:00:Z","depth":0,"parameterNumber":2,"parameterNumberName":"U-component_of_WINDS"},"data":[0.0,0.0,0.0,0.0,0.0,0.0,0.0,0.0,0.0,0.0,0.0,0.0,0.0,0.0,0.0,0.0,0.0,0.0,0.0,0.0,0.0,0.0,0.0,0.0,0.0,0.0,0.0,0.0,0.0,0.0,0.0,0.0,0.0,0.0,0.0,0.0,0.0,0.0,0.0,0.0,0.0,0.0,0.0,0.0,0.0,0.0,0.0,0.0,0.0,0.0,0.0,0.0,0.0,0.0,0.0,0.0,0.0,0.0,0.0,0.0,0.0,0.0,0.0,0.0,0.0,0.0,0.0,0.0,0.0,0.0,0.0,0.0,0.0,0.0,0.0,0.0,0.0,0.0,0.0,0.0,0.0,0.0,0.0,0.0,0.0,0.0,0.0,0.0,0.0,0.0,0.0,0.0,0.0,0.0,0.0,0.0,0.0,0.0,0.0,0.0,0.0,0.0,0.0,0.0,0.0,0.0,0.0,0.0,0.0,0.0,0.0,0.0,0.0,0.0,0.0,0.0,0.0,0.0,0.0,0.0,0.0,0.0,0.0,0.0,0.0,0.0,0.0,0.0,0.0,0.0,0.0,0.0,0.0,0.0,0.0,0.0,0.0,0.0,0.0,0.0,0.0,0.0,0.0,0.0,0.0,0.0,0.0,0.0,0.0,0.0,0.0,0.0,0.0,0.0,0.0,0.0,0.0,0.0,0.0,0.0,0.0,0.0,0.0,0.0,0.0,0.0,0.0,0.0,0.0,0.0,0.0,0.0,0.0,0.0,0.0,0.0,0.0,0.0,0.0,0.0,0.0,0.0,0.0,0.0,0.0,0.0,0.0,0.0,0.0,0.0,0.0,0.0,0.0,0.0,0.0,0.0,0.0,0.0,0.0,0.0,0.0,0.0,0.0,0.0,0.0,0.0,0.0,0.0,0.0,0.0,0.0,0.0,0.0,0.0,0.0,0.0,0.0,0.0,0.0,0.0,0.0,0.0,0.0,0.0,0.0,0.0,0.0,0.0,0.0,0.0,0.0,0.0,0.0,0.0,0.0,0.0,0.0,0.0,0.0,0.0,0.0,0.0,0.0,0.0,0.0,0.0,0.0,0.0,0.0,0.0,0.0,0.0,0.0,0.0,0.0,0.0,0.0,0.0,0.0,0.0,0.0,0.0,0.0,0.0,0.0,0.0,0.0,0.0,0.0,0.0,0.0,0.0,0.0,0.0,0.0,0.0,0.0,0.0,0.0,0.0,0.0,0.0,0.0,0.0,0.0,0.0,0.0,0.0,0.0,0.0,0.0,0.0,0.0,0.0,0.0,0.0,0.0,0.0,0.0,0.0,0.0,0.0,0.0,0.0,0.0,0.0,0.0,0.0,0.0,0.0,0.0,0.0,0.0,0.0,0.0,0.0,0.0,0.0,0.0,0.0,0.0,0.0,0.0,0.0,0.0,0.0,0.0,0.0,0.0,0.0,0.0,0.0,0.0,0.0,0.0,0.0,0.0,0.0,0.0,0.0,0.0,0.0,0.0,0.0,0.0,0.0,0.0,0.0,0.0,0.0,0.0,0.0,0.0,0.0,0.0,0.0,0.0,0.0,0.0,0.0,0.0,0.0,0.0,0.0,0.0,0.0,0.0,0.0,0.0,0.0,0.0,0.0,0.0,0.0,0.0,0.0,0.0,0.0,0.0,0.0,0.0,0.0,0.0,0.0,0.0,0.0,0.0,0.0,0.0,0.0,0.0,0.0,0.0,0.0,0.0,0.0,0.0,0.0,0.0,0.0,0.0,0.0,0.0,0.0,0.0,0.0,0.0,0.0,0.0,0.0,0.0,0.0,0.0,0.0,0.0,0.0,0.0,0.0,0.0,0.0,0.0,0.0,0.0,0.0,0.0,0.0,0.0,0.0,0.0,0.0,0.0,0.0,0.0,0.0,0.0,0.0,0.0,0.0,0.0,0.0,0.0,0.0,0.0,0.0,0.0,0.0,0.0,0.0,0.0,0.0,0.0,0.0,0.0,0.0,0.0,0.0,0.0,0.0,0.0,0.0,0.0,0.0,0.0,0.0,0.0,0.0,0.0,0.0,0.0,0.0,0.0,0.0,0.0,0.0,0.0,0.0,0.0,0.0,0.0,0.0,0.0,0.0,0.0,0.0,0.0,0.0,0.0,0.0,0.0,0.0,0.0,0.0,0.0,0.0,0.0,0.0,0.0,0.0,0.0,0.0,0.0,0.0,0.0,0.0,0.0,0.0,0.0,0.0,0.0,0.0,0.0,0.0,0.0,0.0,0.0,0.0,0.0,0.0,0.0,0.0,0.0,0.0,0.0,0.0,0.0,0.0,0.0,0.0,0.0,0.0,0.0,0.0,0.0,0.0,0.0,0.0,0.0,0.0,0.0,0.0,0.0,0.0,0.0,0.0,0.0,0.0,0.0,0.0,0.0,0.0,0.0,0.0,0.0,0.0,0.0,0.0,0.0,0.0,0.0,0.0,0.0,0.0,0.0,0.0,0.0,0.0,0.0,0.0,0.0,0.0,0.0,0.0,0.0,0.0,0.0,0.0,0.0,0.0,0.0,0.0,0.0,0.0,0.0,0.0,0.0,0.0,0.0,0.0,0.0,0.0,0.0,0.0,0.0,0.0,0.0,0.0,0.0,0.0,0.0,0.0,0.0,0.0,0.0,0.0,0.0,0.0,0.0,0.0,0.0,0.0,0.0,0.0,0.0,0.0,0.0,0.0,0.0,0.0,0.0,0.0,0.0,0.0,0.0,0.0,0.0,0.0,0.0,0.0,0.0,0.0,0.0,0.0,0.0,0.0,0.0,0.0,0.0,0.0,0.0,0.0,0.0,0.0,0.0,0.0,0.0,0.0,0.0,0.0,0.0,0.0,0.0,0.0,0.0,0.0,0.0,0.0,0.0,0.0,0.0,0.0,0.0,0.0,0.0,0.0,0.0,0.0,0.0,0.0,0.0,0.0,0.0,0.0,0.0,0.0,0.0,0.0,0.0,0.0,0.0,0.0,0.0,0.0,0.0,0.0,0.0,0.0,0.0,0.0,0.0,0.0,0.0,0.0,0.0,0.0,0.0,0.0,0.0,0.0,0.0,0.0,0.0,0.0,0.0,0.0,0.0,0.0,0.0,0.0,0.0,0.0,0.0,0.0,0.0,0.0,0.0,0.0,0.0,0.0,0.0,0.0,0.0,0.0,0.0,0.0,0.0,0.0,0.0,0.0,0.0,0.0,0.0,0.0,0.0,0.0,0.0,0.0,0.0,0.0,0.0,0.0,0.0,0.0,0.0,0.0,0.0,0.0,0.0,0.0,0.0,0.0,0.0,0.0,0.0,0.0,0.0,0.0,0.0,0.0,0.0,0.0,0.0,0.0,0.0,0.0,0.0,0.0,0.0,0.0,0.0,0.0,0.0,0.0,0.0,0.0,0.0,0.0,0.0,0.0,0.0,0.0,0.0,0.0,0.0,0.0,0.0,0.0,0.0,0.0,0.0,0.0,0.0,0.0,0.0,0.0,0.0,0.0,0.0,0.0,0.0,0.0,0.0,0.0,0.0,0.0,0.0,0.0,0.0,0.0,0.0,0.0,0.0,0.0,0.0,0.0,0.0,0.0,0.0,0.0,0.0,0.0,0.0,0.0,0.0,0.0,0.0,0.0,0.0,0.0,0.0,0.0,0.0,0.0,0.0,0.0,0.0,0.0,0.0,0.0,0.0,0.0,0.0,0.0,0.0,0.0,0.0,0.0,0.0,0.0,0.0,0.0,0.0,0.0,0.0,0.0,0.0,0.0,0.0,0.0,0.0,0.0,0.0,0.0,0.0,0.0,0.0,0.0,0.0,0.0,0.0,0.0,0.0,0.0,0.0,0.0,0.0,0.0,0.0,0.0,0.0,0.0,0.0,0.0,0.0,0.0,0.0,0.0,0.0,0.0,0.0,0.0,0.0,0.0,0.0,0.0,0.0,0.0,0.0,0.0,0.0,0.0,0.0,0.0,0.0,0.0,0.0,0.0,0.0,0.0,0.0,0.0,0.0,0.0,0.0,0.0,0.0,0.0,0.0,0.0,0.0,0.0,0.0,0.0,0.0,0.0,0.0,0.0,0.0,0.0,0.0,0.0,0.0,0.0,0.0,0.0,0.0,0.0,0.0,0.0,0.0,0.0,0.0,0.0,0.0,0.0,0.0,0.0,0.0,0.0,0.0,0.0,0.0,0.0,0.0,0.0,0.0,0.0,0.0,0.0,0.0,0.0,0.0,0.0,0.0,0.0,0.0,0.0,0.0,0.0,0.0,0.0,0.0,0.0,0.0,0.0,0.0,0.0,0.0,0.0,0.0,0.0,0.0,0.0,0.0,0.0,0.0,0.0,0.0,0.0,0.0,0.0,0.0,0.0,0.0,0.0,0.0,0.0,0.0,0.0,0.0,0.0,0.0,0.0,0.0,0.0,0.0,0.0,0.0,0.0,0.0,0.0,0.0,0.0,0.0,0.0,0.0,0.0,0.0,0.0,0.0,0.0,0.0,0.0,0.0,0.0,0.0,0.0,0.0,0.0,0.0,0.0,0.0,0.0,0.0,0.0,0.0,0.0,0.0,0.0,0.0,0.0,0.0,0.0,0.0,0.0,0.0,0.0,0.0,0.0,0.0,0.0,0.0,0.0,0.0,0.0,0.0,0.0,0.0,0.0,0.0,0.0,0.0,0.0,0.0,0.0,0.0,0.0,0.0,0.0,0.0,0.0,0.0,0.0,0.0,0.0,0.0,0.0,0.0,0.0,0.0,0.0,0.0,0.0,0.0,0.0,0.0,0.0,0.0,0.0,0.0,0.0,0.0,0.0,0.0,0.0,0.0,0.0,0.0,0.0,0.0,0.0,0.0,0.0,0.0,0.0,0.0,0.0,0.0,0.0,0.0,0.0,0.0,0.0,0.0,0.0,0.0,0.0,0.0,0.0,0.0,0.0,0.0,0.0,0.0,0.0,0.0,0.0,0.0,0.0,0.0,0.0,0.0,0.0,0.0,0.0,0.0,0.0,0.0,0.0,0.0,0.0,0.0,0.0,0.0,0.0,0.0,0.0,0.0,0.0,0.0,0.0,0.0,0.0,0.0,0.0,0.0,0.0,0.0,0.0,0.0,0.0,0.0,0.0,0.0,0.0,0.0,0.0,0.0,0.0,0.0,0.0,0.0,0.0,0.0,0.0,0.0,0.0,0.0,0.0,0.0,0.0,0.0,0.0,0.0,0.0,0.0,0.0,0.0,0.0,0.0,0.0,0.0,0.0,0.0,0.0,0.0,0.0,0.0,0.0,0.0,0.0,0.0,0.0,0.0,0.0,0.0,0.0,0.0,0.0,0.0,0.0,0.0,0.0,0.0,0.0,0.0,0.0,0.0,0.0,0.0,0.0,0.0,0.0,0.0,0.0,0.0,0.0,0.0,0.0,0.0,0.0,0.0,0.0,0.0,0.0,0.0,0.0,0.0,0.0,0.0,0.0,0.0,0.0,0.0,0.0,0.0,0.0,0.0,0.0,0.0,0.0,0.0,0.0,0.0,0.0,0.0,0.0,0.0,0.0,0.0,0.0,0.0,0.0,0.0,0.0,0.0,0.0,0.0,0.0,0.0,0.0,0.0,0.0,0.0,0.0,0.0,0.0,0.0,0.0,0.0,0.0,0.0,0.0,0.0,0.0,0.0,0.0,0.0,0.0,0.0,0.0,0.0,0.0,0.0,0.0,0.0,0.0,0.0,0.0,0.0,0.0,0.0,0.0,0.0,0.0,0.0,0.0,0.0,0.0,0.0,0.0,0.0,0.0,0.0,0.0,0.0,0.0,0.0,0.0,0.0,0.0,0.0,0.0,0.0,0.0,0.0,0.0,0.0,0.0,0.0,0.0,0.0,0.0,0.0,0.0,0.0,0.0,0.0,0.0,0.0,0.0,0.0,0.0,0.0,0.0,0.0,0.0,0.0,0.0,0.0,0.0,0.0,0.0,0.0,0.0,0.0,0.0,0.0,0.0,0.0,0.0,0.0,0.0,0.0,0.0,0.0,0.0,0.0,0.0,0.0,0.0,0.0,0.0,0.0,0.0,0.0,0.0,0.0,0.0,0.0,0.0,-6.3954,0.0,0.0,0.0,0.0,0.0,0.0,0.0,0.0,0.0,0.0,0.0,0.0,0.0,0.0,0.0,0.0,0.0,0.0,0.0,0.0,0.0,0.0,0.0,0.0,0.0,0.0,0.0,0.0,0.0,0.0,0.0,0.0,0.0,0.0,0.0,0.0,0.0,0.0,0.0,0.0,0.0,0.0,0.0,0.0,0.0,0.0,0.0,0.0,0.0,0.0,0.0,0.0,0.0,0.0,0.0,0.0,0.0,0.0,0.0,0.0,0.0,0.0,0.0,0.0,0.0,0.0,0.0,0.0,0.0,0.0,0.0,0.0,0.0,0.0,0.0,0.0,0.0,0.0,0.0,0.0,0.0,0.0,0.0,0.0,0.0,0.0,0.0,0.0,0.0,0.0,0.0,0.0,0.0,0.0,0.0,0.0,0.0,0.0,0.0,0.0,0.0,0.0,0.0,0.0,0.0,0.0,0.0,0.0,0.0,0.0,0.0,0.0,0.0,0.0,0.0,0.0,-6.699,0.0,0.0,0.0,0.0,0.0,0.0,0.0,0.0,0.0,0.0,0.0,0.0,0.0,0.0,0.0,0.0,0.0,0.0,0.0,0.0,0.0,0.0,0.0,0.0,0.0,0.0,0.0,0.0,0.0,0.0,0.0,0.0,0.0,0.0,0.0,0.0,0.0,0.0,0.0,0.0,0.0,0.0,0.0,0.0,0.0,0.0,0.0,0.0,0.0,0.0,0.0,0.0,0.0,0.0,0.0,0.0,0.0,0.0,0.0,0.0,0.0,0.0,0.0,0.0,0.0,0.0,0.0,0.0,0.0,0.0,0.0,0.0,0.0,0.0,0.0,0.0,0.0,0.0,0.0,0.0,0.0,0.0,0.0,0.0,0.0,0.0,0.0,0.0,0.0,0.0,0.0,0.0,0.0,0.0,0.0,0.0,0.0,0.0,0.0,0.0,0.0,0.0,0.0,0.0,0.0,0.0,0.0,0.0,-7.8558,-7.9438,-7.9218,-8.0094,-8.0094,-7.9255,-7.6754,-7.4698,-7.2899,0.0,0.0,0.0,0.0,0.0,0.0,0.0,0.0,0.0,0.0,0.0,0.0,0.0,0.0,0.0,0.0,0.0,0.0,0.0,0.0,0.0,0.0,0.0,0.0,0.0,0.0,0.0,0.0,0.0,0.0,0.0,0.0,0.0,0.0,0.0,0.0,0.0,0.0,0.0,-4.2141,-4.288,-4.309,-4.2751,-4.1803,0.0,0.0,0.0,0.0,0.0,0.0,0.0,0.0,0.0,0.0,0.0,0.0,0.0,0.0,0.0,0.0,0.0,0.0,0.0,0.0,0.0,0.0,0.0,0.0,0.0,0.0,0.0,0.0,0.0,0.0,0.0,0.0,0.0,0.0,0.0,0.0,0.0,0.0,0.0,0.0,0.0,0.0,0.0,-5.0688,-5.4004,0.0,0.0,0.0,0.0,0.0,0.0,0.0,0.0,0.0,0.0,0.0,0.0,0.0,0.0,-7.6319,-8.0094,-8.2076,-8.2333,-8.6738,-8.8133,-8.6811,-8.7619,-8.7912,-8.7804,-8.8096,0.0,-7.5469,-7.367,0.0,0.0,0.0,0.0,0.0,0.0,0.0,0.0,0.0,0.0,0.0,0.0,0.0,0.0,0.0,0.0,0.0,0.0,0.0,0.0,0.0,0.0,0.0,0.0,0.0,0.0,0.0,0.0,0.0,0.0,0.0,0.0,0.0,0.0,0.0,0.0,-4.1115,-4.2432,-4.301,-4.3988,-4.4436,-4.4377,-4.3449,-4.3509,-4.4167,-4.2073,0.0,0.0,0.0,0.0,0.0,0.0,0.0,0.0,0.0,0.0,0.0,0.0,0.0,0.0,0.0,0.0,0.0,0.0,0.0,0.0,0.0,0.0,0.0,0.0,0.0,0.0,0.0,0.0,0.0,0.0,0.0,0.0,0.0,0.0,0.0,0.0,0.0,0.0,0.0,-4.9162,-5.316,-5.3497,-5.5472,-5.6407,0.0,0.0,0.0,0.0,0.0,0.0,0.0,0.0,0.0,-7.6375,-7.9081,-8.1893,-8.4756,-8.7949,-8.9748,-9.0225,-9.2794,-9.3418,-9.2317,-9.2684,-9.2574,-9.217,-9.2537,-8.9748,-8.4572,-8.0241,-7.6087,-7.2114,0.0,0.0,0.0,0.0,0.0,-6.3485,0.0,0.0,0.0,0.0,0.0,0.0,0.0,0.0,0.0,0.0,0.0,0.0,0.0,0.0,0.0,0.0,0.0,0.0,0.0,0.0,0.0,0.0,0.0,0.0,0.0,0.0,0.0,0.0,-4.303,-4.4257,-4.4167,-4.5274,-4.5615,-4.5332,-4.4786,-4.4667,-4.4726,-4.3108,-4.1676,0.0,0.0,0.0,0.0,0.0,0.0,0.0,0.0,0.0,0.0,0.0,0.0,0.0,0.0,0.0,0.0,0.0,0.0,0.0,0.0,0.0,0.0,0.0,0.0,0.0,0.0,0.0,0.0,0.0,0.0,0.0,0.0,0.0,0.0,0.0,0.0,0.0,0.0,-5.189,-5.5554,-5.4295,-5.8866,-6.0863,0.0,0.0,0.0,0.0,0.0,0.0,-7.3634,-7.6827,-8.0167,-8.3654,-8.6701,-8.9528,-9.2134,-9.4006,-9.5217,-9.5841,-9.6612,-9.6575,-9.5804,-9.6025,-9.5694,-9.4923,-9.4923,-9.3969,-9.1987,-8.6151,-8.1452,-7.7598,-7.378,-7.0532,-6.8095,-6.888,-6.787,-6.6465,0.0,0.0,0.0,0.0,0.0,0.0,0.0,0.0,0.0,0.0,0.0,0.0,0.0,0.0,0.0,0.0,0.0,-4.4951,0.0,0.0,0.0,0.0,0.0,0.0,0.0,0.0,0.0,-4.308,-4.3928,-4.4945,-4.616,-4.689,-4.655,-4.5393,-4.5364,-4.5681,-4.6015,-4.1782,-4.0371,-4.0665,0.0,0.0,0.0,0.0,0.0,0.0,0.0,0.0,0.0,0.0,0.0,0.0,0.0,0.0,0.0,0.0,0.0,0.0,0.0,0.0,0.0,0.0,0.0,0.0,0.0,0.0,0.0,0.0,0.0,0.0,0.0,0.0,0.0,0.0,0.0,0.0,0.0,0.0,0.0,-5.9905,-6.4997,0.0,0.0,0.0,0.0,-6.9541,-7.2002,-7.5499,-8.0277,-8.3544,-8.7142,-9.1143,-9.3712,-9.5474,-9.6392,-9.6502,-9.6612,-9.6649,-9.7456,-9.7419,-9.6685,-9.7419,-9.7346,-9.6575,-9.6575,-9.5658,-9.3859,-8.9638,-8.5967,-8.2737,-7.9433,-7.5983,-7.2686,-7.1267,-7.041,-6.9945,0.0,0.0,0.0,0.0,0.0,0.0,0.0,0.0,0.0,0.0,0.0,0.0,0.0,0.0,0.0,0.0,0.0,0.0,0.0,0.0,0.0,0.0,0.0,0.0,0.0,0.0,-4.2432,-4.3958,-4.5065,-4.5641,-4.5726,-4.5639,-4.4873,-4.3666,-4.3666,-4.3315,-4.2691,-4.1524,-4.0693,-3.9924,-3.6766,-3.5023,0.0,0.0,0.0,0.0,0.0,0.0,0.0,0.0,0.0,0.0,0.0,0.0,0.0,0.0,0.0,0.0,0.0,0.0,0.0,0.0,0.0,0.0,0.0,0.0,0.0,0.0,0.0,0.0,0.0,0.0,0.0,0.0,0.0,0.0,0.0,0.0,0.0,-6.5595,-7.0881,0.0,0.0,-7.3266,-7.5359,-7.7011,-8.0314,-8.3911,-8.7766,-9.0555,-9.3161,-9.5658,-9.7603,-9.8741,-9.8998,-9.9512,-9.9512,-9.9035,-9.9292,-9.8741,-9.7456,-9.775,-9.7456,-9.6685,-9.6171,-9.5327,-9.4078,-9.1348,-8.8277,-8.5044,-8.2395,-7.9374,-7.6357,-7.4828,-7.3723,-7.2969,0.0,0.0,0.0,0.0,0.0,0.0,0.0,0.0,0.0,0.0,0.0,0.0,0.0,0.0,0.0,0.0,0.0,0.0,0.0,0.0,0.0,0.0,0.0,0.0,0.0,-4.283,-4.3707,-4.4322,-4.5293,-4.5274,-4.4453,-4.3918,-4.2974,-4.1778,-4.1949,-4.1346,-4.021,-4.0611,-3.9906,-3.8399,-3.6184,-3.4942,-3.4105,0.0,0.0,0.0,0.0,0.0,0.0,0.0,0.0,0.0,0.0,0.0,0.0,0.0,0.0,0.0,0.0,0.0,0.0,0.0,0.0,0.0,0.0,0.0,0.0,0.0,0.0,0.0,0.0,0.0,0.0,0.0,0.0,0.0,0.0,0.0,-6.7026,-6.9412,-7.5402,-7.8626,-7.6754,-7.9764,-8.2406,-8.3728,-8.7105,-9.0335,-9.3308,-9.5511,-9.7309,-9.8668,-10.0283,-10.0686,-9.9916,-10.0393,-10.0172,-9.9071,-9.9365,-9.8778,-9.7493,-9.7493,-9.7052,-9.6245,-9.5437,-9.4404,-9.318,-9.1849,-8.9235,-8.5911,-8.4607,-8.2308,-7.9653,-7.8462,-7.7129,-7.5742,0.0,0.0,0.0,0.0,0.0,0.0,0.0,0.0,0.0,0.0,0.0,0.0,0.0,0.0,0.0,0.0,0.0,0.0,0.0,0.0,0.0,0.0,0.0,0.0,-4.2462,-4.4276,-4.4942,-4.4378,-4.4496,-4.393,-4.2638,-4.2048,-4.1085,-3.9849,-4.0456,-4.0039,-3.8919,-3.8944,-3.7989,-3.638,-3.5203,-3.4424,-3.3822,0.0,0.0,0.0,0.0,0.0,0.0,0.0,0.0,0.0,0.0,0.0,0.0,0.0,0.0,0.0,0.0,0.0,0.0,0.0,0.0,0.0,0.0,0.0,0.0,0.0,0.0,0.0,0.0,0.0,0.0,0.0,0.0,0.0,-5.818,-6.5191,-7.0624,-7.1615,-7.8736,-8.2663,-8.0424,-8.5159,-8.872,-8.9564,-9.1877,-9.4299,-9.6685,-9.83,-9.9548,-10.0283,-10.1788,-10.1494,-9.9181,-9.9108,-9.83,-9.6759,-9.753,-9.7456,-9.661,-9.661,-9.6132,-9.5286,-9.4518,-9.3027,-9.1269,-9.1156,-8.8792,-8.5338,-8.6031,-8.4742,-8.2359,-8.1827,-8.0319,-7.8069,0.0,0.0,0.0,0.0,0.0,0.0,0.0,0.0,0.0,0.0,0.0,0.0,0.0,0.0,0.0,0.0,0.0,0.0,0.0,0.0,0.0,0.0,0.0,0.0,-4.3833,-4.392,-4.3874,-4.3724,-4.3771,-4.294,-4.1346,-4.1159,-4.0149,-3.853,-3.9165,-3.9246,-3.8944,-3.9295,-3.8969,-3.8064,-3.6081,-3.5182,-3.4781,0.0,0.0,0.0,0.0,0.0,0.0,0.0,0.0,0.0,0.0,0.0,0.0,0.0,0.0,0.0,0.0,0.0,0.0,0.0,0.0,0.0,0.0,0.0,0.0,0.0,0.0,0.0,0.0,0.0,0.0,0.0,0.0,-6.2071,-6.4677,-6.9963,-7.5432,-8.0351,-8.4462,-8.7545,-8.9271,-9.0849,-9.2574,-9.4556,-9.5878,-9.7383,-9.9218,-10.0283,-10.0907,-10.12,-10.1017,-10.0613,-9.9989,-9.9402,-9.8594,-9.7566,-9.7787,-9.6738,-9.4513,-9.4513,-9.3591,-9.1957,-9.1161,-9.0522,-8.985,-8.778,-8.5973,-8.45,-8.4704,-8.3195,-8.0625,-7.889,-7.6828,-7.473,0.0,0.0,0.0,0.0,0.0,0.0,0.0,0.0,0.0,0.0,0.0,0.0,0.0,0.0,0.0,0.0,0.0,0.0,0.0,0.0,0.0,0.0,0.0,-4.3209,-4.3206,-4.3347,-4.3203,-4.2689,-4.2493,-4.1549,-3.999,-3.9731,-3.9082,-3.804,-3.8617,-3.8919,-3.8969,-3.9471,-3.9521,-3.9069,-3.7563,-3.6737,-3.626,-3.3746,-3.3068,-3.3363,-3.224,-3.2164,-3.2491,-3.1863,0.0,0.0,0.0,0.0,0.0,0.0,0.0,0.0,0.0,0.0,0.0,0.0,0.0,0.0,0.0,0.0,0.0,0.0,0.0,0.0,0.0,0.0,0.0,0.0,-6.2189,-6.7357,-7.1651,-7.4955,-7.9103,-8.4939,-8.7435,-8.9858,-9.2831,-9.3712,-9.485,-9.6575,-9.808,-9.9292,-10.0283,-10.1384,-10.1788,-10.1494,-10.098,-10.0192,-9.901,-9.8208,-9.7123,-9.5827,-9.5827,-9.4763,-9.2896,-9.2574,-9.1568,0.0,-8.9331,-8.8481,-8.7621,-8.599,-8.4391,0.0,0.0,0.0,0.0,0.0,-7.5857,-7.4001,0.0,0.0,0.0,0.0,0.0,0.0,0.0,0.0,0.0,0.0,0.0,0.0,0.0,0.0,0.0,0.0,0.0,0.0,0.0,0.0,0.0,0.0,0.0,-4.3274,-4.1553,-4.2669,-4.2641,-4.1419,-4.0893,-4.0068,-3.8919,-3.8417,-3.8165,-3.814,-3.8693,-3.902,-3.9045,-3.9496,-3.9697,-3.9647,-3.9094,-3.8492,-3.7688,-3.5604,-3.5378,-3.6078,-3.4926,-3.4073,-3.342,-3.3244,0.0,0.0,0.0,0.0,0.0,0.0,0.0,0.0,0.0,0.0,0.0,0.0,0.0,0.0,0.0,0.0,0.0,0.0,0.0,0.0,0.0,0.0,0.0,0.0,-6.6773,-7.2459,-7.8075,-7.9617,-8.1929,-8.6591,-8.85,-9.0408,-9.2978,-9.463,-9.5914,-9.6906,-9.9218,-10.05,-10.0302,0.0,0.0,0.0,0.0,-9.9645,-9.7019,-9.6074,-9.4715,-9.2896,-9.2896,-9.2389,-9.1435,-9.0728,-8.9904,-8.8919,-8.8132,-8.6744,-8.5111,-8.5042,-8.3388,-8.097,-8.1283,-8.0893,-7.9822,-7.7757,-7.5993,0.0,0.0,0.0,0.0,0.0,0.0,0.0,0.0,0.0,0.0,0.0,0.0,0.0,0.0,0.0,0.0,0.0,0.0,0.0,0.0,0.0,0.0,0.0,0.0,0.0,-4.1564,-4.1803,-4.1369,-4.0083,-3.9956,-3.955,-3.8919,-3.922,-3.912,-3.8718,-3.9295,-3.9546,-3.9546,-3.9647,-3.9697,-3.9647,-3.9094,-3.8266,-3.7211,-3.5834,-3.5182,-3.4901,-3.3796,-3.4399,-3.5575,-3.4198,-3.4123,-3.4756,-3.5994,0.0,0.0,0.0,0.0,0.0,0.0,0.0,0.0,0.0,0.0,0.0,0.0,0.0,0.0,0.0,0.0,0.0,0.0,0.0,0.0,-6.3646,-6.9253,-7.4771,-7.9837,-8.1782,-8.4022,-8.7545,-8.883,-9.0629,-9.3749,-9.4923,-9.6355,-9.8484,-10.0907,-10.1706,-10.0569,-10.209,0.0,-9.9348,-9.798,-9.6744,-9.5617,-9.4195,-9.3273,-9.2896,0.0,0.0,-8.9394,-8.9254,-8.7858,-8.5531,-8.536,-8.4727,-8.3806,-8.3228,-8.1274,-7.8668,-7.871,-7.755,-7.568,-7.4626,-7.33,-7.1998,0.0,0.0,0.0,0.0,0.0,0.0,0.0,0.0,0.0,0.0,0.0,0.0,0.0,0.0,0.0,0.0,0.0,0.0,0.0,0.0,0.0,0.0,0.0,0.0,-4.0693,-4.0642,-4.0364,-3.9697,-3.9697,-3.9546,-3.9295,-3.9572,-3.9697,-3.9697,-3.9973,-4.0099,-4.0099,-4.0099,-3.9948,-3.9672,-3.9396,-3.8768,-3.7939,-3.7086,-3.6433,-3.5881,-3.5328,-3.5701,-3.6254,-3.5102,-3.4856,-3.5364,-3.7037,-3.6684,-3.5997,0.0,0.0,0.0,0.0,0.0,0.0,0.0,0.0,0.0,0.0,0.0,0.0,0.0,0.0,-5.0873,0.0,0.0,-6.304,-6.686,-7.1998,-7.6937,-8.1012,-8.2994,-8.5196,-8.8426,-8.916,-9.0702,-9.3969,-9.5364,-9.7089,-9.9512,-10.1289,-10.1995,-10.1338,-10.1809,-10.077,-9.8171,-9.6918,-9.5455,-9.3731,-9.2525,-9.1615,-9.0988,-9.0607,-8.9519,-8.7809,-8.7485,-8.6314,-8.464,-8.464,-8.3998,-8.2847,-8.1359,-7.9667,-7.7942,-7.757,-7.6284,-7.4525,-7.3747,-7.28,-7.1819,0.0,0.0,0.0,0.0,0.0,0.0,0.0,0.0,0.0,0.0,0.0,0.0,0.0,0.0,0.0,0.0,0.0,0.0,0.0,0.0,0.0,0.0,0.0,0.0,0.0,-3.9898,-3.9898,-3.9697,-3.9898,-3.9948,-3.9848,-3.9973,-4.0249,-4.0676,-4.0676,-4.0676,-4.0676,-4.0676,-4.035,-3.9848,-3.9848,-3.9446,-3.8894,-3.8467,-3.7914,-3.7287,-3.6985,-3.665,-3.6236,-3.578,-3.5429,-3.5502,-3.7769,-3.8101,-3.7765,-3.8538,-3.8901,0.0,0.0,0.0,0.0,0.0,0.0,0.0,0.0,0.0,-4.8139,-5.0642,-5.2807,-5.5108,-5.7814,-6.2474,-6.684,-6.9849,-7.4224,-7.84,-8.1713,-8.3728,-8.5967,-8.905,-8.9529,-9.0886,-9.4006,-9.5768,-9.7525,-9.9562,-10.1117,-10.1719,-10.1091,-10.0767,-9.9481,-9.7006,-9.6058,-9.4319,-9.185,-9.1038,-9.0089,-8.9072,-8.8497,-8.7753,-8.6907,-8.6264,-8.5486,-8.4606,-8.4336,-8.3355,-8.1832,-7.9904,-7.8585,-7.7705,-7.6961,-7.5743,-7.4322,-7.3713,-7.2935,-7.209,0.0,0.0,0.0,0.0,0.0,0.0,0.0,0.0,0.0,0.0,0.0,0.0,0.0,0.0,0.0,0.0,0.0,0.0,0.0,0.0,0.0,0.0,0.0,0.0,0.0,-4.0651,-4.0676,-3.9697,-4.0676,-4.0902,-4.0425,-4.0874,-4.1125,-4.12,-4.12,-4.12,-4.12,-4.12,-4.0874,-4.0425,-4.0425,-3.9798,-3.8919,-3.9346,-3.8843,-3.7713,-3.621,-3.5831,-3.6077,-3.6175,-3.6402,-3.7058,-3.9527,-3.9848,-3.9416,-4.0032,0.0,-3.7584,-3.7285,-3.7922,0.0,-4.3779,-4.4605,-4.6107,0.0,0.0,-5.46,-5.8118,-6.0148,-6.1772,-6.3429,-6.5984,-6.8758,-7.1441,-7.476,-7.8255,-8.1721,-8.4205,-8.6591,-8.9124,-9.0041,-9.1473,-9.4042,-9.5768,-9.6917,-9.7449,-10.0192,-10.0766,-9.8383,-9.8875,-9.7927,-9.5084,-9.3621,-9.2044,-9.0471,-8.969,-8.924,-8.9072,-8.9004,-8.826,-8.6907,-8.6839,-8.5993,-8.4539,-8.3219,-8.1832,-8.0378,-7.9498,-7.828,-7.6927,-7.6149,-7.4931,-7.3612,-7.351,-7.2631,-7.1413,0.0,0.0,0.0,0.0,0.0,0.0,0.0,0.0,0.0,0.0,0.0,0.0,0.0,0.0,0.0,0.0,0.0,0.0,0.0,0.0,0.0,0.0,0.0,0.0,0.0,0.0,-4.1075,-4.0651,-4.1075,-4.1175,-4.0949,-4.1175,-4.1505,-4.1806,-4.1806,-4.1806,-4.1806,-4.1806,-4.1505,-4.0924,-4.0651,-4.0668,-4.0846,-4.0046,-3.9446,-3.8787,-3.737,-3.647,0.0,0.0,-3.6415,-3.7084,-3.8934,-3.9251,-3.9083,-3.9757,-3.9917,0.0,-4.0544,0.0,0.0,0.0,-4.8594,-5.1396,-5.5443,-5.7103,-5.8626,-6.1501,-6.3632,-6.529,-6.6339,-6.8542,-7.0763,0.0,-7.5514,-7.8916,-8.2385,-8.4572,-8.6518,-8.8463,-8.9821,-9.1583,-9.4042,-9.5039,-9.6358,-9.8262,-9.9127,-9.9411,-9.9152,-9.8238,-9.686,-9.4755,-9.3233,-9.1711,-9.0222,-8.9444,-8.9072,-8.9072,-8.8632,-8.7922,-8.6907,-8.6467,-8.5418,-8.3896,-8.2847,-8.1562,-8.0107,-7.8923,-7.757,-7.6115,-7.5371,-7.4153,-7.2868,-7.2868,-7.2191,-7.1312,0.0,0.0,0.0,0.0,0.0,0.0,0.0,0.0,0.0,0.0,0.0,0.0,0.0,0.0,0.0,0.0,0.0,0.0,0.0,0.0,0.0,0.0,0.0,0.0,0.0,0.0,-4.1706,-4.1555,-4.1706,-4.1706,-4.1555,-4.1731,-4.2007,-4.2439,-4.2288,-4.2288,-4.2414,-4.2263,-4.2178,-4.207,-4.1457,-4.1931,-4.2801,-4.0941,-3.9924,-3.9294,-3.8077,-3.6791,0.0,0.0,-3.6549,-3.7225,-3.8759,-3.9291,-3.9483,-4.0056,-4.0964,-4.1951,-4.2623,0.0,0.0,-4.8795,-5.2437,-5.6055,-5.8186,-6.0216,-6.2279,-6.458,-6.6474,-6.7895,-6.8436,-7.0209,0.0,-7.331,-7.6119,-7.9359,-8.2901,-8.4792,-8.6224,-8.7399,-8.8757,-9.0374,-9.2274,-9.3457,-9.513,-9.7693,-9.7269,-9.7418,-9.8871,-9.7278,-9.5804,-9.4755,-9.303,-9.1508,-9.0222,-8.9444,-8.9072,-8.9072,-8.8531,-8.782,-8.6873,-8.5689,-8.4437,-8.3152,-8.2408,-8.1156,-7.9498,-7.8213,-7.6792,-7.5303,-7.4356,-7.3341,-7.2394,-7.2191,-7.1751,-7.1312,0.0,0.0,0.0,0.0,0.0,0.0,0.0,0.0,0.0,0.0,0.0,0.0,0.0,0.0,0.0,0.0,0.0,0.0,0.0,0.0,0.0,0.0,0.0,0.0,0.0,0.0,0.0,-4.2187,-4.266,-4.266,-4.2187,-4.2685,-4.2936,-4.2936,-4.2439,-4.2514,-4.2911,-4.2439,-4.2951,-4.4045,-4.3388,-4.3647,-4.4194,-4.2205,-4.0415,-3.8793,-3.7566,0.0,0.0,0.0,-3.7237,-3.7931,-3.9977,-4.1086,0.0,-4.1788,-4.1917,0.0,0.0,0.0,-4.8564,-5.2371,-5.5581,-5.8761,-6.2482,-6.4478,-6.617,-6.847,-6.9553,-7.0094,-7.0128,-7.0781,-7.2013,-7.4008,-7.6338,-7.9164,-8.2907,-8.4792,-8.582,-8.5857,-8.6591,-8.7303,0.0,-9.0696,-9.2999,-9.3994,-9.4319,-9.4958,-9.5917,-9.5161,-9.4755,-9.4721,-9.2522,-9.0966,-9.0222,-8.9444,-8.9072,-8.9072,-8.9072,-8.8294,-8.6839,-8.4606,-8.3152,-8.2408,-8.1629,-8.0073,-7.801,-7.7232,-7.6014,-7.4492,-7.3037,-7.2428,-7.2326,-7.1616,-7.1345,-7.1312,0.0,0.0,0.0,0.0,0.0,0.0,0.0,0.0,0.0,0.0,0.0,0.0,0.0,0.0,0.0,0.0,0.0,0.0,0.0,0.0,0.0,0.0,0.0,0.0,0.0,0.0,0.0,-4.2213,-4.2389,-4.2389,-4.2213,-4.2389,-4.2489,-4.2489,-4.2288,-4.2313,-4.2519,-4.319,-4.4225,-4.5341,-4.4334,-4.5149,-4.6642,-4.3823,-4.1851,-4.0402,0.0,0.0,0.0,0.0,0.0,0.0,-3.8388,0.0,0.0,-4.0986,-4.2532,-4.4164,0.0,0.0,-5.2438,-5.622,-5.9032,-6.1738,-6.4986,-6.688,-6.8301,-6.9553,-6.9214,-6.8504,-6.803,-6.8571,-6.9322,-7.021,-7.3972,-7.8246,-8.2577,-8.3831,-8.461,-8.5444,-8.6388,0.0,0.0,0.0,0.0,-9.2538,-9.2941,-9.3655,-9.4992,-9.4823,-9.4721,-9.4721,-9.2489,-9.1169,-9.0932,-8.9715,-8.9072,-8.9072,-8.8091,-8.711,-8.6095,-8.4302,-8.3084,-8.234,-8.1088,-7.9566,-7.7874,-7.6623,-7.5202,-7.3781,-7.2766,-7.209,-7.165,-7.1413,-7.1312,-7.1312,0.0,0.0,0.0,0.0,0.0,0.0,0.0,0.0,0.0,0.0,0.0,0.0,0.0,0.0,0.0,0.0,0.0,0.0,0.0,0.0,0.0,0.0,0.0,0.0,0.0,0.0,0.0,-4.1031,-4.0777,-4.0978,-4.158,-4.158,-4.1681,-4.1856,-4.1656,-4.1926,-4.2616,-4.3206,-4.438,-4.5602,-4.4636,-4.5295,-4.6499,-4.3452,-4.1617,0.0,0.0,0.0,0.0,0.0,0.0,0.0,0.0,-3.9584,-4.0516,-4.1986,-4.4548,-4.7496,-4.9932,-5.3179,-5.663,-5.981,-6.2313,-6.4613,-6.7083,-6.8605,-6.9553,-6.9755,-6.8571,-6.7117,-6.5865,-6.5797,-6.6378,-6.7734,-7.1498,-7.6088,-8.135,-8.2445,-8.3193,-8.4541,-8.5529,0.0,0.0,0.0,0.0,-9.0676,-9.1131,-9.2015,-9.3808,-9.4146,-9.4451,-9.4687,-9.2489,-9.1305,-9.1305,-8.9816,-8.897,-8.8666,-8.7211,-8.6095,-8.5317,-8.3795,-8.2712,-8.1934,-8.0445,-7.8957,-7.7468,-7.5946,-7.4424,-7.3037,-7.2293,-7.1718,-7.1312,-7.1312,-7.1312,-7.1312,0.0,0.0,0.0,0.0,0.0,0.0,0.0,0.0,0.0,0.0,0.0,0.0,0.0,0.0,0.0,0.0,0.0,0.0,0.0,0.0,0.0,0.0,0.0,0.0,-3.7814,-3.681,-3.7109,-3.8743,-3.8165,-3.8743,-4.03,-4.0325,-4.0626,-4.105,-4.0603,-4.1336,-4.2966,-4.2539,-4.343,-4.5109,-4.4362,-4.4208,-4.4077,-4.1444,0.0,0.0,0.0,0.0,0.0,0.0,0.0,0.0,0.0,-4.2929,-4.475,-4.4886,-4.8003,-5.1792,-5.3416,-5.7036,-6.0926,-6.3193,-6.5324,-6.7252,-6.8774,-6.9586,-6.9823,-6.9079,-6.7624,-6.5797,0.0,0.0,-6.3417,-6.6488,-6.9246,-7.3153,-7.9316,-8.0842,-8.1889,0.0,0.0,0.0,0.0,0.0,0.0,-8.8549,0.0,-9.0053,-9.2252,-9.3131,-9.3909,-9.462,-9.2455,-9.1305,-9.1305,-8.9782,-8.8666,-8.7922,-8.6467,-8.5351,-8.4505,-8.3084,-8.1968,-8.1156,-7.9634,-7.8179,-7.6724,-7.5134,-7.368,-7.2326,-7.1616,-7.1312,-7.1312,-7.1278,-7.1244,-7.1244,0.0,0.0,0.0,0.0,0.0,0.0,0.0,0.0,0.0,0.0,0.0,0.0,0.0,0.0,0.0,0.0,0.0,0.0,0.0,0.0,0.0,0.0,0.0,0.0,0.0,-3.5278,-3.5554,-3.6383,0.0,-3.701,-3.7462,-3.7839,-3.8115,0.0,-3.8438,-3.9038,-3.9986,-4.1131,-4.2697,-4.4378,0.0,-4.3734,-4.4766,0.0,0.0,0.0,0.0,0.0,0.0,0.0,0.0,0.0,0.0,-4.5331,-4.665,-4.8883,-5.1928,-5.5141,-5.7712,-6.1264,-6.4681,-6.6373,-6.7218,-6.7895,-6.8876,-6.8368,-6.7455,-6.6711,-6.4038,-6.1129,0.0,0.0,0.0,-6.2774,-6.8947,0.0,-7.9329,-8.1168,0.0,-8.4633,0.0,-8.6009,-8.5354,-8.6511,0.0,0.0,-8.9058,-8.9816,-9.1508,-9.2861,-9.3673,-9.3842,-9.2184,-9.1305,-9.1305,-8.9275,-8.7922,-8.7177,-8.623,-8.508,-8.3761,-8.2813,-8.1697,-8.0378,-7.8348,-7.6927,-7.5845,-7.3815,-7.2732,-7.2326,-7.1616,-7.1312,-7.1244,-7.0669,-7.0466,-7.0398,0.0,0.0,0.0,0.0,0.0,0.0,0.0,0.0,0.0,0.0,0.0,0.0,0.0,0.0,0.0,0.0,0.0,0.0,0.0,0.0,0.0,0.0,0.0,0.0,0.0,0.0,0.0,0.0,0.0,0.0,0.0,-3.5604,-3.6088,-3.6729,-3.6942,-3.7838,-3.9163,0.0,0.0,0.0,0.0,0.0,0.0,0.0,0.0,0.0,0.0,0.0,0.0,0.0,0.0,-4.5256,-4.8197,-4.9864,-5.1285,-5.4262,0.0,-5.9641,-6.1941,-6.4816,-6.7387,-6.8233,-6.8673,-6.8673,-6.7793,-6.7184,-6.6136,-6.3734,-6.1028,0.0,0.0,0.0,0.0,0.0,0.0,0.0,-7.7868,-8.0777,-8.3277,0.0,-8.7429,0.0,-8.8226,-8.9275,-9.0121,0.0,-8.9951,-8.9951,-9.0763,-9.2252,-9.2928,-9.259,-9.144,-9.0493,-8.985,-8.8294,-8.7144,-8.6399,-8.5655,-8.4471,-8.3016,-8.2611,-8.1426,-7.9634,0.0,-7.6251,-7.5067,-7.3172,-7.2225,-7.1887,-7.1481,-7.1109,-7.077,-7.0331,-6.9992,-6.9553,0.0,0.0,0.0,0.0,0.0,0.0,0.0,0.0,0.0,0.0,0.0,0.0,0.0,0.0,0.0,0.0,0.0,0.0,0.0,0.0,0.0,0.0,0.0,0.0,0.0,0.0,0.0,0.0,0.0,0.0,0.0,0.0,0.0,0.0,0.0,0.0,0.0,0.0,0.0,0.0,0.0,0.0,0.0,0.0,0.0,0.0,0.0,0.0,0.0,0.0,-4.7132,-4.8233,-5.2909,-5.5412,-5.7171,-6.0013,-6.2313,-6.4275,-6.573,-6.7726,-6.9383,-6.9383,-6.9789,-6.9383,-6.6373,-6.5967,-6.4952,-6.0452,0.0,-5.6664,-5.4532,0.0,-5.6731,-5.9877,0.0,-7.0229,-7.6454,-8.0276,-8.3592,-8.6805,-8.9072,-9.0696,-9.1508,-9.2184,-9.2624,-9.2725,-9.1271,-9.0357,-9.0357,-9.1677,-9.2049,-9.1169,-9.0425,-8.941,-8.8023,-8.7177,-8.6433,-8.579,-8.4979,-8.3862,-8.2408,-8.2306,-8.1054,-7.8889,0.0,0.0,-7.4356,-7.2868,-7.1887,-7.1312,-7.121,-7.077,-7.0161,-6.9958,-6.9417,-6.8605,0.0,0.0,0.0,0.0,0.0,0.0,0.0,0.0,0.0,0.0,-3.0633,0.0,0.0,0.0,0.0,0.0,0.0,0.0,0.0,0.0,0.0,0.0,0.0,0.0,0.0,0.0,0.0,0.0,0.0,0.0,0.0,0.0,0.0,0.0,0.0,0.0,0.0,0.0,0.0,0.0,0.0,0.0,0.0,0.0,0.0,0.0,0.0,0.0,0.0,0.0,-4.9928,-5.2633,-5.7435,-6.0013,-6.1704,-6.4038,-6.5425,-6.6576,-6.8098,-6.9688,-7.0939,-7.0939,-7.0567,-6.9383,-6.6373,-6.4377,0.0,0.0,0.0,-5.3754,-5.2097,-5.3957,0.0,-6.1298,0.0,0.0,0.0,0.0,-8.3964,0.0,0.0,0.0,0.0,0.0,0.0,0.0,0.0,0.0,-9.1102,-9.1947,-9.1812,-9.0425,-8.9681,-8.8869,-8.7989,-8.667,-8.5926,-8.579,-8.4979,-8.3862,-8.2408,-8.1765,-8.0276,-7.8044,0.0,0.0,-7.3578,-7.209,-7.1447,-7.1244,-7.0635,-7.0297,-7.0026,-6.8774,-6.7827,-6.7083,0.0,0.0,0.0,0.0,0.0,0.0,0.0,0.0,0.0,0.0,-3.3226,-3.2566,0.0,0.0,0.0,0.0,0.0,0.0,0.0,0.0,0.0,0.0,0.0,0.0,0.0,0.0,0.0,0.0,0.0,0.0,0.0,0.0,0.0,0.0,0.0,0.0,0.0,0.0,0.0,0.0,0.0,0.0,0.0,0.0,0.0,0.0,0.0,0.0,0.0,0.0,-5.1717,-5.6205,-6.1379,-6.4038,-6.5696,-6.7963,-6.8876,-6.9316,-7.006,-7.1312,-7.2259,-7.1515,-7.1041,-6.9586,-6.5019,0.0,0.0,0.0,0.0,-5.2672,-5.1928,0.0,0.0,0.0,0.0,0.0,0.0,0.0,0.0,0.0,0.0,0.0,0.0,0.0,0.0,0.0,0.0,0.0,-9.1338,-9.0899,-9.0188,-8.9106,-8.87,-8.7989,-8.6873,-8.6129,-8.5587,-8.5182,-8.3951,-8.2598,-8.1129,-7.9573,-7.7531,-7.5048,0.0,0.0,-7.0733,-7.0334,-7.0216,-7.0196,-7.0209,-6.9958,-6.9485,-6.8335,-6.7455,-6.6643,0.0,0.0,0.0,0.0,0.0,0.0,0.0,-3.1888,-3.3194,-3.5382,-3.5683,-3.5228,-3.3922,-3.2315,-3.1135,0.0,0.0,0.0,0.0,0.0,0.0,0.0,0.0,0.0,0.0,0.0,0.0,0.0,0.0,0.0,0.0,0.0,0.0,0.0,0.0,0.0,0.0,0.0,0.0,0.0,0.0,0.0,0.0,0.0,0.0,0.0,0.0,0.0,0.0,0.0,-5.2395,-5.7442,-6.2408,-6.5867,-6.8436,-6.9925,-7.1041,-7.1785,-7.1785,-7.2603,-7.3158,-7.1879,-7.1161,-6.9278,-6.3497,-6.1104,0.0,0.0,-5.2739,-5.23,-5.23,0.0,0.0,0.0,0.0,0.0,0.0,0.0,0.0,0.0,0.0,0.0,0.0,0.0,0.0,0.0,0.0,0.0,0.0,-8.9816,-8.8734,-8.8023,-8.7854,-8.6945,-8.5288,-8.5119,-8.4552,-8.3531,-8.2288,-8.0984,-7.9542,-7.7377,-7.5029,-7.2403,0.0,0.0,0.0,-6.8648,-6.8943,-6.9214,-6.9432,-6.9332,-6.8977,-6.7827,-6.6948,-6.6136,0.0,0.0,0.0,0.0,0.0,0.0,0.0,-3.1989,-3.3796,-3.6053,-3.6329,-3.6279,-3.6128,-3.46,-3.2792,0.0,0.0,0.0,0.0,0.0,0.0,0.0,0.0,0.0,0.0,0.0,0.0,0.0,0.0,0.0,0.0,0.0,0.0,0.0,0.0,0.0,0.0,0.0,0.0,0.0,0.0,0.0,0.0,0.0,0.0,0.0,0.0,0.0,0.0,0.0,0.0,-5.4229,-5.7309,-6.3216,-6.8774,-6.759,0.0,0.0,-7.3274,-7.335,-7.3239,-7.2497,-7.0749,-6.7852,-6.2596,0.0,0.0,0.0,-5.2367,-5.23,-5.23,-5.2469,0.0,0.0,0.0,0.0,0.0,0.0,0.0,0.0,0.0,0.0,0.0,0.0,0.0,0.0,0.0,0.0,0.0,-8.9545,-8.8734,-8.8023,-8.7347,-8.584,-8.3515,-8.2888,-8.177,-8.0256,-8.0107,-7.9308,-7.7896,-7.6342,-7.4548,-7.2371,0.0,0.0,0.0,-6.7638,-6.8074,-6.9053,-6.7796,-6.8035,-6.8842,-6.6677,-6.5425,-6.4681,0.0,0.0,0.0,0.0,0.0,0.0,0.0,-3.1712,-3.3596,-3.6531,-3.7136,-3.7337,-3.7337,-3.6458,-3.4726,0.0,0.0,0.0,0.0,0.0,0.0,0.0,0.0,0.0,0.0,0.0,0.0,0.0,0.0,0.0,0.0,0.0,0.0,0.0,0.0,0.0,0.0,0.0,0.0,0.0,0.0,0.0,0.0,0.0,0.0,0.0,0.0,0.0,0.0,0.0,0.0,0.0,-5.1633,-5.6012,0.0,0.0,-6.7229,-7.0225,-7.0749,-7.2079,-7.3026,-7.1895,-7.0326,-6.7746,-6.2998,0.0,0.0,-5.3822,-5.2638,-5.2469,-5.2942,-5.301,-5.3991,0.0,0.0,0.0,0.0,0.0,0.0,0.0,0.0,0.0,0.0,0.0,0.0,0.0,0.0,0.0,0.0,0.0,-8.743,-8.5221,-8.4864,-8.3557,-8.1187,-8.0896,-8.0408,-7.9771,-7.8373,-7.6963,-7.5613,-7.3292,-7.092,-6.8547,0.0,0.0,0.0,-6.5692,-6.6007,-6.6224,-6.679,-6.7089,-6.7135,-6.6592,-6.5899,-6.5155,0.0,0.0,0.0,0.0,0.0,0.0,-3.0105,-3.1411,-3.3294,-3.6307,-3.7312,-3.7764,-3.7764,-3.7136,-3.568,-3.3169,0.0,0.0,0.0,0.0,0.0,0.0,0.0,0.0,0.0,0.0,-3.1095,-3.2184,-3.2921,0.0,0.0,0.0,0.0,0.0,0.0,0.0,0.0,0.0,0.0,0.0,0.0,0.0,0.0,0.0,0.0,0.0,0.0,0.0,0.0,0.0,0.0,0.0,0.0,0.0,0.0,0.0,-6.3764,-6.7411,-6.8331,-7.0622,-7.2503,-7.1688,-7.0039,-6.7509,0.0,0.0,0.0,-5.416,-5.3044,-5.2841,-5.3416,-5.3518,-5.3991,0.0,0.0,0.0,0.0,0.0,0.0,0.0,0.0,0.0,0.0,0.0,0.0,0.0,0.0,0.0,0.0,0.0,-8.4995,-8.2936,-8.2707,-8.1446,-7.9065,-7.9065,-7.8721,-7.803,-7.6353,-7.4823,-7.3318,-7.0806,-6.8345,0.0,0.0,0.0,0.0,-6.3883,-6.4173,-6.4178,-6.5166,-6.573,-6.5915,-6.5315,-6.5219,-6.5181,0.0,0.0,0.0,0.0,0.0,0.0,0.0,-3.116,-3.3018,-3.5232,-3.6508,-3.7186,-3.7186,-3.6207,-3.5282,-3.4705,0.0,0.0,0.0,0.0,0.0,0.0,0.0,0.0,0.0,0.0,-3.1712,-3.394,-3.398,-3.5347,-3.7965,0.0,0.0,0.0,0.0,0.0,0.0,0.0,0.0,0.0,0.0,0.0,0.0,0.0,0.0,0.0,0.0,0.0,0.0,0.0,0.0,0.0,0.0,0.0,0.0,0.0,-5.9974,-6.5801,-6.7066,-6.932,-7.1534,-7.2325,-7.0138,-6.6889,0.0,0.0,0.0,-5.4262,-5.3484,-5.3484,-5.3518,-5.3518,-5.3991,-5.548,0.0,0.0,0.0,0.0,0.0,0.0,0.0,0.0,0.0,0.0,0.0,0.0,0.0,0.0,0.0,0.0,-8.1271,-8.1913,-8.1241,-7.9731,-7.7354,-7.7354,-7.6165,-7.3979,-7.3949,-7.2834,-7.0859,-6.9602,0.0,0.0,0.0,0.0,0.0,-6.2361,-6.29,-6.3986,-6.26,-6.3684,-6.5588,-6.2206,-6.2508,-6.4214,0.0,0.0,0.0,0.0,0.0,0.0,0.0,-2.9151,-3.0593,-3.2466,-3.3671,-3.4801,-3.5931,-3.5382,-3.5031,-3.5232,0.0,0.0,0.0,0.0,0.0,0.0,0.0,0.0,0.0,0.0,-3.3018,-3.5785,-3.651,-3.8658,-4.2149,-4.1683,-4.2364,0.0,0.0,0.0,0.0,0.0,0.0,0.0,0.0,0.0,0.0,0.0,0.0,0.0,0.0,0.0,0.0,0.0,0.0,0.0,0.0,0.0,0.0,0.0,0.0,0.0,-6.0075,-6.1957,-6.3792,-6.428,-6.3274,-6.1692,-5.9697,0.0,0.0,0.0,-5.3518,-5.3518,-5.3518,-5.3518,-5.4499,-5.7476,0.0,0.0,0.0,0.0,0.0,0.0,0.0,0.0,0.0,0.0,0.0,0.0,0.0,0.0,0.0,0.0,0.0,-7.8749,-7.853,-7.7538,-7.5661,-7.5207,-7.4637,-7.3881,-7.2505,-7.1068,-6.9572,-6.8226,0.0,0.0,0.0,0.0,0.0,-6.2361,-6.2074,-6.2086,-6.2025,-6.1964,-6.1946,-6.171,-6.2073,-6.2481,0.0,0.0,0.0,0.0,0.0,0.0,0.0,-2.8222,-2.9414,-3.0909,-3.2064,-3.3395,-3.5006,-3.455,-3.45,-3.5408,0.0,0.0,0.0,0.0,0.0,0.0,0.0,0.0,0.0,-3.2148,-3.4382,-3.759,-3.8936,-4.1471,-4.5169,-4.534,-4.576,-4.6254,-4.5831,0.0,0.0,0.0,0.0,0.0,0.0,0.0,-4.7347,0.0,0.0,0.0,0.0,0.0,0.0,0.0,0.0,0.0,0.0,0.0,0.0,0.0,-4.9958,0.0,0.0,-5.7244,-5.9318,-6.0811,-6.0407,0.0,0.0,0.0,0.0,0.0,0.0,0.0,0.0,-5.3518,0.0,0.0,0.0,0.0,0.0,0.0,0.0,0.0,0.0,0.0,0.0,0.0,0.0,0.0,0.0,0.0,0.0,0.0,0.0,-7.6401,-7.6401,-7.5778,-7.451,-7.4091,-7.3642,-7.3103,-7.1368,-6.9871,-6.8555,0.0,0.0,0.0,0.0,0.0,0.0,-6.2091,-6.1493,-6.107,-6.0974,-6.0588,-6.0148,-6.0655,-6.1165,-6.165,0.0,0.0,0.0,0.0,0.0,0.0,0.0,0.0,0.0,0.0,-3.1361,-3.2641,-3.4204,-3.3596,-3.3671,0.0,0.0,0.0,0.0,0.0,0.0,0.0,0.0,0.0,-3.1609,-3.3112,-3.5763,-3.9466,-4.111,-4.3794,-4.7341,-4.9448,-4.96,-4.8134,-4.9617,-4.8549,0.0,0.0,0.0,0.0,0.0,-4.8612,0.0,0.0,0.0,0.0,0.0,0.0,0.0,0.0,0.0,0.0,0.0,0.0,0.0,0.0,0.0,0.0,0.0,0.0,0.0,0.0,0.0,0.0,0.0,0.0,0.0,0.0,0.0,0.0,0.0,0.0,0.0,0.0,0.0,0.0,0.0,0.0,0.0,0.0,0.0,0.0,0.0,0.0,0.0,0.0,0.0,0.0,0.0,0.0,0.0,0.0,-7.4809,-7.451,-7.3911,-7.3762,-7.3043,-7.1787,-7.038,-6.9064,-6.7777,0.0,0.0,0.0,0.0,0.0,0.0,-6.1583,-6.1044,-6.0924,-5.9608,-5.9387,-5.9804,-5.9123,-6.0009,-6.139,0.0,0.0,0.0,0.0,0.0,0.0,0.0,0.0,0.0,0.0,0.0,-3.0683,-3.1486,-3.2089,0.0,0.0,0.0,0.0,0.0,0.0,0.0,0.0,0.0,0.0,-3.3968,-3.4767,-3.7355,-4.1866,-4.2824,-4.601,-5.128,-5.1023,-5.1662,-5.2909,-5.1959,-5.022,0.0,0.0,0.0,0.0,-4.8874,-4.9149,0.0,0.0,0.0,0.0,-4.8541,-4.8457,0.0,0.0,0.0,0.0,0.0,0.0,0.0,0.0,-4.7429,-4.7698,-4.8476,0.0,-5.0804,-5.2679,0.0,0.0,0.0,0.0,0.0,0.0,0.0,0.0,0.0,0.0,0.0,0.0,0.0,0.0,0.0,0.0,0.0,0.0,0.0,0.0,0.0,0.0,0.0,0.0,0.0,0.0,0.0,0.0,0.0,-7.4151,-7.4121,-7.4061,-7.3881,-7.2385,-7.1457,-7.1098,-6.8794,-6.7268,-6.643,0.0,0.0,0.0,0.0,0.0,-6.2211,-6.0894,-6.0326,-6.0236,-5.9428,-5.8564,-5.7898,-5.862,-5.916,-5.9572,0.0,0.0,0.0,0.0,0.0,0.0,0.0,0.0,0.0,0.0,0.0,0.0,0.0,0.0,0.0,0.0,0.0,0.0,0.0,0.0,0.0,0.0,0.0,-3.4578,-3.5521,-3.6564,-3.906,-4.3141,-4.4857,-4.7893,-5.225,-5.3455,-5.3922,-5.3697,-5.1773,-4.9866,-4.8037,-4.857,-4.8307,-4.7786,-4.9655,0.0,0.0,0.0,0.0,0.0,-4.7907,-4.7876,0.0,-4.7495,-4.7309,-4.7309,0.0,0.0,0.0,0.0,-4.71,-4.686,-4.686,-4.7878,-4.9401,-5.1001,-5.2075,-5.2997,0.0,0.0,0.0,0.0,0.0,0.0,0.0,0.0,0.0,0.0,0.0,0.0,0.0,0.0,0.0,0.0,0.0,0.0,0.0,0.0,0.0,0.0,0.0,0.0,0.0,0.0,0.0,0.0,-7.2984,-7.2505,-7.2505,-7.1427,-7.062,-6.9991,-6.7657,-6.634,-6.5951,0.0,0.0,0.0,0.0,0.0,-6.1553,-6.0505,-6.0086,-6.0027,-5.9368,-5.8291,-5.7325,-5.9073,-5.9348,-5.9036,0.0,0.0,0.0,0.0,0.0,0.0,0.0,0.0,0.0,0.0,0.0,0.0,0.0,0.0,0.0,0.0,0.0,0.0,0.0,0.0,0.0,0.0,0.0,-3.6754,-3.7191,-3.8346,-4.0625,-4.4108,-4.6872,-4.9708,-5.271,-5.6127,-5.6271,-5.3419,-5.1106,-4.9209,-4.779,-4.8866,-4.9079,-4.8844,-4.978,0.0,0.0,0.0,0.0,0.0,0.0,0.0,0.0,-4.7189,-4.7219,-4.7279,-4.707,0.0,0.0,0.0,0.0,0.0,-4.6411,-4.8297,-5.0466,-5.1605,-5.2669,-5.3715,-5.4886,0.0,0.0,0.0,0.0,0.0,0.0,0.0,0.0,0.0,0.0,0.0,0.0,0.0,0.0,0.0,0.0,0.0,0.0,0.0,0.0,0.0,0.0,0.0,0.0,0.0,0.0,0.0,-7.1607,-7.05,-7.032,-7.032,-6.9722,-6.8525,-6.661,-6.5712,-6.5652,-6.3767,0.0,0.0,0.0,0.0,-6.0745,-5.9967,-5.9697,-5.9727,-5.9189,-5.8261,-5.7527,-5.9852,-5.9968,-5.9254,0.0,0.0,0.0,0.0,0.0,0.0,0.0,0.0,0.0,0.0,0.0,0.0,0.0,0.0,0.0,0.0,0.0,0.0,0.0,0.0,0.0,0.0,-3.8013,-3.829,-4.0888,-4.0129,-4.1686,-4.5888,-4.8039,-5.1585,-5.6338,-5.8534,-5.8517,-5.6606,-5.3283,-5.1242,-5.0222,-4.9581,-4.9251,-4.9197,-4.9079,0.0,0.0,0.0,0.0,0.0,0.0,0.0,0.0,-4.6608,-4.683,-4.71,-4.5963,0.0,0.0,0.0,0.0,0.0,-4.686,-4.9321,-5.1084,-4.9054,-4.9487,-5.0825,0.0,0.0,0.0,0.0,0.0,0.0,0.0,0.0,0.0,0.0,0.0,0.0,0.0,0.0,0.0,0.0,0.0,0.0,0.0,0.0,0.0,0.0,0.0,0.0,0.0,0.0,0.0,0.0,0.0,-6.8734,-6.7597,-6.7597,-6.7208,-6.646,-6.4994,-6.4306,-6.4246,-6.2869,-6.2181,0.0,0.0,-5.9518,-5.9308,-5.8082,-5.7902,-5.8411,-5.8321,-5.8141,-5.8189,-6.004,-6.0256,-5.9929,0.0,0.0,0.0,0.0,0.0,0.0,0.0,0.0,0.0,0.0,0.0,0.0,0.0,0.0,0.0,0.0,0.0,0.0,0.0,0.0,0.0,-4.2566,-4.0935,-4.0818,-4.2589,-4.2353,-4.4104,-4.7908,-5.05,-5.3787,-5.772,-5.8409,-5.764,-5.5517,-5.294,-5.0785,-4.9152,-4.9681,-4.9655,-4.9292,0.0,0.0,0.0,0.0,0.0,0.0,0.0,0.0,0.0,0.0,-4.6232,-4.6681,-4.6052,0.0,0.0,0.0,0.0,0.0,-4.5514,-4.7214,-4.867,-4.7745,-5.0472,-5.3355,0.0,0.0,0.0,0.0,0.0,0.0,0.0,0.0,0.0,0.0,0.0,0.0,0.0,0.0,0.0,0.0,0.0,0.0,0.0,0.0,0.0,0.0,0.0,0.0,0.0,0.0,0.0,0.0,0.0,0.0,-6.5951,-6.5562,-6.5413,-6.5473,-6.4485,-6.3827,-6.3468,-6.254,-6.1523,-6.0446,0.0,-5.868,-5.7962,-5.7363,-5.7274,-5.7603,-5.7992,-5.7902,-5.7723,-5.9197,-5.9744,-5.9987,0.0,0.0,0.0,0.0,0.0,0.0,0.0,0.0,0.0,0.0,0.0,0.0,0.0,0.0,0.0,0.0,0.0,0.0,0.0,0.0,-4.2701,-4.4018,-4.3269,-4.3269,-4.4216,-4.4436,-4.6232,-4.9733,-5.2749,-5.5888,-5.9109,-5.8418,-5.673,-5.4151,-5.2041,-4.9953,-4.8026,-4.9196,-4.9457,-4.9131,0.0,0.0,0.0,0.0,0.0,0.0,0.0,0.0,0.0,0.0,0.0,0.0,0.0,0.0,0.0,-4.6082,-4.5244,-4.4377,-4.4706,-4.5753,-4.686,-4.7219,0.0,0.0,0.0,0.0,0.0,0.0,0.0,0.0,0.0,0.0,0.0,0.0,0.0,0.0,0.0,0.0,0.0,0.0,0.0,0.0,0.0,0.0,0.0,0.0,0.0,0.0,0.0,0.0,0.0,0.0,0.0,0.0,-6.4784,-6.3977,-6.3887,-6.4575,-6.3887,-6.3318,-6.281,-6.1852,-6.0565,-5.9069,-5.862,-5.7842,-5.6855,-5.6705,-5.6735,-5.6944,-5.7453,-5.7581,-5.7604,-5.8558,-5.9268,-5.9928,0.0,0.0,0.0,0.0,0.0,0.0,0.0,0.0,0.0,0.0,0.0,0.0,0.0,0.0,0.0,0.0,0.0,0.0,0.0,0.0,-4.2043,-4.3319,-4.3898,-4.5065,-4.698,-4.5843,-4.713,-5.1079,-5.3781,-5.7375,-6.1681,-5.9918,-5.765,-5.4897,-5.1714,-4.9708,-4.8666,-4.7861,-4.8042,-4.8748,-4.7776,0.0,0.0,0.0,0.0,0.0,0.0,0.0,0.0,0.0,0.0,0.0,0.0,0.0,-4.5364,-4.5364,-4.4855,-4.4586,-4.5843,-4.713,-4.7997,-4.7429,-4.7649,0.0,-5.3651,-5.3754,0.0,-5.7308,0.0,0.0,0.0,0.0,0.0,0.0,0.0,0.0,0.0,0.0,0.0,0.0,0.0,0.0,0.0,0.0,0.0,0.0,0.0,0.0,0.0,0.0,0.0,0.0,0.0,0.0,-6.4066,-6.2839,-6.257,-6.3199,-6.254,-6.2211,-6.2091,-6.0206,-5.9249,-5.9009,-5.7184,-5.6368,-5.6248,-5.5568,-5.5688,-5.6308,-5.6286,-5.7355,-5.8758,-5.8857,-5.9268,-5.9727,0.0,0.0,0.0,0.0,0.0,0.0,0.0,0.0,0.0,0.0,0.0,0.0,0.0,0.0,0.0,0.0,0.0,0.0,0.0,0.0,-4.1953,-4.323,-4.3529,-4.4605,-4.6651,-4.7399,-4.9314,-5.2426,-5.6796,-5.9591,-6.0752,-5.885,-5.6289,-5.3202,-5.092,-4.9626,-4.9044,-4.8492,-4.8572,-4.9001,-4.7782,-4.7309,0.0,0.0,0.0,0.0,0.0,0.0,0.0,0.0,-4.4616,-4.5214,0.0,-4.5274,-4.5843,-4.5424,-4.4825,-4.4436,-4.4945,-4.6352,-4.7608,-4.7369,-4.7908,0.0,0.0,-5.4982,-5.6627,-5.84,-6.0835,0.0,0.0,0.0,0.0,0.0,0.0,0.0,0.0,0.0,0.0,0.0,0.0,0.0,0.0,0.0,0.0,0.0,0.0,0.0,0.0,0.0,0.0,0.0,0.0,0.0,0.0,-6.2331,-6.1792,-6.1224,-6.0954,-6.0625,-6.0206,-5.9039,-5.8052,-5.7244,-5.6496,-5.5927,-5.5538,-5.5299,-5.5329,-5.5598,-5.6068,-5.6835,-5.7758,-5.7758,-5.7689,-5.7623,0.0,0.0,0.0,0.0,0.0,0.0,0.0,0.0,0.0,0.0,0.0,0.0,0.0,0.0,0.0,0.0,0.0,0.0,-3.7329,-3.9498,-4.1354,-4.2641,-4.308,-4.4127,-4.5963,-4.8147,-5.0587,-5.3174,-5.8126,-6.0053,-5.9123,-5.7384,-5.5232,-5.2774,-5.1029,-5.0089,-4.9838,-4.9217,-4.8979,-4.891,-4.7758,-4.7309,0.0,0.0,0.0,0.0,0.0,0.0,0.0,0.0,-4.4067,-4.4706,0.0,0.0,0.0,0.0,-4.5155,-4.4586,-4.4377,-4.5304,-4.6471,-4.689,0.0,0.0,-5.3623,-5.6346,-5.865,-6.0595,-6.2421,0.0,0.0,0.0,0.0,0.0,0.0,0.0,0.0,0.0,0.0,0.0,0.0,0.0,0.0,0.0,0.0,0.0,0.0,0.0,0.0,0.0,0.0,0.0,0.0,0.0,0.0,-6.1463,-6.0685,-5.9757,-5.9159,-5.883,-5.877,-5.7902,-5.7004,-5.6188,-5.5718,-5.5299,-5.485,-5.464,-5.467,-5.494,-5.5598,-5.6256,-5.6795,-5.6795,-5.6526,-5.629,0.0,0.0,0.0,0.0,0.0,0.0,0.0,0.0,0.0,0.0,0.0,0.0,0.0,0.0,0.0,0.0,0.0,0.0,-3.5963,-3.8132,-4.0008,-4.1324,-4.2611,-4.3888,-4.5244,-4.7908,-5.0617,-5.3204,-5.7124,-5.8381,-5.7034,-5.5748,-5.482,-5.4102,-5.2097,-5.1229,-5.1139,-4.9823,-4.894,-4.8237,-4.7578,-4.7309,-4.7309,0.0,0.0,0.0,0.0,0.0,0.0,0.0,-4.3828,-4.3648,0.0,0.0,0.0,0.0,-4.5843,-4.5155,-4.4496,-4.4317,-4.4646,0.0,0.0,0.0,-5.5927,-5.7663,-5.9458,-6.4067,0.0,-6.3288,-6.3917,0.0,0.0,0.0,0.0,0.0,0.0,0.0,0.0,0.0,0.0,0.0,0.0,0.0,0.0,0.0,0.0,0.0,0.0,0.0,0.0,0.0,0.0,0.0,0.0,-6.0086,-5.9069,-5.9039,-5.7094,-5.6825,-5.8052,-5.6735,-5.6188,-5.6128,-5.476,-5.4192,-5.4162,-5.3473,-5.3593,-5.4281,-5.491,-5.5568,-5.6188,-5.6188,-5.6188,-5.6128,0.0,0.0,0.0,0.0,0.0,0.0,0.0,0.0,0.0,0.0,0.0,0.0,0.0,0.0,0.0,0.0,0.0,0.0,-3.5963,-3.7689,-3.929,-4.0636,-4.1504,-4.2791,-4.4556,-4.7712,-5.1066,-5.461,-5.5777,-5.5897,-5.5059,-5.4192,-5.2935,-5.1362,-5.1289,-5.096,-5.0405,-4.9134,-4.876,-4.897,-4.8267,-4.7728,-4.7369,0.0,0.0,0.0,0.0,0.0,0.0,0.0,0.0,0.0,0.0,0.0,0.0,-4.5693,-4.5454,-4.5155,-4.4496,-4.5005,0.0,0.0,0.0,0.0,0.0,0.0,0.0,0.0,0.0,0.0,0.0,0.0,0.0,0.0,0.0,0.0,0.0,0.0,0.0,0.0,0.0,0.0,0.0,0.0,0.0,0.0,0.0,0.0,0.0,0.0,0.0,0.0,0.0,0.0,0.0,0.0,-5.7244,-5.6346,-5.5299,-5.5239,-5.6047,-5.5179,-5.4521,-5.4042,-5.3653,-5.3503,-5.3473,-5.3264,-5.3593,-5.4192,-5.3892,-5.4192,-5.479,-5.479,-5.479,-5.482,0.0,0.0,0.0,0.0,0.0,0.0,0.0,0.0,0.0,0.0,-3.5754,-3.5525,0.0,0.0,0.0,0.0,0.0,0.0,0.0,0.0,-3.8332,-3.9948,-4.0876,-4.2671,-4.5454,-4.7967,-5.0347,-5.2456,-5.3743,-5.3773,-5.2636,-5.3563,-5.3354,-5.2247,-5.3144,-5.3054,-5.2097,-5.0511,-4.9613,-4.9239,-4.8566,-4.8057,-4.7728,0.0,0.0,0.0,0.0,0.0,0.0,0.0,0.0,0.0,0.0,0.0,0.0,-4.5334,-4.4915,-4.4556,-4.4676,0.0,0.0,0.0,0.0,0.0,0.0,0.0,0.0,0.0,0.0,0.0,0.0,0.0,0.0,0.0,0.0,0.0,0.0,0.0,0.0,0.0,0.0,0.0,0.0,0.0,0.0,0.0,0.0,0.0,0.0,0.0,0.0,0.0,0.0,0.0,0.0,0.0,0.0,-5.4401,-5.3982,-5.3593,-5.3234,-5.3623,-5.3563,-5.3174,-5.2905,-5.2636,-5.2396,-5.2396,-5.2785,-5.3384,-5.2965,-5.3204,-5.3803,-5.3803,-5.3803,-5.3862,0.0,0.0,0.0,0.0,0.0,0.0,0.0,0.0,0.0,0.0,-3.5777,-3.4964,0.0,0.0,0.0,0.0,0.0,0.0,0.0,0.0,-3.7375,-3.9373,-4.1055,-4.3629,-4.7309,-4.8566,-4.891,-4.8207,-5.1229,-5.1798,-4.9986,-5.3354,-5.488,-5.488,-5.6226,-5.6077,-5.47,-5.2636,-5.072,-4.909,-4.8446,-4.8207,-4.8207,-4.8207,0.0,0.0,0.0,0.0,0.0,0.0,0.0,0.0,0.0,0.0,0.0,-4.4945,-4.4257,-4.3589,0.0,0.0,0.0,0.0,0.0,0.0,0.0,0.0,0.0,0.0,0.0,0.0,0.0,0.0,0.0,0.0,0.0,0.0,0.0,0.0,0.0,0.0,0.0,0.0,0.0,0.0,0.0,0.0,0.0,0.0,0.0,0.0,0.0,0.0,0.0,0.0,0.0,0.0,0.0,0.0,-5.2935,-5.1947,-5.0166,-5.2127,-5.2935,-5.2785,-5.2247,-5.1678,-5.1139,-5.1199,-5.1618,-5.2187,-5.2127,-5.2516,-5.3084,-5.3084,-5.3084,-5.3084,0.0,0.0,0.0,0.0,0.0,0.0,0.0,0.0,0.0,0.0,0.0,0.0,0.0,0.0,0.0,0.0,0.0,0.0,0.0,0.0,-3.7584,-4.0098,-4.3928,-4.6681,-4.8027,-4.8356,-4.8177,-4.7519,-4.8745,-4.8865,-4.7997,-5.1289,-5.2576,-5.2157,-5.4012,-5.3803,-5.1917,-4.9404,-4.8117,-4.7728,-4.7578,-4.7519,-4.7519,-4.7519,-4.6591,0.0,0.0,0.0,0.0,0.0,0.0,0.0,-4.4137,-4.3958,-4.3529,-4.3748,-4.3569,-4.3589,0.0,0.0,0.0,0.0,0.0,0.0,0.0,0.0,0.0,0.0,0.0,0.0,0.0,0.0,0.0,0.0,0.0,0.0,0.0,0.0,0.0,0.0,0.0,0.0,0.0,0.0,0.0,0.0,0.0,0.0,0.0,0.0,0.0,0.0,0.0,0.0,-5.485,-5.3503,-5.2426,0.0,-5.1109,-5.0391,-4.9523,-5.099,-5.1079,-5.0168,-5.0511,-5.0524,-5.0435,-5.0973,-5.1618,-5.2157,-5.1618,-5.1828,-5.2426,-5.2426,-5.2426,-5.2486,0.0,0.0,0.0,0.0,0.0,0.0,0.0,0.0,0.0,0.0,0.0,0.0,0.0,0.0,0.0,0.0,0.0,0.0,0.0,0.0,0.0,-4.1205,-4.4855,-4.716,-4.7818,-4.7818,-4.7339,-4.6352,-4.6381,-4.6531,-4.692,-5.0182,-5.1708,-5.1768,-5.3473,-5.3084,-5.1079,-4.9075,-4.7878,-4.7309,-4.7309,-4.7309,-4.7309,-4.7309,-4.6262,-4.4796,-4.4436,0.0,0.0,0.0,0.0,0.0,0.0,0.0,-4.294,-4.3269,-4.291,-4.2821,0.0,0.0,0.0,0.0,0.0,0.0,0.0,0.0,0.0,0.0,0.0,0.0,0.0,0.0,0.0,0.0,0.0,0.0,0.0,0.0,0.0,0.0,0.0,0.0,0.0,0.0,0.0,0.0,0.0,0.0,0.0,0.0,0.0,0.0,0.0,0.0,-5.2785,-5.2067,-5.1079,-4.9823,-4.9793,-4.9434,-4.8835,-4.9823,-4.9912,-4.9329,-4.9942,-5.0016,-4.9853,-5.081,-5.1229,-5.1259,-5.1229,-5.1439,-5.1738,-5.1738,-5.1738,-5.1768,0.0,0.0,0.0,0.0,0.0,0.0,0.0,0.0,0.0,0.0,0.0,0.0,0.0,0.0,0.0,0.0,0.0,0.0,0.0,0.0,0.0,0.0,-4.5065,-4.6741,-4.7309,-4.7189,-4.6531,-4.5304,-4.4526,-4.5005,-4.6741,-4.9553,-5.1349,-5.2247,-5.3234,-5.2695,-5.093,-4.9284,-4.7967,-4.695,-4.683,-4.68,-4.677,-4.6651,-4.5514,-4.3958,-4.3838,-4.3808,-4.3748,-4.3299,0.0,0.0,0.0,0.0,-4.2351,-4.2851,-4.2132,-4.1743,0.0,0.0,0.0,0.0,0.0,0.0,0.0,0.0,0.0,0.0,0.0,0.0,0.0,0.0,0.0,0.0,0.0,0.0,0.0,0.0,0.0,0.0,0.0,0.0,0.0,0.0,0.0,0.0,0.0,0.0,0.0,0.0,0.0,0.0,0.0,-5.2665,-5.09,-5.087,-5.0002,-4.8297,-4.8716,-4.8626,-4.8147,-4.8686,-4.897,-4.9,-4.9613,-4.9583,-4.9239,-5.0391,-5.0571,-5.0076,-5.0661,-5.087,-5.087,-5.087,-5.087,-5.09,0.0,0.0,0.0,0.0,0.0,0.0,0.0,0.0,0.0,0.0,0.0,0.0,0.0,0.0,0.0,0.0,0.0,0.0,-3.6477,0.0,0.0,-4.308,-4.5753,-4.7219,-4.7309,-4.6741,-4.6082,-4.5304,0.0,0.0,0.0,0.0,-5.0481,-5.2187,-5.1798,-5.1139,-5.0136,-4.713,-4.5723,-4.5514,-4.4945,-4.4706,-4.4646,-4.4037,-4.3359,-4.259,-4.2021,-4.1773,-4.1833,-4.2381,-4.259,0.0,0.0,0.0,-4.1572,-4.1624,-4.1115,0.0,0.0,0.0,0.0,0.0,0.0,0.0,0.0,0.0,0.0,0.0,0.0,0.0,0.0,0.0,0.0,0.0,0.0,0.0,0.0,0.0,0.0,0.0,0.0,0.0,0.0,0.0,0.0,0.0,0.0,0.0,0.0,0.0,-5.2396,-5.1648,-5.1033,0.0,-4.9569,-4.9569,-4.9105,-4.8267,-4.7788,-4.7519,-4.7429,-4.7519,-4.7578,-4.7608,-4.8267,-4.8506,-4.8476,-4.9269,-4.9509,-4.9449,-4.9539,-4.9569,-4.9569,-4.9569,-4.9569,-4.9613,0.0,0.0,0.0,0.0,0.0,0.0,0.0,0.0,0.0,0.0,0.0,0.0,0.0,0.0,0.0,-3.6085,-3.6327,-3.6477,-3.6477,-3.8871,-4.0876,-4.2192,-4.4077,-4.5424,-4.6172,-4.5143,-4.4456,0.0,0.0,0.0,0.0,-4.8027,-5.0002,0.0,-5.1858,-5.0661,-4.9464,-4.6142,-4.4556,-4.4167,-4.3509,-4.3449,-4.3648,-4.303,-4.265,-4.2261,-4.1205,-4.1055,-4.1422,-4.1294,-4.1542,-4.1901,-4.2132,0.0,0.0,0.0,-4.0367,0.0,0.0,0.0,0.0,0.0,0.0,0.0,0.0,0.0,0.0,0.0,0.0,0.0,0.0,0.0,0.0,0.0,0.0,0.0,0.0,0.0,0.0,0.0,0.0,0.0,0.0,0.0,0.0,0.0,0.0,0.0,0.0,-5.1439,-5.081,-5.0152,-4.9853,0.0,-4.876,-4.876,-4.8386,-4.7728,-4.7429,-4.7309,-4.7309,-4.7309,-4.7309,-4.7339,-4.7997,-4.8087,-4.7818,-4.888,-4.909,-4.879,-4.9179,-4.9299,-4.9299,-4.9299,-4.9299,-4.9359,0.0,0.0,0.0,0.0,0.0,0.0,0.0,0.0,0.0,0.0,0.0,0.0,0.0,0.0,0.0,0.0,-3.6387,-3.6567,-3.6716,-3.8422,-3.9918,-4.1085,-4.2551,-4.3718,-4.4526,-4.3419,0.0,0.0,0.0,0.0,-4.7818,-4.7818,-5.0361,0.0,-5.2875,-5.096,-4.912,-4.6262,-4.4616,-4.3778,-4.262,-4.2192,-4.2273,-4.2201,-4.2051,-4.1752,-4.0576,-4.0576,-4.1025,-4.0367,-4.0576,-4.1175,-4.1324,-4.0816,0.0,0.0,0.0,0.0,0.0,0.0,0.0,0.0,0.0,0.0,0.0,0.0,0.0,0.0,0.0,0.0,0.0,0.0,0.0,0.0,0.0,0.0,0.0,0.0,0.0,0.0,0.0,0.0,0.0,0.0,0.0,0.0,0.0,0.0,-5.075,-5.0092,-4.9523,-4.909,-4.891,-4.8446,-4.7788,-4.7788,-4.7459,-4.68,-4.698,-4.698,-4.68,-4.698,-4.707,-4.71,-4.7758,-4.7758,-4.7369,-4.8356,-4.8476,-4.8087,-4.8566,-4.882,-4.882,-4.882,-4.882,-4.885,0.0,0.0,0.0,0.0,0.0,0.0,0.0,0.0,0.0,0.0,0.0,0.0,-3.4988,-3.6433,-3.6896,-3.5669,-3.6118,-3.6746,-3.7315,-3.8661,-3.9738,-4.0427,-4.2273,0.0,-4.256,-4.1871,0.0,0.0,0.0,0.0,-4.9209,-4.9209,-5.1947,-5.6855,-5.491,-5.2276,-4.9209,-4.7758,-4.6381,-4.4975,-4.2432,-4.0696,-3.9768,-4.0965,-4.1055,-4.0397,-3.9709,-3.9888,-4.0337,-3.9679,-3.9918,-4.0546,-4.1175,-4.0487,-3.9433,0.0,0.0,0.0,0.0,0.0,0.0,0.0,0.0,0.0,0.0,0.0,0.0,0.0,0.0,0.0,0.0,0.0,0.0,0.0,0.0,0.0,0.0,0.0,0.0,0.0,0.0,0.0,0.0,0.0,0.0,0.0,0.0,0.0,-4.9419,-4.8745,-4.8356,-4.8327,-4.7728,-4.71,-4.6399,-4.6369,-4.6082,-4.5394,-4.6052,-4.6022,-4.5424,-4.6082,-4.6339,-4.6369,-4.707,-4.7339,-4.7309,-4.7369,-4.7399,-4.7369,-4.7399,-4.7399,-4.7399,-4.7399,-4.7399,-4.7489,0.0,0.0,0.0,0.0,0.0,0.0,0.0,0.0,0.0,0.0,0.0,0.0,0.0,-3.7049,-3.7075,-3.6207,-3.6357,-3.6567,-3.6806,-3.8033,-3.926,-4.0337,-4.1474,-4.2372,-4.297,-4.1534,0.0,0.0,0.0,-4.0427,-4.4896,-4.6184,-4.7967,-5.0242,-5.1648,-5.1618,-5.0242,-4.5963,-4.3908,-4.3219,-4.0516,-3.9709,-4.0008,-3.9619,-4.0127,-4.0876,-3.9798,-4.0127,-4.0935,-4.0277,-4.0217,-4.0367,-4.0187,-3.9499,-3.8601,-3.7793,-3.7764,0.0,0.0,0.0,0.0,0.0,0.0,0.0,0.0,0.0,0.0,0.0,0.0,0.0,0.0,0.0,0.0,0.0,0.0,0.0,0.0,0.0,0.0,0.0,0.0,0.0,0.0,0.0,0.0,0.0,0.0,0.0,-4.8626,-4.8027,-4.7668,-4.7668,-4.701,-4.6352,-4.5663,-4.5663,-4.5544,-4.5304,-4.5544,-4.5544,-4.5304,-4.5544,-4.5663,-4.5693,-4.6381,-4.692,-4.7309,-4.7309,-4.7309,-4.7309,-4.7309,-4.7309,-4.7309,-4.7309,-4.7309,-4.7339,0.0,0.0,0.0,0.0,0.0,0.0,0.0,0.0,0.0,-3.2861,0.0,0.0,0.0,0.0,-3.7494,-3.6866,-3.6806,-3.6806,-3.6806,-3.7793,-3.8901,-4.0038,-4.0905,-4.1773,-4.2641,0.0,0.0,0.0,0.0,0.0,0.0,-4.3838,-4.5244,-4.6339,-4.7908,-4.8939,0.0,0.0,0.0,-4.196,0.0,-3.8577,-3.947,-3.9199,-4.0041,0.0,0.0,0.0,0.0,0.0,0.0,-4.0038,-3.9828,-3.896,-3.7793,-3.6537,-3.6746,0.0,0.0,0.0,0.0,0.0,0.0,0.0,0.0,0.0,0.0,0.0,0.0,0.0,0.0,0.0,0.0,0.0,0.0,0.0,0.0,0.0,0.0,0.0,0.0,0.0,0.0,0.0,0.0,0.0,0.0,0.0,-4.7967,-4.7549,-4.7219,-4.698,-4.6112,-4.5424,-4.4975,-4.4975,-4.4855,-4.4646,-4.4855,-4.4855,-4.4646,-4.4855,-4.4975,-4.5005,-4.5693,-4.6352,-4.698,-4.7219,-4.7309,-4.7309,-4.7309,-4.7309,-4.7309,-4.7309,-4.7309,-4.7309,0.0,0.0,0.0,0.0,0.0,0.0,0.0,0.0,-3.1043,-3.1937,0.0,0.0,0.0,0.0,0.0,-3.7554,-3.7494,-3.7494,-3.7464,-3.8063,-3.8721,-3.9373,-4.0666,-4.1392,-4.1422,0.0,0.0,0.0,0.0,0.0,0.0,0.0,-4.4246,-4.598,-4.4056,-4.4297,-4.6201,0.0,-4.447,-4.1456,0.0,-3.7318,-3.792,0.0,0.0,0.0,-4.0676,-4.1267,0.0,-3.9596,0.0,0.0,0.0,-3.902,-3.7165,-3.5878,-3.5519,-3.5699,0.0,0.0,0.0,0.0,0.0,0.0,0.0,0.0,0.0,0.0,0.0,0.0,0.0,0.0,0.0,0.0,0.0,0.0,0.0,0.0,0.0,0.0,0.0,0.0,0.0,0.0,0.0,0.0,0.0,-4.7309,-4.7309,-4.7279,-4.695,-4.6249,-4.5005,-4.4317,-4.4287,-4.4287,-4.3917,-4.329,-4.3947,-4.3958,-4.3319,-4.3947,-4.4287,-4.4317,-4.4975,-4.5633,-4.6279,-4.701,-4.7279,-4.7309,-4.7309,-4.7309,-4.7309,-4.7309,-4.7309,-4.7309,0.0,0.0,0.0,0.0,0.0,0.0,-3.3181,-3.3276,-3.3307,0.0,0.0,0.0,-3.645,-3.8046,-3.926,-3.9559,-3.9559,-3.9379,-3.8901,-3.902,-3.9439,-4.0098,-4.0487,-4.0876,-4.1422,0.0,0.0,0.0,0.0,0.0,0.0,0.0,0.0,0.0,-4.044,-3.9873,-3.8812,-3.9406,0.0,0.0,-3.6571,-3.6451,0.0,0.0,0.0,0.0,0.0,-4.2352,-4.3791,0.0,-4.3537,-4.321,0.0,-3.8631,-3.7165,-3.5878,-3.6148,-3.6716,-3.5968,0.0,0.0,0.0,0.0,0.0,0.0,0.0,0.0,0.0,0.0,0.0,0.0,0.0,0.0,0.0,0.0,0.0,0.0,0.0,0.0,0.0,0.0,0.0,0.0,0.0,0.0,0.0,0.0,-4.7309,-4.7309,-4.686,-4.6082,-4.4915,-4.4496,-4.4077,-4.3559,-4.3559,-4.3469,-4.329,-4.3469,-4.3469,-4.329,-4.3469,-4.3559,-4.3589,-4.4317,-4.4706,-4.4945,-4.6112,-4.686,-4.7309,-4.7309,-4.7309,-4.7309,-4.7309,-4.7309,-4.7309,0.0,0.0,0.0,0.0,0.0,0.0,-3.3866,-3.4207,-3.4345,0.0,0.0,0.0,-3.8943,-4.0499,-4.1504,-4.1654,-4.1384,-4.0935,-4.0277,-3.9978,-3.9888,-3.9978,-4.0247,-4.0696,-4.1422,0.0,0.0,0.0,0.0,0.0,0.0,0.0,0.0,0.0,0.0,0.0,0.0,0.0,0.0,0.0,-3.5281,0.0,0.0,-3.7484,-3.8727,0.0,0.0,0.0,-4.5463,-4.4819,-4.4721,0.0,0.0,0.0,-3.902,-3.6626,-3.6806,-3.7554,-3.6267,-3.6926,-3.8093,0.0,0.0,0.0,0.0,0.0,0.0,0.0,0.0,0.0,0.0,0.0,0.0,0.0,0.0,0.0,0.0,0.0,0.0,0.0,0.0,0.0,0.0,0.0,0.0,0.0,-4.6063,-4.6471,-4.6471,-4.5843,-4.5125,-4.4347,-4.4047,-4.3678,-4.329,-4.306,-4.291,-4.291,-4.291,-4.291,-4.294,-4.317,-4.329,-4.3319,-4.3708,-4.4047,-4.4377,-4.5113,-4.6052,-4.692,-4.7189,-4.7309,-4.7309,-4.7309,-4.7309,-4.7309,0.0,0.0,0.0,0.0,0.0,0.0,0.0,-3.4653,-3.4855,0.0,-3.6813,-3.9612,-4.2505,-4.3778,-4.4227,-4.3748,-4.3069,-4.2321,-4.1572,-4.0816,-4.0098,-3.9439,-3.9978,-4.0576,-4.1145,0.0,0.0,0.0,0.0,0.0,0.0,0.0,0.0,0.0,0.0,0.0,0.0,0.0,0.0,-3.3596,-3.4198,-3.5554,0.0,0.0,-4.0131,-4.2227,-4.2378,-4.4441,-4.6782,-4.4789,-4.4242,0.0,0.0,0.0,0.0,0.0,-3.7614,-3.8242,-3.7135,-3.7315,-3.8212,0.0,0.0,0.0,-3.8123,-3.7853,-3.7494,0.0,0.0,0.0,0.0,0.0,0.0,0.0,0.0,0.0,0.0,0.0,0.0,0.0,0.0,0.0,0.0,0.0,0.0,-4.5129,-4.5266,-4.5274,-4.5185,-4.4556,-4.4167,-4.4107,-4.3449,-4.308,-4.308,-4.2551,-4.2291,-4.2291,-4.2291,-4.2321,-4.241,-4.297,-4.323,-4.329,-4.329,-4.3618,-4.4197,-4.4287,-4.5065,-4.6262,-4.695,-4.7189,-4.7219,-4.7279,-4.7309,-4.7309,-3.4362,0.0,0.0,0.0,0.0,0.0,0.0,-3.6538,-3.6992,-3.7985,-4.0205,-4.2676,-4.5269,-4.5274,-4.5274,-4.5723,-4.4646,-4.3419,-4.2291,-4.1055,-4.0098,-3.9439,-3.9559,-3.9679,-3.9798,-3.9798,0.0,0.0,0.0,0.0,0.0,0.0,0.0,0.0,0.0,0.0,0.0,0.0,0.0,-3.1336,-3.2315,0.0,-3.7161,-3.6983,-3.864,-4.1258,-4.2243,-4.4303,-4.6639,-4.72,-4.636,-4.4796,0.0,0.0,0.0,-3.923,0.0,0.0,0.0,0.0,0.0,0.0,0.0,0.0,-3.7434,-3.7554,-3.8033,0.0,0.0,0.0,0.0,0.0,0.0,0.0,0.0,0.0,0.0,0.0,0.0,0.0,0.0,0.0,0.0,0.0,-4.4768,-4.3833,-4.4722,-4.5065,-4.4526,-4.3858,-4.3269,-4.28,-4.2102,-4.1773,-4.1773,-4.1624,-4.1602,-4.1602,-4.1602,-4.1901,-4.241,-4.253,-4.2851,-4.329,-4.329,-4.3349,-4.3529,-4.4107,-4.4796,-4.5574,-4.6262,-4.6531,-4.6591,-4.71,-4.7309,-4.7309,-3.4285,0.0,0.0,0.0,0.0,0.0,0.0,0.0,-3.8385,-3.9374,-4.2144,-4.4618,-4.6135,-4.6591,-4.68,-4.68,-4.5574,-4.4377,-4.3389,-4.1803,-4.0606,-3.9948,-3.926,-3.9379,-4.0367,-3.9409,0.0,0.0,0.0,0.0,0.0,0.0,0.0,0.0,0.0,0.0,0.0,0.0,-3.0608,-3.0783,-3.2692,0.0,-3.6006,-3.6558,-3.8636,-4.1369,-4.2342,-4.4499,-4.6815,-4.6837,-4.6561,0.0,0.0,-4.303,-4.3389,0.0,-4.0876,-4.1115,0.0,0.0,0.0,-4.0038,0.0,0.0,0.0,-3.7434,0.0,0.0,0.0,0.0,0.0,0.0,0.0,0.0,0.0,0.0,0.0,0.0,0.0,0.0,0.0,0.0,0.0,0.0,-4.36,-4.2955,-4.3783,-4.3898,-4.291,-4.2551,-4.2192,-4.1931,-4.1602,-4.1422,-4.1422,-4.1055,-4.0876,-4.0876,-4.0876,-4.1055,-4.1452,-4.2111,-4.259,-4.288,-4.314,-4.329,-4.3319,-4.3648,-4.4018,-4.4407,-4.5424,-4.6022,-4.6309,-4.6681,-4.701,-4.7309,-3.382,0.0,0.0,0.0,0.0,0.0,0.0,0.0,-3.8962,-4.0112,-4.3487,-4.6079,-4.6612,-4.7638,-4.8267,-4.8237,-4.6322,-4.5095,-4.5095,-4.2641,-4.0905,-4.0247,-3.917,-3.9158,-4.0353,-3.8888,-3.7804,0.0,0.0,0.0,0.0,0.0,0.0,0.0,0.0,0.0,0.0,0.0,0.0,-3.0984,0.0,-3.4399,-3.4575,-3.6514,-3.8958,-4.1522,-4.2772,-4.4789,-4.6741,-4.5663,0.0,-4.6172,-4.297,-4.3988,0.0,0.0,0.0,0.0,0.0,0.0,0.0,0.0,0.0,-3.9948,0.0,0.0,0.0,0.0,0.0,0.0,0.0,0.0,0.0,0.0,0.0,0.0,0.0,0.0,0.0,0.0,0.0,0.0,0.0,0.0,-4.203,-4.2004,-4.2462,-4.2312,-4.1235,-4.1205,-4.1099,-4.091,-4.098,-4.092,-4.0702,-4.0345,-4.0217,-4.0217,-4.0217,-4.0337,-4.0636,-4.1722,-4.2351,-4.262,-4.312,-4.329,-4.329,-4.329,-4.329,-4.3409,-4.4646,-4.5454,-4.592,-4.6082,-4.6531,-4.713,-3.2711,-3.298,0.0,0.0,0.0,0.0,0.0,0.0,-3.838,-4.1233,-4.4789,-4.7358,-4.7997,-4.8207,-4.9194,-5.1439,-4.7219,-4.5394,-4.7698,0.0,-4.0217,-3.9559,0.0,-3.8453,-3.6664,-3.6976,-3.6127,0.0,0.0,0.0,0.0,0.0,0.0,0.0,-2.9202,0.0,0.0,0.0,-3.0382,0.0,-3.2742,-3.3269,0.0,-3.6285,-3.8505,-4.0609,-4.3842,-4.5215,-4.5484,0.0,-4.5005,-4.4586,0.0,-4.3479,-4.298,0.0,0.0,0.0,0.0,0.0,0.0,0.0,-4.2132,0.0,0.0,0.0,0.0,0.0,0.0,0.0,0.0,0.0,0.0,0.0,0.0,0.0,0.0,0.0,0.0,0.0,0.0,0.0,0.0,0.0,0.0,-4.0636,-4.0696,-4.0666,-4.0516,-4.0516,-4.0076,-3.9112,-3.9439,-3.9151,-3.8196,-3.9091,-3.9493,-3.9493,-3.9493,-4.0157,-4.1265,-4.1414,-4.2132,-4.32,-4.326,-4.329,-4.329,-4.329,-4.329,-4.3349,-4.4137,-4.4466,-4.4616,-4.5185,-4.5843,-4.6399,-3.207,-3.2898,-3.3457,0.0,0.0,0.0,0.0,0.0,0.0,-4.3189,-4.5947,-4.8267,-4.9314,0.0,0.0,-5.0407,0.0,-4.5898,0.0,0.0,-4.0028,-4.006,0.0,0.0,-3.7225,-3.6427,-3.5141,-3.3382,-3.2566,0.0,0.0,0.0,0.0,0.0,-2.8863,0.0,-2.9503,0.0,0.0,0.0,0.0,0.0,0.0,-3.5667,-3.8472,-4.1226,-4.3371,-4.4646,-4.5125,0.0,-4.4167,0.0,0.0,0.0,0.0,0.0,0.0,0.0,0.0,0.0,0.0,0.0,0.0,0.0,-3.8182,0.0,-3.7165,0.0,0.0,0.0,0.0,0.0,0.0,0.0,0.0,0.0,0.0,0.0,0.0,0.0,0.0,0.0,0.0,0.0,0.0,0.0,0.0,-3.826,-3.7879,-3.7618,-3.7557,-3.7745,-3.8227,-3.8546,-3.873,-3.9549,-3.9978,-3.9978,-4.0367,-4.0846,-4.1384,-4.1811,-4.2252,-4.2791,-4.314,-4.329,-4.329,-4.329,-4.329,-4.3319,-4.3589,-4.3947,-4.4347,-4.4616,-4.5155,-4.5783,-3.1215,-3.2293,-3.2849,0.0,0.0,0.0,0.0,0.0,0.0,0.0,0.0,0.0,-4.9715,-4.9976,0.0,0.0,-4.8254,-4.6313,0.0,0.0,-3.9942,0.0,0.0,0.0,0.0,-3.5747,-3.4269,-3.2489,0.0,0.0,0.0,0.0,0.0,0.0,0.0,-2.9101,-2.9051,0.0,0.0,-3.0295,-3.0798,-3.1733,-3.3104,-3.575,-3.8615,-4.1394,-4.2426,-4.3419,-4.4018,-4.262,-4.3069,0.0,-4.259,0.0,0.0,0.0,0.0,0.0,-4.1361,0.0,0.0,0.0,0.0,0.0,0.0,0.0,0.0,0.0,0.0,0.0,0.0,0.0,0.0,0.0,0.0,0.0,0.0,0.0,0.0,0.0,0.0,0.0,0.0,0.0,0.0,0.0,-3.6628,0.0,-3.5175,-3.5153,-3.5609,-3.653,-3.7212,-3.8007,-3.8943,-3.9742,-4.0127,-4.0127,-4.0786,-4.1205,-4.1414,-4.2111,-4.25,-4.2641,-4.312,-4.329,-4.329,-4.329,-4.329,-4.329,-4.329,-4.3589,-4.4047,-4.4047,-4.4466,-4.5095,-3.0011,-3.0321,0.0,0.0,0.0,0.0,0.0,0.0,0.0,0.0,0.0,0.0,0.0,0.0,0.0,0.0,0.0,-4.6541,-4.8613,0.0,-3.9891,0.0,0.0,-3.7659,0.0,0.0,-3.3387,0.0,0.0,0.0,0.0,0.0,0.0,0.0,0.0,-3.0331,-3.121,-3.0231,-3.0382,-3.1367,-3.1772,-3.2928,-3.4574,0.0,-3.8977,-4.0539,-4.1205,0.0,0.0,-4.1482,-4.1444,0.0,0.0,0.0,0.0,0.0,0.0,0.0,0.0,0.0,0.0,-3.7577,0.0,0.0,0.0,0.0,-3.8153,0.0,0.0,0.0,0.0,0.0,-3.908,-3.8422,0.0,0.0,0.0,0.0,0.0,0.0,0.0,0.0,0.0,0.0,0.0,0.0,-3.4312,0.0,-3.2909,-3.3983,-3.4899,-3.5443,-3.6484,-3.7284,-3.7852,-3.89,-3.9403,-3.9469,-4.0127,-4.0756,-4.1414,-4.2111,-4.2701,-4.326,-4.329,-4.329,-4.329,-4.329,-4.329,-4.329,-4.329,-4.329,-4.3319,-4.3319,-4.3738,-4.4347,-3.041,-3.0758,0.0,0.0,0.0,0.0,0.0,-4.1261,0.0,0.0,0.0,0.0,0.0,0.0,-5.1345,0.0,0.0,-4.7436,-4.5623,-4.2682,0.0,0.0,0.0,-3.8118,0.0,0.0,0.0,0.0,0.0,0.0,0.0,0.0,0.0,0.0,0.0,-2.9628,0.0,0.0,0.0,0.0,0.0,-3.3567,-3.4509,0.0,0.0,-3.886,-3.9065,-3.9642,0.0,-4.0334,-3.9873,-3.9287,-3.9287,-3.9045,-3.8705,-3.8508,-3.8447,0.0,0.0,0.0,-3.9184,-3.7442,0.0,0.0,0.0,0.0,0.0,0.0,0.0,0.0,0.0,0.0,-3.6787,-3.5852,-3.5423,-3.4817,0.0,0.0,0.0,0.0,0.0,0.0,0.0,0.0,0.0,-3.2973,-3.1678,-3.0976,0.0,-3.1341,-3.2292,-3.4149,-3.5358,-3.6682,-3.8191,-3.9437,-4.0068,-4.0068,-4.0726,-4.1175,-4.1384,-4.1662,-4.1833,-4.2043,-4.2043,-4.2043,-4.2073,-4.2521,-4.2671,-4.2731,-4.311,-4.329,-4.329,-4.329,-4.3439,-4.3678,-3.1431,0.0,0.0,0.0,0.0,0.0,0.0,0.0,0.0,0.0,-4.7284,0.0,-5.0387,0.0,-5.1002,0.0,-4.9326,-4.7537,-4.4299,-4.2735,0.0,-4.0275,-3.9747,0.0,0.0,0.0,0.0,0.0,0.0,-3.234,0.0,0.0,0.0,0.0,0.0,0.0,0.0,0.0,-2.998,0.0,0.0,-3.2907,0.0,0.0,-3.5413,-3.7016,0.0,-3.7595,-3.8211,-3.8211,-3.7777,-3.7217,-3.7217,-3.6946,-3.662,-3.662,-3.6658,-3.6646,-3.6592,-3.7005,0.0,-3.6143,-3.5737,0.0,-3.4008,0.0,0.0,0.0,0.0,0.0,0.0,0.0,-3.612,-3.5129,-3.4377,-3.3355,0.0,-3.1901,0.0,0.0,0.0,0.0,0.0,0.0,-3.1463,-3.1061,-2.9768,-2.9201,0.0,0.0,-3.1123,-3.3514,-3.491,-3.6523,-3.8392,-3.9499,-4.0038,-4.0068,-4.0726,-4.1025,-4.1025,-4.1265,-4.1422,-4.1422,-4.1422,-4.1422,-4.1482,-4.2141,-4.241,-4.247,-4.306,-4.329,-4.329,-4.329,-4.329,-4.3379,0.0,0.0,0.0,0.0,-3.4617,0.0,0.0,0.0,-4.2629,0.0,-4.6168,-4.7918,-4.8865,-4.9531,-4.9764,-4.9543,-4.8535,0.0,-4.4844,-4.3664,0.0,0.0,-4.03,-3.9546,-3.7362,0.0,0.0,0.0,0.0,0.0,0.0,0.0,0.0,0.0,-3.1035,0.0,-2.9779,-3.0306,-3.027,-2.9883,-3.082,-3.1257,-3.1246,-3.123,0.0,-3.5107,-3.5195,-3.5234,-3.5261,-3.5261,-3.5261,-3.5184,-3.5184,-3.4522,-3.3686,-3.3713,-3.3766,-3.3596,-3.2566,-3.347,-3.4521,-3.3882,0.0,0.0,0.0,0.0,-3.6836,0.0,0.0,0.0,0.0,0.0,0.0,-3.6093,-3.432,-3.2292,-3.0085,0.0,0.0,0.0,0.0,0.0,0.0,-3.2162,-3.0712,-2.9706,-2.8636,0.0,0.0,0.0,0.0,-3.3439,-3.5081,-3.6733,-3.8332,-3.905,-3.9373,-3.9403,-4.0068,-4.0337,-4.0367,-4.0995,-4.1294,-4.1294,-4.1294,-4.1294,-4.1362,-4.2081,-4.2351,-4.241,-4.306,-4.329,-4.329,-4.329,-4.329,-4.3379,-3.1902,-3.2607,-3.3349,0.0,-3.4299,-3.5625,0.0,0.0,0.0,0.0,-4.6957,-4.8433,-4.8233,-4.9064,-4.9292,-4.8385,-4.8083,0.0,0.0,0.0,0.0,-4.1659,-4.1279,-4.0475,-3.9094,-3.8642,0.0,-3.6132,0.0,0.0,-3.3043,0.0,0.0,0.0,0.0,0.0,-2.9113,-2.9264,-2.9668,-3.0309,-3.0935,-3.1695,0.0,0.0,-3.1705,-3.2484,-3.2865,-3.3281,-3.3617,-3.3617,-3.3067,-3.2415,-3.2415,-3.2254,-3.2087,-3.2479,-3.26,-3.2767,-3.3319,-3.3771,-3.4042,-3.3918,-3.3631,-3.3335,0.0,0.0,0.0,0.0,0.0,0.0,0.0,0.0,0.0,-3.2894,-3.1561,-3.047,0.0,0.0,0.0,0.0,0.0,0.0,0.0,0.0,-2.8813,-2.8533,-2.7521,0.0,0.0,0.0,0.0,-3.2186,-3.4008,-3.5819,-3.7609,-3.8841,-3.9373,-3.9373,-3.9553,-3.9679,-3.9679,-3.9858,-3.9918,-3.9918,-3.9918,-3.9918,-4.0008,-4.1145,-4.1662,-4.1782,-4.288,-4.329,-4.329,-4.329,-4.329,-4.3319,-3.3368,0.0,0.0,-3.4401,0.0,0.0,-3.819,0.0,0.0,-4.3405,-4.5865,0.0,-4.6537,-4.7682,-4.8159,-4.728,-4.6979,0.0,0.0,0.0,0.0,-4.1856,-4.1279,-4.0576,-3.9722,-3.8668,0.0,-3.6883,0.0,0.0,-3.3043,0.0,0.0,0.0,0.0,-2.9478,0.0,-2.8888,-2.9389,-3.0143,-3.0195,0.0,0.0,-3.0841,-3.0611,-3.0738,-3.1048,-3.15,-3.1927,-3.1927,-3.1556,-3.106,-3.106,-3.106,-3.116,-3.1687,-3.1863,-3.1989,-3.2616,-3.2968,-3.3169,-3.3169,-3.3119,-3.2993,-3.2667,-3.3093,-3.3518,0.0,0.0,0.0,0.0,0.0,0.0,-3.1286,-3.0532,0.0,0.0,0.0,0.0,0.0,0.0,0.0,0.0,0.0,0.0,0.0,0.0,0.0,0.0,0.0,0.0,0.0,-3.4839,-3.6626,-3.737,-3.902,-3.9709,-3.9373,-3.9373,-3.9373,-3.9373,-3.9373,-3.9373,-3.9373,-3.9373,-3.9373,-3.9499,-4.0516,-4.1115,-4.1504,-4.2821,-4.329,-4.329,-4.329,-4.329,-4.329,0.0,0.0,0.0,0.0,0.0,0.0,0.0,-3.9245,0.0,-4.2213,0.0,-4.5372,-4.4794,-4.5974,-4.6577,-4.6024,0.0,-4.4744,-4.3765,-4.3162,-4.2409,-4.1326,-4.0752,-4.0149,-3.9597,-3.7864,0.0,0.0,0.0,0.0,0.0,0.0,0.0,0.0,0.0,0.0,0.0,-2.8863,-2.9176,0.0,-2.9176,-2.9352,-2.9804,-2.9804,-2.9804,-2.9804,-2.9804,-3.0105,-3.0507,-3.0507,-3.0507,-3.0507,-3.0507,-3.0507,-3.0608,-3.1135,-3.1286,-3.1311,-3.1361,-3.1738,-3.2114,-3.2114,-3.2491,-3.291,-3.291,-3.2918,-3.2968,-3.2968,-3.3018,0.0,0.0,0.0,0.0,0.0,0.0,0.0,0.0,0.0,0.0,0.0,0.0,0.0,0.0,0.0,0.0,0.0,0.0,0.0,0.0,0.0,0.0,0.0,-3.6015,0.0,-3.7524,0.0,-3.9948,-3.9559,-3.9469,-3.9373,-3.9373,-3.9373,-3.9373,-3.9373,-3.9373,-3.9373,-3.9433,-4.0127,-4.0846,-4.1624,-4.2851,-4.329,-4.329,-4.329,-4.329,-4.329,0.0,0.0,0.0,0.0,0.0,-3.8241,-3.9848,-4.0626,-4.1656,-4.3288,-4.507,0.0,-4.5397,-4.5171,-4.4844,-4.4292,-4.374,0.0,0.0,0.0,0.0,-4.13,-4.0375,-3.9572,-3.9019,-3.6935,-3.5734,0.0,0.0,0.0,0.0,0.0,0.0,0.0,0.0,0.0,-2.8273,-2.8687,0.0,-2.8473,-2.9302,-2.9704,-2.9804,-2.9804,-2.9804,-2.9804,-2.9804,-2.9854,-2.993,-2.993,-2.993,-2.993,-2.993,-2.993,-3.0055,-3.0583,-3.0758,-3.0859,-3.126,-3.1461,-3.1537,-3.1537,-3.1612,-3.1687,-3.1687,-3.2039,-3.2365,-3.2365,-3.2742,-3.2943,-3.2466,0.0,0.0,0.0,0.0,0.0,0.0,0.0,0.0,0.0,0.0,0.0,0.0,0.0,0.0,0.0,0.0,0.0,0.0,0.0,0.0,0.0,0.0,0.0,0.0,0.0,0.0,-4.0217,-3.9679,-3.9373,-3.9373,-3.9373,-3.9373,-3.9373,-3.9373,-3.9373,-3.9433,-4.0127,-4.1115,-4.2321,-4.303,-4.329,-4.329,-4.329,-4.329,-4.329,0.0,0.0,0.0,0.0,0.0,0.0,0.0,-4.158,0.0,-4.2836,-4.3664,-4.394,-4.3388,-4.3589,-4.3539,-4.2986,-4.2434,-4.2133,-4.2133,-4.1605,-4.1178,-4.0927,-3.9848,0.0,-3.8919,-3.6132,-3.5102,-3.5981,0.0,0.0,0.0,0.0,0.0,0.0,0.0,-2.8247,0.0,0.0,0.0,-2.8537,-2.9126,-2.9528,-2.9804,-2.9804,-2.9804,-2.9804,-2.9804,-2.9804,-2.9804,-2.9804,-2.9804,-2.9804,-2.9804,-2.9804,-2.9854,-3.0105,-3.0181,-3.0231,-3.0507,-3.0758,-3.0984,-3.0984,-3.1185,-3.1386,-3.1386,-3.1587,-3.1863,-3.2164,-3.2441,-3.2641,-3.2641,-3.1763,0.0,0.0,0.0,0.0,0.0,0.0,0.0,0.0,0.0,0.0,0.0,0.0,0.0,0.0,0.0,0.0,0.0,0.0,0.0,0.0,0.0,0.0,0.0,0.0,0.0,-3.9888,-3.9559,-3.9373,-3.9373,-3.8833,-3.887,-3.9373,-3.8833,-3.8907,-3.9433,-4.0127,-4.0756,-4.1414,-4.2073,-4.2521,-4.2821,-4.2821,-4.303,-4.329,0.0,-3.9228,0.0,0.0,-4.082,0.0,0.0,-4.2062,-4.2338,-4.269,-4.2313,-4.1907,-4.1706,-4.2133,-4.2283,-4.1911,-4.1304,-4.0924,-4.0924,-4.0576,-4.035,-4.035,-3.927,-3.8693,-3.8693,-3.5554,-3.4474,0.0,0.0,0.0,0.0,0.0,0.0,0.0,0.0,0.0,0.0,0.0,-2.8487,-2.8888,-2.9038,-2.9377,-2.9804,-2.9804,-2.9804,-2.9804,-2.9804,-2.9804,-2.9804,-2.9804,-2.9804,-2.9804,-2.9804,-2.9804,-2.9804,-2.9804,-2.9804,-2.9804,-2.9804,-3.0105,-3.0432,-3.0432,-3.0758,-3.106,-3.106,-3.1135,-3.1386,-3.1913,-3.2215,-3.2491,-3.2842,-3.2164,0.0,0.0,0.0,0.0,0.0,0.0,0.0,0.0,0.0,0.0,0.0,0.0,0.0,0.0,0.0,0.0,0.0,0.0,0.0,0.0,0.0,0.0,-3.7238,0.0,-3.8245,0.0,-3.9003,-3.8943,-3.8694,-3.8323,-3.8472,-3.9017,-3.8435,-3.862,-3.9433,-4.0127,-4.0487,-4.0666,-4.1324,-4.2021,-4.262,-4.262,-4.288,-4.329,0.0,0.0,0.0,0.0,0.0,0.0,0.0,-4.153,-4.274,-4.4192,-4.266,-4.1781,-4.271,-4.158,-4.0727,-4.0676,-4.0174,-3.9848,-3.9848,-3.9798,-3.9772,-3.9772,-3.8693,-3.809,-3.809,-3.5328,-3.3721,0.0,0.0,0.0,0.0,0.0,0.0,0.0,0.0,0.0,0.0,-2.8411,-2.8838,-2.8938,-2.9503,-2.9754,-2.9804,-2.9804,-2.9804,-2.9804,-2.9804,-2.9804,-2.9804,-2.9804,-2.9804,-2.9804,-2.9804,-2.9804,-2.9804,-2.9804,-2.9804,-2.9804,-2.9804,-2.9829,-2.9854,-2.9854,-2.9905,-2.9955,-2.9955,-3.0331,-3.0834,-3.1361,-3.229,-3.2842,-3.2365,-3.2215,-3.1838,0.0,0.0,0.0,0.0,0.0,0.0,0.0,0.0,0.0,0.0,0.0,0.0,0.0,0.0,0.0,0.0,0.0,0.0,0.0,0.0,-3.4125,-3.6822,-3.5498,0.0,-3.743,-3.7796,-3.7434,-3.6565,-3.8405,-3.8797,-3.7994,-3.887,-3.9301,-3.9433,-4.0127,-4.0756,-4.1354,-4.2051,-4.2671,-4.32,-4.32,-4.323,-4.329,0.0,0.0,0.0,0.0,0.0,0.0,0.0,-4.1103,-4.153,-4.2454,-4.1827,-4.1451,-4.1957,-4.1103,-4.0526,-4.0526,-3.9722,-3.9346,-3.9672,-3.9069,-3.8843,-3.917,-3.8115,-3.7513,-3.7513,-3.5152,-3.3796,0.0,0.0,0.0,0.0,0.0,0.0,0.0,0.0,-2.8072,-2.8298,-2.8712,-2.8888,-2.8938,-2.9553,-2.9804,-2.9804,-2.9804,-2.9804,-2.9804,-2.9804,-2.9804,-2.9804,-2.9804,-2.9804,-2.9804,-2.9804,-2.9804,-2.9804,-2.9804,-2.9804,-2.9804,-2.9804,-2.9804,-2.9804,-2.9804,-2.9804,-2.9804,-2.9804,-2.9955,-3.0357,-3.121,-3.229,-3.2893,-3.2315,-3.2215,-3.2064,0.0,0.0,0.0,0.0,0.0,0.0,0.0,0.0,0.0,0.0,0.0,0.0,0.0,0.0,0.0,0.0,0.0,0.0,-3.0616,0.0,-3.2691,-3.5311,-3.4465,-3.4908,-3.661,-3.6783,-3.6604,-3.6251,-3.7098,-3.7625,-3.7881,-3.8943,-3.9649,-4.0038,-4.0277,-4.038,-4.0305,-4.0266,-4.0387,-4.0666,-4.108,-4.1671,-4.2386,-4.4994,0.0,-4.2671,0.0,-4.1994,-4.0872,-4.1056,-4.0752,-4.0651,-4.1,-4.0953,-4.0874,-4.1025,-4.0601,-4.0275,-4.0275,-3.9421,-3.9044,-3.9421,-3.8542,-3.8191,-3.8592,-3.7688,0.0,-3.7186,-3.5177,-3.3972,-3.3646,-3.1763,0.0,0.0,0.0,0.0,0.0,-2.7695,-2.8097,-2.8662,-2.8813,-2.8988,-2.9189,-2.9628,-2.9804,-2.9804,-2.9804,-2.9804,-2.9804,-2.9804,-2.9804,-2.9804,-2.9804,-2.9804,-2.9804,-2.9804,-2.9804,-2.9804,-2.9804,-2.9804,-2.9804,-2.9804,-2.9804,-2.9804,-2.9804,-2.9804,-2.9804,-2.9804,-2.9804,-3.0055,-3.0984,-3.1913,-3.2466,-3.2039,-3.1964,-3.1913,-3.1763,0.0,0.0,0.0,0.0,0.0,0.0,-2.8875,-2.8574,-2.7921,0.0,0.0,0.0,0.0,0.0,0.0,0.0,0.0,0.0,0.0,0.0,0.0,0.0,-3.3766,-3.5049,-3.5533,-3.5574,-3.5319,-3.5614,-3.6515,-3.7843,-3.8583,-3.9033,-3.9191,-3.9512,-3.9343,-3.8854,-3.8467,-3.848,-3.881,-3.9539,-4.0371,-4.1273,-4.4673,-4.5475,-4.5364,-4.219,-4.2592,-4.2709,-4.0812,-4.0526,-4.0526,-4.0526,-4.0049,-3.9923,-4.0475,-4.0023,-3.9697,-3.9697,-3.9195,-3.8919,-3.8919,-3.8341,-3.8015,0.0,0.0,-3.7186,-3.7186,-3.5554,-3.4173,-3.3136,0.0,0.0,-2.8888,0.0,-2.8624,-2.8122,-2.8637,-2.8587,-2.8147,-2.8662,-2.9252,-2.9779,-2.9804,-2.9804,-2.9804,-2.9804,-2.9804,-2.9804,-2.9804,-2.9804,-2.9804,-2.9804,-2.9804,-2.9804,-2.9804,-2.9804,-2.9804,-2.9804,-2.9804,-2.9804,-2.9804,-2.9804,-2.9804,-2.9804,-2.9804,-2.9804,-2.9804,-2.9804,-2.9955,-3.0507,-3.1035,-3.1411,-3.1411,-3.1411,-3.1235,-3.0708,0.0,0.0,0.0,0.0,0.0,0.0,-2.9905,-2.9729,-2.7494,0.0,0.0,0.0,0.0,0.0,0.0,0.0,0.0,-2.9451,-2.9704,0.0,-3.2,-3.1607,-3.1703,-3.2256,-3.396,-3.4163,-3.3154,-3.422,-3.5842,-3.7805,-3.7805,-3.7214,-3.633,-3.7396,-3.7572,-3.7232,-3.7232,-3.7591,-3.8352,-3.9436,-3.9794,-4.0068,-4.5146,-4.405,-4.2809,-4.1766,-4.118,-4.0978,-4.123,-4.0542,-4.0568,-4.2301,-4.0897,-3.9956,-4.0659,-3.9753,-3.912,0.0,-3.8266,-3.804,0.0,-3.7613,-3.7061,-3.7437,-3.691,-3.6458,-3.6081,-3.5132,-3.3997,-3.2491,0.0,0.0,0.0,-2.8712,-2.8587,-2.8122,-2.8637,-2.9013,-2.9277,-2.9453,-2.9628,-2.9804,-2.9804,-2.9804,-2.9804,-2.9804,-2.9553,-2.9252,-2.9654,-2.9553,-2.9277,-2.9654,-2.9804,-2.9804,-2.9804,-2.9804,-2.9804,-2.9804,-2.9804,-2.9804,-2.9804,-2.9804,-2.9804,-2.9804,-2.9804,-2.9804,-2.9804,-3.008,-3.0306,-3.0105,-3.0758,-3.1286,-3.0934,-3.116,-3.121,-3.0708,0.0,0.0,0.0,0.0,0.0,0.0,0.0,-2.8473,0.0,-2.7795,0.0,0.0,0.0,0.0,0.0,0.0,0.0,0.0,-3.011,0.0,-3.1567,-3.1827,-3.224,-3.2792,-3.3352,-3.3784,-3.4178,-3.4553,-3.544,-3.6721,-3.6721,-3.6777,-3.6887,-3.7274,-3.7152,-3.6688,-3.6258,-3.5992,-3.6044,-3.8021,-3.8932,-3.9589,-4.4829,-4.3409,-4.1955,-4.0783,-4.0514,-4.0616,-4.1202,-4.1188,-4.169,-4.3313,-4.1505,-4.0201,-4.0456,-3.9156,0.0,-3.8517,-3.7713,0.0,-3.8191,-3.7109,-3.648,-3.6558,-3.6232,-3.5805,-3.5207,0.0,0.0,-3.2541,-3.1562,-3.0281,-2.875,-2.9101,-2.9076,-2.875,-2.9101,-2.9453,-2.9804,-2.9804,-2.9804,-2.9804,-2.9804,-2.9804,-2.9804,-2.9804,-2.9578,-2.9302,-2.9654,-2.9553,-2.9302,-2.9679,-2.9804,-2.9804,-2.9804,-2.9804,-2.9804,-2.9804,-2.9804,-2.9804,-2.9804,-2.9804,-2.9804,-2.9804,-2.9804,-2.9804,-2.9804,-3.0055,-3.0206,-2.9854,-3.0331,-3.0683,-3.0357,-3.0557,-3.0683,-3.0357,0.0,-3.0105,0.0,0.0,0.0,0.0,0.0,0.0,0.0,-2.8222,0.0,0.0,0.0,0.0,0.0,0.0,0.0,-2.9779,-3.0331,0.0,-3.1386,-3.1938,-3.239,-3.2742,-3.2968,-3.3785,-3.4993,-3.4366,-3.4782,-3.594,-3.5723,-3.5656,-3.5678,-3.6089,-3.585,-3.5176,-3.4786,-3.4443,-3.4382,-3.6631,-3.7675,-3.8378,-4.3761,-4.3353,0.0,0.0,-4.0454,0.0,-4.1037,-4.2372,-4.3413,-4.346,-4.1902,-4.0504,-3.9918,-3.8258,-3.7387,-3.7839,0.0,0.0,0.0,-3.6681,-3.6081,-3.5508,-3.5458,0.0,-3.4675,-3.4173,-3.3596,-3.3011,-3.1386,-3.0331,-2.9804,-2.9804,-2.9804,-2.9804,-2.9804,-2.9804,-2.9804,-2.9804,-2.9804,-2.9804,-2.9804,-2.9804,-2.9804,-2.9804,-2.9754,-2.9729,-2.9779,-2.9754,-2.9729,-2.9779,-2.9804,-2.9804,-2.9804,-2.9804,-2.9804,-2.9804,-2.9804,-2.9804,-2.9804,-2.9804,-2.9804,-2.9804,-2.9804,-2.9804,-2.9804,-2.9804,-2.9804,-2.9804,-2.9804,-2.9804,-2.9804,-2.9804,-2.9804,-2.9804,-2.9754,-2.9553,-2.9013,0.0,0.0,0.0,0.0,0.0,0.0,-2.8938,-2.8938,0.0,0.0,0.0,0.0,0.0,-2.9302,-2.9829,-3.0407,-3.0959,-3.1436,-3.1989,-3.2265,-3.229,-3.2817,-3.3854,-3.5273,-3.3785,-3.3922,-3.5315,-3.4831,-3.4037,-3.3197,-3.4204,-3.3995,-3.3111,-3.3111,-3.3111,-3.3368,-3.5386,-3.6148,-3.6547,0.0,0.0,-4.1051,-4.0334,-4.0935,-4.181,-4.2671,-4.2304,-4.2369,-4.3462,-4.1505,-3.9849,-3.9336,-3.8027,-3.7061,-3.6832,-3.6681,-3.6782,-3.7161,-3.6282,-3.5633,-3.5508,-3.5107,-3.465,-3.4098,-3.3972,-3.3194,-3.1788,-3.1009,-3.0331,-2.9804,-2.9804,-2.9804,-2.9804,-2.9804,-2.9804,-2.9804,-2.9804,-2.9804,-2.9804,-2.9804,-2.9804,-2.9804,-2.9804,-2.9528,-2.9176,-2.9628,-2.9503,-2.9202,-2.9654,-2.9804,-2.9804,-2.9804,-2.9804,-2.9804,-2.9804,-2.9804,-2.9804,-2.9804,-2.9804,-2.9804,-2.9804,-2.9804,-2.9804,-2.9804,-2.9804,-2.9804,-2.9804,-2.9804,-2.9804,-2.9804,-2.9804,-2.9804,-2.9804,-2.9428,-2.9227,-2.9553,0.0,0.0,0.0,-2.9013,-2.9076,-2.8913,-2.9327,-2.9578,0.0,0.0,0.0,0.0,0.0,-3.0281,-3.0407,-3.1336,-3.1888,-3.2014,-3.2591,-3.2867,-3.2867,-3.3061,-3.3316,-3.3674,-3.3248,-3.3316,-3.3674,-3.3522,-3.3326,-3.3111,-3.3368,-3.3326,-3.3111,-3.3111,-3.3111,-3.3333,-3.5068,-3.577,-3.6058,-4.2986,-4.2361,-4.1633,-4.0803,-4.1617,-4.2511,-4.2955,-4.2719,-4.2713,-4.3517,-4.116,-3.9395,-3.9144,-3.7767,-3.6732,-3.643,-3.6405,-3.6531,-3.6832,-3.6006,-3.5382,-3.5132,-3.465,-3.4098,-3.3545,-3.3269,-3.2441,-3.1035,-3.0758,-3.0331,-2.9804,-2.9804,-2.9804,-2.9804,-2.9804,-2.9804,-2.9804,-2.9804,-2.9804,-2.9804,-2.9804,-2.9804,-2.9804,-2.9804,-2.9603,-2.9352,-2.9679,-2.9603,-2.9377,-2.9679,-2.9804,-2.9804,-2.9804,-2.9804,-2.9804,-2.9804,-2.9804,-2.9804,-2.9804,-2.9804,-2.9804,-2.9804,-2.9804,-2.9804,-2.9804,-2.9804,-2.9804,-2.9804,-2.9804,-2.9804,-2.9804,-2.9804,-2.9704,-2.9428,-2.9088,-2.8813,-2.8674,-2.8549,0.0,-2.8512,-2.9001,-2.9327,-2.9327,-2.9603,-2.9804,-2.9804,0.0,0.0,-3.0156,-3.0683,-3.0959,-3.0959,-3.1788,-3.234,-3.2591,-3.2918,-3.3111,-3.3111,-3.3111,-3.3219,-3.3445,-3.3194,-3.3219,-3.3445,-3.3237,-3.3111,-3.3111,-3.3111,-3.3111,-3.3111,-3.3111,-3.3111,-3.3265,-3.4643,-3.5167,-3.5387,-4.3358,-4.3228,-4.2752,-4.1223,-4.2293,-4.3241,-4.2776,-4.3182,-4.3401,-4.3099,-4.0828,-3.9077,-3.8707,-3.7292,-3.6405,-3.6405,-3.6329,-3.6279,-3.6279,-3.573,-3.5132,-3.4625,-3.4073,-3.352,-3.3011,-3.239,-3.1612,-3.0608,-3.0608,-3.0331,-2.9804,-2.9804,-2.9804,-2.9804,-2.9804,-2.9804,-2.9804,-2.9804,-2.9804,-2.9804,-2.9804,-2.9804,-2.9804,-2.9804,-2.9804,-2.9804,-2.9804,-2.9804,-2.9804,-2.9804,-2.9804,-2.9804,-2.9804,-2.9804,-2.9804,-2.9804,-2.9804,-2.9804,-2.9804,-2.9804,-2.9804,-2.9804,-2.9804,-2.9804,-2.9804,-2.9804,-2.9804,-2.9905,-2.9854,-2.9804,-2.9905,-2.9854,-2.9628,-2.9126,-2.8938,-2.8562,-2.767,0.0,-2.8712,-2.8273,-2.9151,-2.9829,-2.9905,-2.9905,-2.9955,-3.003,-3.003,0.0,0.0,-3.1235,-3.1512,-3.1512,-3.2064,-3.2566,-3.3111,-3.3111,-3.3111,-3.3111,-3.3111,-3.3319,-3.3746,-3.3294,-3.3345,-3.3746,-3.3294,-3.3111,-3.3111,-3.3111,-3.3111,-3.3111,-3.3111,-3.3111,-3.3197,-3.4121,-3.447,-3.4594,-4.2567,-4.2553,-4.2453,-4.2196,-4.2777,-4.3288,-4.3199,-4.3288,-4.2638,-4.0755,-4.0062,-3.9007,-3.7024,-3.6597,-3.6405,-3.6405,-3.5931,-3.5633,-3.5633,-3.5107,-3.4555,-3.4048,-3.3495,-3.2943,-3.2365,-3.1813,-3.121,-3.0608,-3.0608,-3.0331,-2.9804,-2.9804,-2.9804,-2.9804,-2.9804,-2.9804,-2.9804,-2.9804,-2.9804,-2.9804,-2.9804,-2.9804,-2.9804,-2.9804,-2.9804,-2.9804,-2.9804,-2.9804,-2.9804,-2.9804,-2.9804,-2.9804,-2.9804,-2.9804,-2.9804,-2.9804,-2.9804,-2.9804,-2.9804,-2.9804,-2.9804,-2.9804,-2.9804,-2.9804,-2.9804,-2.9804,-2.993,-3.0382,-3.0105,-2.993,-3.0407,-3.0105,-2.9754,-2.9679,-2.9252,-2.8838,-2.8662,0.0,-2.8863,-2.8787,-2.9377,-2.998,-3.0432,-3.0482,-3.0658,-3.111,-3.1135,-3.1185,-3.126,-3.1788,-3.2089,-3.2089,-3.2641,-3.3036,-3.3111,-3.3111,-3.3111,-3.3111,-3.3111,-3.3162,-3.3194,-3.3162,-3.3162,-3.3194,-3.3162,-3.3111,-3.3111,-3.3111,-3.3111,-3.3111,-3.3111,-3.3111,-3.3111,-3.3283,-3.3368,-3.3368,-4.2867,-4.2867,-4.2867,-4.2867,-4.3148,-4.329,-4.329,-4.2263,-4.1085,-4.0043,-3.881,-3.7612,-3.6499,-3.6405,-3.6405,-3.6405,-3.5855,-3.5382,-3.5082,-3.4575,-3.4173,-3.3897,-3.337,-3.2667,-3.1788,-3.1235,-3.0708,-3.0181,-3.0181,-3.003,-2.9804,-2.9804,-2.9804,-2.9804,-2.9804,-2.9804,-2.9804,-2.9804,-2.9804,-2.9804,-2.9804,-2.9804,-2.9804,-2.9804,-2.9804,-2.9804,-2.9804,-2.9804,-2.9804,-2.9804,-2.9804,-2.9804,-2.9804,-2.9804,-2.9804,-2.9804,-2.9804,-2.9804,-2.9804,-2.9804,-2.9804,-2.9804,-2.9804,-2.9804,-2.9804,-2.9804,-2.9955,-3.0507,-3.0407,-3.0306,-3.0557,-3.0407,-3.003,-2.9428,-2.885,0.0,0.0,-2.8712,-2.8888,-2.8888,-2.9704,-3.0331,-3.0583,-3.0608,-3.0834,-3.1361,-3.1386,-3.1512,-3.1813,-3.2064,-3.2365,-3.2667,-3.2943,-3.3111,-3.3111,-3.3111,-3.3111,-3.3111,-3.3111,-3.3111,-3.3111,-3.3111,-3.3111,-3.3111,-3.3111,-3.3111,-3.3111,-3.3111,-3.3111,-3.3111,-3.3111,-3.3111,-3.3111,-3.3111,-3.3111,-3.3111,-4.329,-4.329,-4.329,-4.329,-4.329,-4.329,-4.329,-4.1616,-4.0189,-3.9929,-3.8088,-3.6611,-3.6229,-3.6182,-3.6132,-3.6028,-3.5479,-3.4931,-3.455,-3.4022,-3.3696,-3.3696,-3.3169,-3.2466,-3.1587,-3.0959,-3.0407,-2.998,-2.9854,-2.9804,-2.9804,-2.9804,-2.9804,-2.9804,-2.9804,-2.9804,-2.9804,-2.9804,-2.9804,-2.9804,-2.9804,-2.9804,-2.9804,-2.9804,-2.9804,-2.9804,-2.9804,-2.9804,-2.9804,-2.9804,-2.9804,-2.9804,-2.9804,-2.9804,-2.9804,-2.9804,-2.9804,-2.9804,-2.9804,-2.9804,-2.9804,-2.9804,-2.988,-2.998,-2.998,-3.008,-3.0306,-3.0859,-3.0884,-3.0834,-3.0959,-3.0884,-3.0482,-2.9439,0.0,0.0,0.0,-2.8976,-2.9289,-2.9289,-3.0206,-3.0834,-3.0984,-3.0984,-3.121,-3.1738,-3.1788,-3.1964,-3.239,-3.2416,-3.2616,-3.3111,-3.3111,-3.3111,-3.3111,-3.3111,-3.3111,-3.3111,-3.3111,-3.3111,-3.3111,-3.3111,-3.3111,-3.3111,-3.3111,-3.3111,-3.3111,-3.3111,-3.3111,-3.3111,-3.3111,-3.3111,-3.3111,-3.3111,-3.3111,-3.3111,-4.329,-4.329,-4.329,-4.329,-4.329,-4.329,-4.329,-4.2234,-4.1085,-4.0015,-3.8783,-3.7332,-3.5747,-3.5558,-3.5357,-3.4876,-3.4349,-3.3997,-3.3972,-3.3445,-3.3187,-3.3187,-3.2591,-3.224,-3.2164,-3.1135,-3.0608,-3.0557,-3.003,-2.9804,-2.9804,-2.9804,-2.9804,-2.9804,-2.9804,-2.9804,-2.9804,-2.9804,-2.9804,-2.9804,-2.9804,-2.9804,-2.9804,-2.9804,-2.9804,-2.9804,-2.9804,-2.9804,-2.9804,-2.9804,-2.9804,-2.9804,-2.9804,-2.9804,-2.9804,-2.9804,-2.9804,-2.9804,-2.9804,-2.9804,-2.9804,-2.9804,-3.0181,-3.0557,-3.0557,-3.0934,-3.1436,-3.1989,-3.1687,-3.1486,-3.2014,-3.1687,-3.116,-3.0583,0.0,0.0,-2.9729,-3.0156,-3.0482,-3.0482,-3.0984,-3.1537,-3.2039,-3.2089,-3.234,-3.296,-3.2943,-3.3011,-3.3061,-3.3018,-3.3043,-3.3111,-3.3111,-3.3111,-3.3111,-3.3111,-3.3111,-3.3111,-3.3111,-3.3111,-3.3111,-3.3111,-3.3111,-3.3111,-3.3111,-3.3111,-3.3111,-3.3111,-3.3111,-3.3111,-3.3111,-3.3111,-3.3111,-3.3111,-3.3111,-3.3111,-4.329,-4.329,-4.329,-4.329,-4.329,-4.329,-4.329,-4.1435,-3.9956,-3.9901,-3.7634,-3.5856,-3.5529,-3.5182,-3.4906,-3.4751,-3.4835,-3.4589,-3.3941,-3.4033,-3.3784,-3.3111,-3.2516,-3.2215,-3.2215,-3.1486,-3.0934,-3.0608,-3.0407,-3.0131,-2.9804,-2.9804,-2.9804,-2.9804,-2.9804,-2.9804,-2.9804,-2.9804,-2.9804,-2.9804,-2.9804,-2.9804,-2.9804,-2.9804,-2.9804,-2.9804,-2.9804,-2.9804,-2.9804,-2.9804,-2.9804,-2.9804,-2.9804,-2.9804,-2.9804,-2.9804,-2.9804,-2.9804,-2.9804,-2.9804,-2.988,-3.0206,-3.0457,-3.0708,-3.1009,-3.126,-3.1537,-3.2089,-3.2039,-3.1964,-3.2164,-3.2039,-3.1712,-3.1185,0.0,-3.0658,-3.0758,-3.0959,-3.111,-3.111,-3.1562,-3.1989,-3.219,-3.2215,-3.2466,-3.3043,-3.3111,-3.3111,-3.3111,-3.3111,-3.3111,-3.3111,-3.3111,-3.3111,-3.3111,-3.3111,-3.3111,-3.3111,-3.3111,-3.3111,-3.3111,-3.3111,-3.3111,-3.3111,-3.3111,-3.3111,-3.3111,-3.3111,-3.3111,-3.3111,-3.3111,-3.3111,-3.3111,-3.3111,-3.3111,-3.3111,-4.326,-4.329,-4.329,-4.329,-4.329,-4.323,-4.306,-4.1006,-3.9452,-3.932,-3.7173,-3.5646,-3.5519,-3.5188,-3.5014,-3.5158,-3.4925,-3.4564,-3.416,-3.4159,-3.3869,-3.3111,-3.2692,-3.239,-3.2215,-3.1662,-3.1135,-3.0608,-3.0432,-3.0156,-2.9804,-2.9804,-2.9804,-2.9804,-2.9804,-2.9804,-2.9804,-2.9804,-2.9804,-2.9804,-2.9804,-2.9804,-2.9804,-2.9804,-2.9804,-2.9804,-2.9804,-2.9804,-2.9804,-2.9804,-2.9804,-2.9804,-2.9804,-2.9804,-2.9804,-2.9804,-2.9804,-2.9804,-2.9804,-2.9804,-2.993,-3.0482,-3.0733,-3.1009,-3.1537,-3.1788,-3.2039,-3.2416,-3.2491,-3.2491,-3.2491,-3.2491,-3.229,-3.1738,-3.1361,-3.1235,-3.1612,-3.1637,-3.1712,-3.1888,-3.224,-3.2491,-3.2491,-3.2491,-3.2641,-3.3043,-3.3111,-3.3111,-3.3111,-3.3111,-3.3111,-3.3111,-3.3428,-3.3598,-3.3598,-3.3283,-3.3283,-3.3598,-3.3283,-3.3283,-3.3598,-3.324,-3.3111,-3.3111,-3.3111,-3.3111,-3.3111,-3.3111,-3.3111,-3.3111,-3.3111,-3.3111,-3.3111,-3.3111,-3.3111,-3.3111,-4.314,-4.329,-4.329,-4.329,-4.329,-4.312,-4.25,-4.1379,-3.9959,-3.8242,-3.7951,-3.7274,-3.5659,-3.5479,-3.5675,-3.6148,-3.4304,-3.3556,-3.4609,-3.3658,-3.3111,-3.3111,-3.3111,-3.2792,-3.2215,-3.1662,-3.1135,-3.0608,-3.0055,-2.9804,-2.9804,-2.9804,-2.9804,-2.9804,-2.9804,-2.9804,-2.9804,-2.9804,-2.9804,-2.9804,-2.9804,-2.9804,-2.9804,-2.9804,-2.9804,-2.9804,-2.9804,-2.9804,-2.9804,-2.9804,-2.9804,-2.9804,-2.9804,-2.9804,-2.9804,-2.9804,-2.9804,-2.9804,-2.9804,-2.9804,-2.993,-3.0482,-3.1009,-3.1537,-3.2089,-3.2667,-3.3111,-3.3111,-3.3111,-3.3111,-3.3111,-3.3111,-3.2893,-3.2315,-3.2215,-3.2215,-3.2215,-3.2215,-3.2441,-3.3061,-3.3111,-3.3111,-3.3111,-3.3111,-3.3111,-3.3111,-3.3111,-3.3111,-3.3111,-3.3111,-3.3111,-3.3111,-3.4163,-3.4718,-3.4718,-3.3683,-3.3683,-3.4718,-3.3641,-3.3683,-3.4677,-3.3598,-3.3111,-3.3111,-3.3111,-3.3111,-3.3111,-3.3111,-3.3111,-3.3111,-3.3111,-3.3111,-3.3111,-3.3111,-3.3111,-3.3111,-4.1923,-4.1953,-4.1953,-4.1953,-4.2342,-4.247,-4.1811,-4.0744,-3.9797,-3.9195,-3.7693,-3.6686,-3.6634,-3.5609,-3.5001,-3.5142,-3.4594,-3.4162,-3.411,-3.2726,-3.1888,-3.1888,-3.2265,-3.239,-3.2215,-3.1662,-3.1135,-3.0608,-3.0457,-3.0181,-2.9804,-2.9804,-2.9804,-2.9804,-2.9804,-2.9804,-2.9804,-2.9804,-2.9804,-2.9804,-2.9804,-2.9804,-2.9804,-2.9804,-2.9804,-2.9804,-2.9804,-2.9804,-2.9804,-2.9804,-2.9804,-2.9804,-2.9804,-2.9804,-2.9804,-2.9804,-2.9804,-2.9804,-2.9804,-3.008,-3.0507,-3.1035,-3.1286,-3.1637,-3.2591,-3.2943,-3.3111,-3.3111,-3.3111,-3.3111,-3.3111,-3.3111,-3.3061,-3.2842,-3.2817,-3.2817,-3.2817,-3.2817,-3.2893,-3.3068,-3.3111,-3.3111,-3.3111,-3.3111,-3.3111,-3.3111,-3.3111,-3.3111,-3.3111,-3.3111,-3.3428,-3.4178,-3.4553,-3.5061,-3.5734,-3.5413,-3.5413,-3.5734,-3.5413,-3.5413,-3.5734,-3.5413,-3.4897,-3.422,-3.422,-3.3784,-3.3111,-3.3111,-3.3111,-3.3111,-3.3111,-3.3111,-3.3111,-3.3111,-3.3111,-3.3111,-4.1324,-4.1422,-4.1422,-4.1422,-4.1752,-4.1782,-4.1085,-4.0444,-3.9751,-3.8995,-3.8045,-3.7433,-3.74,-3.6141,-3.544,-3.5882,-3.4969,-3.3986,-3.3198,-3.2072,-3.1486,-3.1712,-3.1637,-3.1587,-3.1587,-3.126,-3.0834,-3.0281,-3.0281,-3.0131,-2.9804,-2.9804,-2.9804,-2.9804,-2.9804,-2.9804,-2.9804,-2.9804,-2.9804,-2.9804,-2.9804,-2.9804,-2.9804,-2.9804,-2.9804,-2.9804,-2.9804,-2.9804,-2.9804,-2.9804,-2.9804,-2.9804,-2.9804,-2.9804,-2.9804,-2.9804,-2.9804,-2.9854,-3.0055,-3.0357,-3.0783,-3.1537,-3.1712,-3.1964,-3.291,-3.3111,-3.3111,-3.3111,-3.3111,-3.3111,-3.3111,-3.3111,-3.3111,-3.3111,-3.3111,-3.3111,-3.3111,-3.3111,-3.3111,-3.3111,-3.3111,-3.3111,-3.3111,-3.3111,-3.3111,-3.3111,-3.3111,-3.3111,-3.3111,-3.3111,-3.3598,-3.4677,-3.5102,-3.5802,-3.6799,-3.7252,-3.7252,-3.6799,-3.6408,-3.6408,-3.6799,-3.6408,-3.5854,-3.5278,-3.4856,-3.4304,-3.3725,-3.3283,-3.3111,-3.3111,-3.3111,-3.3111,-3.3111,-3.3111,-3.3111,-3.3111,-4.1085,-4.1205,-4.1205,-4.1205,-4.1265,-4.1055,-4.0397,-4.0367,-3.9795,-3.8156,-3.8797,-3.9017,-3.8032,-3.6905,-3.6604,-3.7587,-3.5189,-3.3227,-3.2181,-3.1662,-3.1562,-3.1989,-3.111,-3.0583,-3.0532,-3.0532,-3.0306,-2.9804,-2.9804,-2.9804,-2.9804,-2.9804,-2.9804,-2.9804,-2.9804,-2.9804,-2.9804,-2.9804,-2.9804,-2.9804,-2.9804,-2.9804,-2.9804,-2.9804,-2.9804,-2.9804,-2.9804,-2.9804,-2.9804,-2.9804,-2.9804,-2.9804,-2.9804,-2.9804,-2.9804,-2.9804,-2.9804,-2.9905,-3.0457,-3.0658,-3.0934,-3.1964,-3.2265,-3.2416,-3.2943,-3.3111,-3.3111,-3.3111,-3.3111,-3.3111,-3.3111,-3.3111,-3.3111,-3.3111,-3.3111,-3.3111,-3.3111,-3.3111,-3.3111,-3.3111,-3.3111,-3.3111,-3.3111,-3.3111,-3.3111,-3.3111,-3.3111,-3.3111,-3.3111,-3.3197,-3.3725,-3.4774,-3.5814,-3.6866,-3.7919,-3.8907,-3.8907,-3.7919,-3.6944,-3.7021,-3.7919,-3.6944,-3.6448,-3.629,-3.5278,-3.4774,-3.4635,-3.3556,-3.3111,-3.3111,-3.3111,-3.3111,-3.3111,-3.3111,-3.3111,-3.3111,-3.9828,-3.9858,-3.9858,-3.9858,-4.0277,-4.0397,-3.9738,-4.0068,-4.0084,-3.9179,-3.9265,-3.9301,-3.9053,-3.7367,-3.629,-3.6526,-3.4096,-3.2263,-3.1628,-3.1461,-3.106,-3.0357,-3.0507,-3.0407,-2.998,-2.998,-2.9905,-2.9804,-2.9804,-2.9804,-2.9804,-2.9804,-2.9804,-2.9804,-2.9804,-2.9804,-2.9804,-2.9804,-2.9804,-2.9804,-2.9804,-2.9804,-2.9804,-2.9804,-2.9804,-2.9804,-2.9804,-2.9804,-2.9804,-2.9804,-2.9804,-2.9804,-2.9804,-2.9804,-2.9804,-2.9804,-2.9804,-2.9905,-3.0457,-3.0909,-3.1386,-3.2039,-3.2541,-3.2918,-3.3043,-3.3111,-3.3111,-3.3111,-3.3111,-3.3111,-3.3111,-3.3111,-3.3111,-3.3111,-3.3111,-3.3111,-3.3111,-3.3111,-3.3111,-3.3111,-3.3111,-3.3111,-3.3111,-3.3111,-3.3111,-3.3111,-3.3111,-3.3111,-3.3111,-3.3911,-3.4815,-3.5854,-3.6905,-3.7994,-3.9017,-3.9265,-3.9265,-3.9053,-3.8833,-3.8833,-3.9053,-3.8804,-3.8256,-3.7396,-3.633,-3.544,-3.4635,-3.3556,-3.3111,-3.3111,-3.3111,-3.3111,-3.3111,-3.3111,-3.3111,-3.3111,-3.9373,-3.9373,-3.9373,-3.9373,-3.9709,-3.9798,-3.9433,-3.9709,-3.9798,-3.9433,-3.9373,-3.9373,-3.9373,-3.7927,-3.6565,-3.5561,-3.3467,-3.2089,-3.1813,-3.1311,-3.0884,-3.0557,-3.0331,-3.0416,-3.0843,-3.0585,-3.0495,-3.0495,-3.0921,-3.1145,-3.1145,-3.0658,-3.0495,-3.0457,-3.0011,-2.9804,-2.9804,-2.9804,-2.9804,-2.9804,-2.9804,-2.9804,-2.9804,-2.9804,-2.9804,-2.9804,-2.9804,-2.9804,-2.9804,-2.9804,-2.9804,-2.9804,-2.9804,-2.9804,-2.9804,-2.9804,-2.9804,-2.9955,-3.0758,-3.1185,-3.1587,-3.2416,-3.2842,-3.3111,-3.3111,-3.3111,-3.3144,-3.342,-3.3269,-3.3169,-3.342,-3.3244,-3.3111,-3.3111,-3.3111,-3.3111,-3.3111,-3.3111,-3.3111,-3.3111,-3.3111,-3.3111,-3.3111,-3.3111,-3.3111,-3.3111,-3.3111,-3.3326,-3.3827,-3.4387,-3.5427,-3.6944,-3.751,-3.8323,-3.9373,-3.9373,-3.9373,-3.9373,-3.9373,-3.9373,-3.9373,-3.9373,-3.909,-3.8509,-3.7405,-3.6369,-3.5319,-3.4304,-3.3556,-3.3111,-3.3111,-3.3111,-3.3111,-3.3111,-3.3111,-3.3111,-3.9373,-3.9373,-3.9373,-3.9373,-3.9373,-3.9373,-3.9373,-3.9373,-3.9373,-3.9373,-3.9373,-3.9379,-3.926,-3.8259,-3.6803,-3.4723,-3.3354,-3.2474,-3.2089,-3.1336,-3.0959,-3.111,-3.0528,-3.0689,-3.1841,-3.1739,-3.1609,-3.1426,-3.22,-3.2593,-3.2558,-3.1829,-3.1352,-3.1193,-3.0381,-2.9934,-2.9804,-2.9804,-2.9804,-2.9804,-2.9804,-2.9804,-2.9804,-2.9804,-2.9804,-2.9804,-2.9804,-2.9804,-2.9804,-2.9804,-2.9804,-2.9804,-2.9804,-2.9804,-2.9804,-2.9804,-2.9804,-3.003,-3.111,-3.1386,-3.1662,-3.2835,-3.3111,-3.3111,-3.3111,-3.3111,-3.3219,-3.3671,-3.347,-3.3345,-3.3822,-3.3596,-3.3319,-3.3244,-3.3262,-3.3194,-3.3093,-3.3111,-3.3111,-3.3111,-3.3111,-3.3111,-3.3111,-3.3111,-3.3111,-3.3111,-3.3283,-3.3742,-3.4677,-3.502,-3.6001,-3.7767,-3.7994,-3.8509,-3.9373,-3.9373,-3.9373,-3.9373,-3.9373,-3.9373,-3.9373,-3.9373,-3.9373,-3.9337,-3.8256,-3.7291,-3.6408,-3.5359,-3.4428,-3.3615,-3.3428,-3.3471,-3.3598,-3.3428,-3.3283,-3.3111,-3.9373,-3.9373,-3.9373,-3.9373,-3.9373,-3.9373,-3.9373,-3.9373,-3.9373,-3.9373,-3.9373,-3.92,-3.8601,-3.7594,-3.6089,-3.4032,-3.4144,-3.355,-3.1644,-3.1813,-3.1411,-3.0055,-3.1113,-3.1596,-3.1299,-3.2826,-3.3192,-3.2415,-3.2522,-3.2593,-3.2593,-3.2451,-3.1983,-3.1167,-3.1082,-3.057,-2.9804,-2.9804,-2.9804,-2.9804,-2.9804,-2.9804,-2.9804,-2.9804,-2.9804,-2.9804,-2.9804,-2.9804,-2.9804,-2.9804,-2.9804,-2.9804,-2.9804,-2.9804,-2.9804,-2.9804,-2.9804,-3.003,-3.111,-3.1386,-3.1662,-3.2835,-3.3111,-3.3111,-3.3111,-3.3111,-3.3093,-3.3169,-3.3495,-3.3796,-3.3897,-3.4223,-3.4349,-3.3872,-3.3796,-3.3621,-3.3187,-3.3111,-3.3111,-3.3111,-3.3111,-3.3111,-3.3111,-3.3111,-3.3111,-3.3111,-3.3953,-3.4553,-3.4718,-3.6397,-3.751,-3.7805,-3.8694,-3.9265,-3.9373,-3.9373,-3.9373,-3.9373,-3.9373,-3.9373,-3.9373,-3.9373,-3.9373,-3.9337,-3.8256,-3.7701,-3.751,-3.6448,-3.5934,-3.5694,-3.4815,-3.502,-3.5654,-3.4815,-3.3911,-3.3111,-3.8302,-3.8601,-3.8841,-3.8841,-3.8841,-3.8841,-3.8841,-3.8542,-3.8422,-3.8781,-3.8542,-3.8302,-3.8392,-3.7155,-3.5835,-3.4706,-3.4007,-3.3138,-3.1946,-3.199,-3.1745,-3.1061,-3.1851,-3.2473,-3.2735,-3.3602,-3.4075,-3.424,-3.424,-3.424,-3.4206,-3.3115,-3.2379,-3.1938,-3.0884,-3.0177,-2.9804,-2.9804,-2.9804,-2.9804,-2.9804,-2.9804,-2.9804,-2.9804,-2.9804,-2.9804,-2.9804,-2.9804,-2.9804,-2.9804,-2.9804,-2.9854,-3.0156,-3.0256,-3.0306,-3.0608,-3.0683,-3.0859,-3.1637,-3.1863,-3.2039,-3.2867,-3.3111,-3.3111,-3.3111,-3.3111,-3.3169,-3.347,-3.3495,-3.3545,-3.3847,-3.4098,-3.4173,-3.3947,-3.3897,-3.3822,-3.3571,-3.3269,-3.3111,-3.3111,-3.3111,-3.3111,-3.3111,-3.3111,-3.3368,-3.3953,-3.4428,-3.5224,-3.6358,-3.7319,-3.8069,-3.8657,-3.9156,-3.9373,-3.9373,-3.9373,-3.9373,-3.9373,-3.9373,-3.9373,-3.9373,-3.9373,-3.9373,-3.9337,-3.8256,-3.7805,-3.7663,-3.6041,-3.5694,-3.6093,-3.5102,-3.4979,-3.5319,-3.4856,-3.4037,-3.3111]},{"header":{"parameterUnit":"m.s-1","parameterCategory":1,"la1":30.6,"la2":28.766,"lo1":-90.7593,"lo2":-88.6598,"dy":0.0162,"dx":0.0183,"nx":116,"ny":114,"refTime":"2023-08-10T12:00:00:Z","depth":0,"parameterNumber":3,"parameterNumberName":"V-component_of_WINDS"},"data":[0.0,0.0,0.0,0.0,0.0,0.0,0.0,0.0,0.0,0.0,0.0,0.0,0.0,0.0,0.0,0.0,0.0,0.0,0.0,0.0,0.0,0.0,0.0,0.0,0.0,0.0,0.0,0.0,0.0,0.0,0.0,0.0,0.0,0.0,0.0,0.0,0.0,0.0,0.0,0.0,0.0,0.0,0.0,0.0,0.0,0.0,0.0,0.0,0.0,0.0,0.0,0.0,0.0,0.0,0.0,0.0,0.0,0.0,0.0,0.0,0.0,0.0,0.0,0.0,0.0,0.0,0.0,0.0,0.0,0.0,0.0,0.0,0.0,0.0,0.0,0.0,0.0,0.0,0.0,0.0,0.0,0.0,0.0,0.0,0.0,0.0,0.0,0.0,0.0,0.0,0.0,0.0,0.0,0.0,0.0,0.0,0.0,0.0,0.0,0.0,0.0,0.0,0.0,0.0,0.0,0.0,0.0,0.0,0.0,0.0,0.0,0.0,0.0,0.0,0.0,0.0,0.0,0.0,0.0,0.0,0.0,0.0,0.0,0.0,0.0,0.0,0.0,0.0,0.0,0.0,0.0,0.0,0.0,0.0,0.0,0.0,0.0,0.0,0.0,0.0,0.0,0.0,0.0,0.0,0.0,0.0,0.0,0.0,0.0,0.0,0.0,0.0,0.0,0.0,0.0,0.0,0.0,0.0,0.0,0.0,0.0,0.0,0.0,0.0,0.0,0.0,0.0,0.0,0.0,0.0,0.0,0.0,0.0,0.0,0.0,0.0,0.0,0.0,0.0,0.0,0.0,0.0,0.0,0.0,0.0,0.0,0.0,0.0,0.0,0.0,0.0,0.0,0.0,0.0,0.0,0.0,0.0,0.0,0.0,0.0,0.0,0.0,0.0,0.0,0.0,0.0,0.0,0.0,0.0,0.0,0.0,0.0,0.0,0.0,0.0,0.0,0.0,0.0,0.0,0.0,0.0,0.0,0.0,0.0,0.0,0.0,0.0,0.0,0.0,0.0,0.0,0.0,0.0,0.0,0.0,0.0,0.0,0.0,0.0,0.0,0.0,0.0,0.0,0.0,0.0,0.0,0.0,0.0,0.0,0.0,0.0,0.0,0.0,0.0,0.0,0.0,0.0,0.0,0.0,0.0,0.0,0.0,0.0,0.0,0.0,0.0,0.0,0.0,0.0,0.0,0.0,0.0,0.0,0.0,0.0,0.0,0.0,0.0,0.0,0.0,0.0,0.0,0.0,0.0,0.0,0.0,0.0,0.0,0.0,0.0,0.0,0.0,0.0,0.0,0.0,0.0,0.0,0.0,0.0,0.0,0.0,0.0,0.0,0.0,0.0,0.0,0.0,0.0,0.0,0.0,0.0,0.0,0.0,0.0,0.0,0.0,0.0,0.0,0.0,0.0,0.0,0.0,0.0,0.0,0.0,0.0,0.0,0.0,0.0,0.0,0.0,0.0,0.0,0.0,0.0,0.0,0.0,0.0,0.0,0.0,0.0,0.0,0.0,0.0,0.0,0.0,0.0,0.0,0.0,0.0,0.0,0.0,0.0,0.0,0.0,0.0,0.0,0.0,0.0,0.0,0.0,0.0,0.0,0.0,0.0,0.0,0.0,0.0,0.0,0.0,0.0,0.0,0.0,0.0,0.0,0.0,0.0,0.0,0.0,0.0,0.0,0.0,0.0,0.0,0.0,0.0,0.0,0.0,0.0,0.0,0.0,0.0,0.0,0.0,0.0,0.0,0.0,0.0,0.0,0.0,0.0,0.0,0.0,0.0,0.0,0.0,0.0,0.0,0.0,0.0,0.0,0.0,0.0,0.0,0.0,0.0,0.0,0.0,0.0,0.0,0.0,0.0,0.0,0.0,0.0,0.0,0.0,0.0,0.0,0.0,0.0,0.0,0.0,0.0,0.0,0.0,0.0,0.0,0.0,0.0,0.0,0.0,0.0,0.0,0.0,0.0,0.0,0.0,0.0,0.0,0.0,0.0,0.0,0.0,0.0,0.0,0.0,0.0,0.0,0.0,0.0,0.0,0.0,0.0,0.0,0.0,0.0,0.0,0.0,0.0,0.0,0.0,0.0,0.0,0.0,0.0,0.0,0.0,0.0,0.0,0.0,0.0,0.0,0.0,0.0,0.0,0.0,0.0,0.0,0.0,0.0,0.0,0.0,0.0,0.0,0.0,0.0,0.0,0.0,0.0,0.0,0.0,0.0,0.0,0.0,0.0,0.0,0.0,0.0,0.0,0.0,0.0,0.0,0.0,0.0,0.0,0.0,0.0,0.0,0.0,0.0,0.0,0.0,0.0,0.0,0.0,0.0,0.0,0.0,0.0,0.0,0.0,0.0,0.0,0.0,0.0,0.0,0.0,0.0,0.0,0.0,0.0,0.0,0.0,0.0,0.0,0.0,0.0,0.0,0.0,0.0,0.0,0.0,0.0,0.0,0.0,0.0,0.0,0.0,0.0,0.0,0.0,0.0,0.0,0.0,0.0,0.0,0.0,0.0,0.0,0.0,0.0,0.0,0.0,0.0,0.0,0.0,0.0,0.0,0.0,0.0,0.0,0.0,0.0,0.0,0.0,0.0,0.0,0.0,0.0,0.0,0.0,0.0,0.0,0.0,0.0,0.0,0.0,0.0,0.0,0.0,0.0,0.0,0.0,0.0,0.0,0.0,0.0,0.0,0.0,0.0,0.0,0.0,0.0,0.0,0.0,0.0,0.0,0.0,0.0,0.0,0.0,0.0,0.0,0.0,0.0,0.0,0.0,0.0,0.0,0.0,0.0,0.0,0.0,0.0,0.0,0.0,0.0,0.0,0.0,0.0,0.0,0.0,0.0,0.0,0.0,0.0,0.0,0.0,0.0,0.0,0.0,0.0,0.0,0.0,0.0,0.0,0.0,0.0,0.0,0.0,0.0,0.0,0.0,0.0,0.0,0.0,0.0,0.0,0.0,0.0,0.0,0.0,0.0,0.0,0.0,0.0,0.0,0.0,0.0,0.0,0.0,0.0,0.0,0.0,0.0,0.0,0.0,0.0,0.0,0.0,0.0,0.0,0.0,0.0,0.0,0.0,0.0,0.0,0.0,0.0,0.0,0.0,0.0,0.0,0.0,0.0,0.0,0.0,0.0,0.0,0.0,0.0,0.0,0.0,0.0,0.0,0.0,0.0,0.0,0.0,0.0,0.0,0.0,0.0,0.0,0.0,0.0,0.0,0.0,0.0,0.0,0.0,0.0,0.0,0.0,0.0,0.0,0.0,0.0,0.0,0.0,0.0,0.0,0.0,0.0,0.0,0.0,0.0,0.0,0.0,0.0,0.0,0.0,0.0,0.0,0.0,0.0,0.0,0.0,0.0,0.0,0.0,0.0,0.0,0.0,0.0,0.0,0.0,0.0,0.0,0.0,0.0,0.0,0.0,0.0,0.0,0.0,0.0,0.0,0.0,0.0,0.0,0.0,0.0,0.0,0.0,0.0,0.0,0.0,0.0,0.0,0.0,0.0,0.0,0.0,0.0,0.0,0.0,0.0,0.0,0.0,0.0,0.0,0.0,0.0,0.0,0.0,0.0,0.0,0.0,0.0,0.0,0.0,0.0,0.0,0.0,0.0,0.0,0.0,0.0,0.0,0.0,0.0,0.0,0.0,0.0,0.0,0.0,0.0,0.0,0.0,0.0,0.0,0.0,0.0,0.0,0.0,0.0,0.0,0.0,0.0,0.0,0.0,0.0,0.0,0.0,0.0,0.0,0.0,0.0,0.0,0.0,0.0,0.0,0.0,0.0,0.0,0.0,0.0,0.0,0.0,0.0,0.0,0.0,0.0,0.0,0.0,0.0,0.0,0.0,0.0,0.0,0.0,0.0,0.0,0.0,0.0,0.0,0.0,0.0,0.0,0.0,0.0,0.0,0.0,0.0,0.0,0.0,0.0,0.0,0.0,0.0,0.0,0.0,0.0,0.0,0.0,0.0,0.0,0.0,0.0,0.0,0.0,0.0,0.0,0.0,0.0,0.0,0.0,0.0,0.0,0.0,0.0,0.0,0.0,0.0,0.0,0.0,0.0,0.0,0.0,0.0,0.0,0.0,0.0,0.0,0.0,0.0,0.0,0.0,0.0,0.0,0.0,0.0,0.0,0.0,0.0,0.0,0.0,0.0,0.0,0.0,0.0,0.0,0.0,0.0,0.0,0.0,0.0,0.0,0.0,0.0,0.0,0.0,0.0,0.0,0.0,0.0,0.0,0.0,0.0,0.0,0.0,0.0,0.0,0.0,0.0,0.0,0.0,0.0,0.0,0.0,0.0,0.0,0.0,0.0,0.0,0.0,0.0,0.0,0.0,0.0,0.0,0.0,0.0,0.0,0.0,0.0,0.0,0.0,0.0,0.0,0.0,0.0,0.0,0.0,0.0,0.0,0.0,0.0,0.0,0.0,0.0,0.0,0.0,0.0,0.0,0.0,0.0,0.0,0.0,0.0,0.0,0.0,0.0,0.0,0.0,0.0,0.0,0.0,0.0,0.0,0.0,0.0,0.0,0.0,0.0,0.0,0.0,0.0,0.0,0.0,0.0,0.0,0.0,0.0,0.0,0.0,0.0,0.0,0.0,0.0,0.0,0.0,0.0,0.0,0.0,0.0,0.0,0.0,0.0,0.0,0.0,0.0,0.0,0.0,0.0,0.0,0.0,0.0,0.0,0.0,0.0,0.0,0.0,0.0,0.0,0.0,0.0,0.0,0.0,0.0,0.0,0.0,0.0,0.0,0.0,0.0,0.0,0.0,0.0,0.0,0.0,0.0,0.0,0.0,0.0,0.0,0.0,0.0,0.0,0.0,0.0,0.0,0.0,0.0,0.0,0.0,0.0,0.0,0.0,0.0,0.0,0.0,0.0,0.0,0.0,0.0,0.0,0.0,0.0,0.0,0.0,0.0,0.0,0.0,0.0,0.0,0.0,0.0,0.0,0.0,0.0,0.0,0.0,0.0,0.0,0.0,0.0,0.0,0.0,0.0,0.0,0.0,0.0,0.0,0.0,0.0,0.0,0.0,0.0,0.0,0.0,0.0,0.0,0.0,0.0,0.0,0.0,0.0,0.0,0.0,0.0,0.0,0.0,0.0,0.0,0.0,0.0,0.0,0.0,0.0,0.0,0.0,0.0,0.0,0.0,0.0,0.0,0.0,0.0,0.0,0.0,0.0,0.0,0.0,0.0,0.0,0.0,0.0,0.0,0.0,0.0,0.0,0.0,0.0,0.0,0.0,0.0,0.0,0.0,0.0,0.0,0.0,0.0,0.0,0.0,0.0,0.0,0.0,0.0,0.0,0.0,0.0,0.0,0.0,0.0,0.0,0.0,0.0,0.0,0.0,0.0,0.0,0.0,0.0,0.0,0.0,0.0,0.0,0.0,0.0,0.0,0.0,0.0,0.0,0.0,0.0,0.0,0.0,0.0,0.0,0.0,0.0,0.0,0.0,0.0,0.0,0.0,0.0,0.0,0.0,0.0,0.0,0.0,0.0,0.0,0.0,0.0,0.0,0.0,0.0,0.0,0.0,0.0,0.0,0.0,0.0,0.0,0.0,0.0,0.0,0.0,0.0,0.0,0.0,0.0,0.0,0.0,0.0,0.0,0.0,0.0,0.0,0.0,0.0,0.0,0.0,0.0,0.0,0.0,0.0,0.0,0.0,0.0,0.0,0.0,0.0,0.0,0.0,0.0,0.0,0.0,0.0,0.0,0.0,0.0,0.0,0.0,0.0,0.0,0.0,0.0,0.0,0.0,0.0,0.0,0.0,0.0,0.0,0.0,0.0,0.0,0.0,0.0,0.0,0.0,0.0,0.0,0.0,0.0,0.0,0.0,0.0,0.0,0.0,0.0,0.0,0.0,0.0,0.0,0.0,0.0,0.0,0.0,0.0,0.0,0.0,0.0,0.0,0.0,0.0,0.0,0.0,0.0,0.0,0.0,0.0,0.0,0.0,0.0,0.0,0.0,0.0,0.0,0.0,0.0,0.0,0.0,0.0,0.0,0.0,0.0,0.0,0.0,0.0,0.0,0.0,0.0,0.0,0.0,0.0,0.0,0.0,0.0,0.0,0.0,0.0,0.0,-2.3356,0.0,0.0,0.0,0.0,0.0,0.0,0.0,0.0,0.0,0.0,0.0,0.0,0.0,0.0,0.0,0.0,0.0,0.0,0.0,0.0,0.0,0.0,0.0,0.0,0.0,0.0,0.0,0.0,0.0,0.0,0.0,0.0,0.0,0.0,0.0,0.0,0.0,0.0,0.0,0.0,0.0,0.0,0.0,0.0,0.0,0.0,0.0,0.0,0.0,0.0,0.0,0.0,0.0,0.0,0.0,0.0,0.0,0.0,0.0,0.0,0.0,0.0,0.0,0.0,0.0,0.0,0.0,0.0,0.0,0.0,0.0,0.0,0.0,0.0,0.0,0.0,0.0,0.0,0.0,0.0,0.0,0.0,0.0,0.0,0.0,0.0,0.0,0.0,0.0,0.0,0.0,0.0,0.0,0.0,0.0,0.0,0.0,0.0,0.0,0.0,0.0,0.0,0.0,0.0,0.0,0.0,0.0,0.0,0.0,0.0,0.0,0.0,0.0,0.0,0.0,0.0,-2.4382,0.0,0.0,0.0,0.0,0.0,0.0,0.0,0.0,0.0,0.0,0.0,0.0,0.0,0.0,0.0,0.0,0.0,0.0,0.0,0.0,0.0,0.0,0.0,0.0,0.0,0.0,0.0,0.0,0.0,0.0,0.0,0.0,0.0,0.0,0.0,0.0,0.0,0.0,0.0,0.0,0.0,0.0,0.0,0.0,0.0,0.0,0.0,0.0,0.0,0.0,0.0,0.0,0.0,0.0,0.0,0.0,0.0,0.0,0.0,0.0,0.0,0.0,0.0,0.0,0.0,0.0,0.0,0.0,0.0,0.0,0.0,0.0,0.0,0.0,0.0,0.0,0.0,0.0,0.0,0.0,0.0,0.0,0.0,0.0,0.0,0.0,0.0,0.0,0.0,0.0,0.0,0.0,0.0,0.0,0.0,0.0,0.0,0.0,0.0,0.0,0.0,0.0,0.0,0.0,0.0,0.0,0.0,0.0,-2.869,-2.9011,-2.8931,-2.9152,-2.9152,-2.8944,-2.7936,-2.7188,-2.6533,0.0,0.0,0.0,0.0,0.0,0.0,0.0,0.0,0.0,0.0,0.0,0.0,0.0,0.0,0.0,0.0,0.0,0.0,0.0,0.0,0.0,0.0,0.0,0.0,0.0,0.0,0.0,0.0,0.0,0.0,0.0,0.0,0.0,0.0,0.0,0.0,0.0,0.0,0.0,-3.5282,-3.5981,-3.6157,-3.5952,-3.5077,0.0,0.0,0.0,0.0,0.0,0.0,0.0,0.0,0.0,0.0,0.0,0.0,0.0,0.0,0.0,0.0,0.0,0.0,0.0,0.0,0.0,0.0,0.0,0.0,0.0,0.0,0.0,0.0,0.0,0.0,0.0,0.0,0.0,0.0,0.0,0.0,0.0,0.0,0.0,0.0,0.0,0.0,0.0,-1.4117,-1.5167,0.0,0.0,0.0,0.0,0.0,0.0,0.0,0.0,0.0,0.0,0.0,0.0,0.0,0.0,-2.7872,-2.9152,-2.9873,-2.9967,-3.157,-3.2078,-3.1597,-3.1891,-3.1998,-3.2067,-3.2064,0.0,-2.7468,-2.6814,0.0,0.0,0.0,0.0,0.0,0.0,0.0,0.0,0.0,0.0,0.0,0.0,0.0,0.0,0.0,0.0,0.0,0.0,0.0,0.0,0.0,0.0,0.0,0.0,0.0,0.0,0.0,0.0,0.0,0.0,0.0,0.0,0.0,0.0,0.0,0.0,-3.45,-3.5604,-3.6009,-3.691,-3.7287,-3.7236,-3.6458,-3.6508,-3.7061,-3.5303,0.0,0.0,0.0,0.0,0.0,0.0,0.0,0.0,0.0,0.0,0.0,0.0,0.0,0.0,0.0,0.0,0.0,0.0,0.0,0.0,0.0,0.0,0.0,0.0,0.0,0.0,0.0,0.0,0.0,0.0,0.0,0.0,0.0,0.0,0.0,0.0,0.0,0.0,0.0,-1.5678,-1.6507,-1.7382,-1.749,-1.7245,0.0,0.0,0.0,0.0,0.0,0.0,0.0,0.0,0.0,-2.6671,-2.8393,-2.9806,-3.0849,-3.2011,-3.2666,-3.2839,-3.3774,-3.4002,-3.3601,-3.3734,-3.3694,-3.3547,-3.3681,-3.2666,-3.0782,-2.9205,-2.8164,-2.7412,0.0,0.0,0.0,0.0,0.0,-3.2173,0.0,0.0,0.0,0.0,0.0,0.0,0.0,0.0,0.0,0.0,0.0,0.0,0.0,0.0,0.0,0.0,0.0,0.0,0.0,0.0,0.0,0.0,0.0,0.0,0.0,0.0,0.0,0.0,-3.6107,-3.7136,-3.7061,-3.799,-3.8616,-3.8888,-3.8505,-3.8403,-3.8454,-3.6981,-3.6069,0.0,0.0,0.0,0.0,0.0,0.0,0.0,0.0,0.0,0.0,0.0,0.0,0.0,0.0,0.0,0.0,0.0,0.0,0.0,0.0,0.0,0.0,0.0,0.0,0.0,0.0,0.0,0.0,0.0,0.0,0.0,0.0,0.0,0.0,0.0,0.0,0.0,0.0,-1.7994,-1.8993,-1.9628,-2.0413,-2.0364,0.0,0.0,0.0,0.0,0.0,0.0,-2.68,-2.7963,-2.9179,-3.0448,-3.1557,-3.2585,-3.3534,-3.4215,-3.4656,-3.4883,-3.5164,-3.5151,-3.487,-3.495,-3.483,-3.4549,-3.4549,-3.4202,-3.348,-3.1356,-2.9646,-2.8243,-2.6854,-2.7606,-2.952,-2.9771,-3.2372,-3.5994,0.0,0.0,0.0,0.0,0.0,0.0,0.0,0.0,0.0,0.0,0.0,0.0,0.0,0.0,0.0,0.0,0.0,-3.9682,0.0,0.0,0.0,0.0,0.0,0.0,0.0,0.0,0.0,-3.6229,-3.686,-3.7713,-3.8818,-3.9346,-4.0287,-4.1413,-4.1386,-4.1676,-4.1889,-3.7952,-3.7811,-3.9875,0.0,0.0,0.0,0.0,0.0,0.0,0.0,0.0,0.0,0.0,0.0,0.0,0.0,0.0,0.0,0.0,0.0,0.0,0.0,0.0,0.0,0.0,0.0,0.0,0.0,0.0,0.0,0.0,0.0,0.0,0.0,0.0,0.0,0.0,0.0,0.0,0.0,0.0,0.0,-2.1804,-2.3577,0.0,0.0,0.0,0.0,-2.5139,-2.6029,-2.7386,-2.9219,-3.0408,-3.1717,-3.3173,-3.4108,-3.475,-3.5084,-3.5124,-3.5164,-3.5177,-3.5471,-3.5458,-3.5191,-3.5458,-3.5431,-3.5151,-3.5151,-3.4817,-3.4162,-3.2625,-3.1289,-3.0114,-2.8911,-3.0603,-3.3605,-3.2949,-3.5876,-4.0179,0.0,0.0,0.0,0.0,0.0,0.0,0.0,0.0,0.0,0.0,0.0,0.0,0.0,0.0,0.0,0.0,0.0,0.0,0.0,0.0,0.0,0.0,0.0,0.0,0.0,0.0,-3.5604,-3.6885,-3.7814,-3.9067,-4.0633,-4.0378,-4.0939,-4.2168,-4.2168,-4.2751,-4.3538,-4.0895,-3.9902,-4.0012,-3.8239,-3.6987,0.0,0.0,0.0,0.0,0.0,0.0,0.0,0.0,0.0,0.0,0.0,0.0,0.0,0.0,0.0,0.0,0.0,0.0,0.0,0.0,0.0,0.0,0.0,0.0,0.0,0.0,0.0,0.0,0.0,0.0,0.0,0.0,0.0,0.0,0.0,0.0,0.0,-2.3875,-2.5798,0.0,0.0,-2.6667,-2.7428,-2.803,-2.9232,-3.0541,-3.1944,-3.2959,-3.3908,-3.4817,-3.5525,-3.5939,-3.6032,-3.6219,-3.6219,-3.6046,-3.6139,-3.5939,-3.5471,-3.5578,-3.5471,-3.5191,-3.5004,-3.4696,-3.4358,-3.5294,-3.4996,-3.3929,-3.2768,-3.4926,-3.8487,-3.7614,-3.9406,-4.2129,0.0,0.0,0.0,0.0,0.0,0.0,0.0,0.0,0.0,0.0,0.0,0.0,0.0,0.0,0.0,0.0,0.0,0.0,0.0,0.0,0.0,0.0,0.0,0.0,0.0,-3.5859,-3.7001,-3.8444,-3.9113,-4.032,-4.1909,-4.1224,-4.1591,-4.2793,-4.3062,-4.3856,-4.4953,-4.3741,-4.2422,-4.0998,-4.001,-3.9235,-3.8464,0.0,0.0,0.0,0.0,0.0,0.0,0.0,0.0,0.0,0.0,0.0,0.0,0.0,0.0,0.0,0.0,0.0,0.0,0.0,0.0,0.0,0.0,0.0,0.0,0.0,0.0,0.0,0.0,0.0,0.0,0.0,0.0,0.0,0.0,0.0,-2.4396,-2.5264,-2.7537,-2.8617,-2.7936,-2.9032,-2.9993,-3.0474,-3.1704,-3.2879,-3.3961,-3.4763,-3.5418,-3.5912,-3.65,-3.6647,-3.6366,-3.654,-3.646,-3.6059,-3.6166,-3.5952,-3.5485,-3.5485,-3.5324,-3.503,-3.4736,-3.4944,-3.5536,-3.7109,-3.8108,-3.8588,-3.5914,-3.7077,-3.9931,-3.8375,-3.9724,-4.2309,0.0,0.0,0.0,0.0,0.0,0.0,0.0,0.0,0.0,0.0,0.0,0.0,0.0,0.0,0.0,0.0,0.0,0.0,0.0,0.0,0.0,0.0,0.0,0.0,-3.5629,-3.7235,-3.8981,-4.0843,-4.0773,-4.1325,-4.2546,-4.1865,-4.2267,-4.3488,-4.415,-4.5157,-4.6279,-4.6309,-4.5173,-4.326,-4.1953,-4.1025,-4.0307,0.0,0.0,0.0,0.0,0.0,0.0,0.0,0.0,0.0,0.0,0.0,0.0,0.0,0.0,0.0,0.0,0.0,0.0,0.0,0.0,0.0,0.0,0.0,0.0,0.0,0.0,0.0,0.0,0.0,0.0,0.0,0.0,0.0,-2.1176,-2.3728,-2.5705,-2.6066,-2.8657,-3.0087,-2.9272,-3.0996,-3.2291,-3.2599,-3.344,-3.4322,-3.5191,-3.5778,-3.6233,-3.65,-3.7048,-3.6941,-3.6099,-3.6072,-3.5778,-3.5217,-3.5498,-3.5471,-3.5283,-3.5283,-3.5227,-3.5035,-3.4635,-3.5826,-3.7805,-3.7874,-4.0465,-4.3834,-3.8416,-3.7177,-3.8186,-3.5261,-3.6921,-4.0965,0.0,0.0,0.0,0.0,0.0,0.0,0.0,0.0,0.0,0.0,0.0,0.0,0.0,0.0,0.0,0.0,0.0,0.0,0.0,0.0,0.0,0.0,0.0,0.0,-3.9294,-3.9372,-4.0468,-4.2781,-4.2733,-4.3128,-4.3856,-4.3657,-4.4007,-4.4815,-4.5454,-4.5951,-4.6309,-4.683,-4.6441,-4.5263,-4.3,-4.2021,-4.1542,0.0,0.0,0.0,0.0,0.0,0.0,0.0,0.0,0.0,0.0,0.0,0.0,0.0,0.0,0.0,0.0,0.0,0.0,0.0,0.0,0.0,0.0,0.0,0.0,0.0,0.0,0.0,0.0,0.0,0.0,0.0,0.0,-2.2592,-2.3541,-2.5464,-2.7455,-2.9245,-3.0742,-3.1864,-3.2492,-3.3066,-3.3694,-3.4416,-3.4897,-3.5444,-3.6112,-3.65,-3.6727,-3.6834,-3.6767,-3.662,-3.6393,-3.6179,-3.5885,-3.5511,-3.5591,-3.6289,-3.7707,-3.7707,-3.8528,-3.9984,-3.9756,-3.9949,-4.0592,-4.1986,-4.3099,-4.3754,-4.2232,-4.2619,-4.389,-4.2168,-4.1714,-4.1958,0.0,0.0,0.0,0.0,0.0,0.0,0.0,0.0,0.0,0.0,0.0,0.0,0.0,0.0,0.0,0.0,0.0,0.0,0.0,0.0,0.0,0.0,0.0,-3.882,-4.118,-4.1315,-4.2363,-4.4303,-4.4003,-4.4362,-4.5201,-4.4908,-4.4958,-4.5334,-4.6022,-4.6279,-4.6339,-4.704,-4.71,-4.6561,-4.4766,-4.3878,-4.3309,-4.0217,-3.9409,-3.9672,-3.8422,-3.8332,-3.8721,-3.7973,0.0,0.0,0.0,0.0,0.0,0.0,0.0,0.0,0.0,0.0,0.0,0.0,0.0,0.0,0.0,0.0,0.0,0.0,0.0,0.0,0.0,0.0,0.0,0.0,-2.3174,-2.4516,-2.6079,-2.7281,-2.8791,-3.0915,-3.1824,-3.2706,-3.3788,-3.4108,-3.4523,-3.5151,-3.5698,-3.6139,-3.65,-3.6901,-3.7048,-3.6941,-3.6754,-3.7087,-3.8007,-3.7699,-3.8013,-3.8838,-3.8838,-3.9373,-4.0272,-4.0132,-4.0769,0.0,-4.1537,-4.1967,-4.2854,-4.3932,-4.4636,0.0,0.0,0.0,0.0,0.0,-4.194,-4.1019,0.0,0.0,0.0,0.0,0.0,0.0,0.0,0.0,0.0,0.0,0.0,0.0,0.0,0.0,0.0,0.0,0.0,0.0,0.0,0.0,0.0,0.0,0.0,-4.1335,-4.2192,-4.3231,-4.4349,-4.5598,-4.502,-4.5288,-4.6279,-4.5783,-4.5484,-4.5454,-4.6112,-4.6399,-4.6429,-4.707,-4.7309,-4.7249,-4.6591,-4.5873,-4.4915,-4.2432,-4.2162,-4.2901,-4.1624,-4.0606,-3.9828,-3.9619,0.0,0.0,0.0,0.0,0.0,0.0,0.0,0.0,0.0,0.0,0.0,0.0,0.0,0.0,0.0,0.0,0.0,0.0,0.0,0.0,0.0,0.0,0.0,0.0,-2.5632,-2.6373,-2.8417,-2.8978,-2.982,-3.1517,-3.2211,-3.2906,-3.3841,-3.4442,-3.491,-3.5271,-3.6112,-3.6703,-3.7128,0.0,0.0,0.0,0.0,-3.875,-4.0559,-4.0287,-4.1183,-4.3318,-4.3318,-4.3204,-4.3123,-4.279,-4.2522,-4.2412,-4.2155,-4.3131,-4.4779,-4.4743,-4.5512,-4.6395,-4.3904,-4.256,-4.1996,-4.0802,-3.9876,0.0,0.0,0.0,0.0,0.0,0.0,0.0,0.0,0.0,0.0,0.0,0.0,0.0,0.0,0.0,0.0,0.0,0.0,0.0,0.0,0.0,0.0,0.0,0.0,0.0,-4.4669,-4.4927,-4.5644,-4.6931,-4.6783,-4.6615,-4.6279,-4.6741,-4.6621,-4.6142,-4.683,-4.713,-4.713,-4.7249,-4.7309,-4.7249,-4.6591,-4.5603,-4.4347,-4.28,-4.2021,-4.1594,-4.0277,-4.0995,-4.2303,-4.0756,-4.0666,-4.0694,-3.7518,0.0,0.0,0.0,0.0,0.0,0.0,0.0,0.0,0.0,0.0,0.0,0.0,0.0,0.0,0.0,0.0,0.0,0.0,0.0,0.0,-2.6608,-2.6584,-2.7215,-2.9058,-2.9766,-3.0581,-3.1864,-3.2332,-3.2986,-3.4122,-3.4549,-3.507,-3.5845,-3.6727,-3.828,-4.076,-4.1377,0.0,-4.4233,-4.3752,-4.3453,-4.3575,-4.2927,-4.2876,-4.3318,0.0,0.0,-4.5426,-4.5355,-4.6102,-4.7533,-4.7438,-4.745,-4.7415,-4.7088,-4.6335,-4.5305,-4.4759,-4.3876,-4.2818,-4.2221,-4.1471,-4.0838,0.0,0.0,0.0,0.0,0.0,0.0,0.0,0.0,0.0,0.0,0.0,0.0,0.0,0.0,0.0,0.0,0.0,0.0,0.0,0.0,0.0,0.0,0.0,0.0,-4.6299,-4.6344,-4.6638,-4.7309,-4.7309,-4.713,-4.683,-4.716,-4.7309,-4.7309,-4.7638,-4.7788,-4.7788,-4.7788,-4.7608,-4.7279,-4.695,-4.6202,-4.5214,-4.4197,-4.3419,-4.2761,-4.2102,-4.2453,-4.311,-4.1833,-4.1632,-4.1406,-3.8521,-3.6844,-3.5374,0.0,0.0,0.0,0.0,0.0,0.0,0.0,0.0,0.0,0.0,0.0,0.0,0.0,0.0,-2.915,0.0,0.0,-2.8397,-2.9419,-2.8361,-2.8003,-2.9486,-3.0207,-3.1009,-3.2185,-3.2452,-3.3013,-3.4202,-3.471,-3.5338,-3.6219,-3.8501,-4.0563,-4.1975,-4.3872,-4.5262,-4.5778,-4.5322,-4.5402,-4.6096,-4.5628,-4.6053,-4.7365,-4.7167,-4.7473,-4.8174,-4.7872,-4.8214,-4.8867,-4.8867,-4.8496,-4.7832,-4.6973,-4.5996,-4.5,-4.4785,-4.4043,-4.3027,-4.2578,-4.2031,-4.1465,0.0,0.0,0.0,0.0,0.0,0.0,0.0,0.0,0.0,0.0,0.0,0.0,0.0,0.0,0.0,0.0,0.0,0.0,0.0,0.0,0.0,0.0,0.0,0.0,0.0,-4.7549,-4.7549,-4.7309,-4.7549,-4.7608,-4.7489,-4.7638,-4.7967,-4.8476,-4.8476,-4.8476,-4.8476,-4.8476,-4.8087,-4.7489,-4.7489,-4.701,-4.6249,-4.5843,-4.5185,-4.4436,-4.4077,-4.3389,-4.2614,-4.2079,-4.1299,-4.0305,-3.8518,-3.7524,-3.6469,-3.3427,-3.2641,0.0,0.0,0.0,0.0,0.0,0.0,0.0,0.0,0.0,-2.7793,-2.9238,-3.0488,-3.1816,-3.3379,-3.209,-3.1168,-3.2201,-3.0366,-2.9118,-2.9842,-3.0474,-3.1289,-3.2412,-3.2696,-3.308,-3.4215,-3.4857,-3.5737,-3.7101,-4.0341,-4.2785,-4.3956,-4.6588,-4.785,-4.7313,-4.6851,-4.7283,-4.8581,-4.8278,-4.9297,-5.1426,-5.1094,-5.0664,-5.0176,-4.9805,-4.9355,-4.8848,-4.8691,-4.8125,-4.7246,-4.6133,-4.5371,-4.4863,-4.4433,-4.373,-4.291,-4.2558,-4.2109,-4.1621,0.0,0.0,0.0,0.0,0.0,0.0,0.0,0.0,0.0,0.0,0.0,0.0,0.0,0.0,0.0,0.0,0.0,0.0,0.0,0.0,0.0,0.0,0.0,0.0,0.0,-4.8446,-4.8476,-4.7309,-4.8476,-4.8745,-4.8177,-4.882,-4.912,-4.9209,-4.9209,-4.9209,-4.9209,-4.9209,-4.882,-4.8177,-4.8177,-4.7429,-4.6381,-4.689,-4.6292,-4.4945,-4.3249,-4.1675,-4.0421,-4.0176,-3.9121,-3.7792,-3.751,-3.6997,-3.6198,-3.4266,0.0,-3.1537,-3.1286,-3.0572,0.0,-2.8977,-2.8348,-2.8601,0.0,0.0,-3.1523,-3.3555,-3.4726,-3.5664,-3.6621,-3.5734,-3.4469,-3.3409,-3.2216,-3.1023,-3.0047,-3.0648,-3.1517,-3.2438,-3.2772,-3.3293,-3.4229,-3.4857,-3.6477,-3.9619,-4.1373,-4.4601,-4.9724,-5.0651,-5.1795,-5.3659,-5.2833,-5.2209,-5.1578,-5.1133,-5.1134,-5.1426,-5.1387,-5.0957,-5.0176,-5.0137,-4.9648,-4.8808,-4.8047,-4.7246,-4.6406,-4.5898,-4.5195,-4.4414,-4.3965,-4.3262,-4.25,-4.2441,-4.1933,-4.123,0.0,0.0,0.0,0.0,0.0,0.0,0.0,0.0,0.0,0.0,0.0,0.0,0.0,0.0,0.0,0.0,0.0,0.0,0.0,0.0,0.0,0.0,0.0,0.0,0.0,0.0,-4.906,-4.8446,-4.906,-4.9179,-4.891,-4.9179,-4.9464,-4.9823,-4.9823,-4.9823,-4.9823,-4.9823,-4.9464,-4.888,-4.8446,-4.7511,-4.6269,-4.5464,-4.3906,-4.2236,-4.2146,-4.1222,0.0,0.0,-3.7709,-3.7327,-3.6545,-3.6204,-3.5578,-3.2773,-3.1894,0.0,-3.09,0.0,0.0,0.0,-2.9778,-3.0502,-3.2172,-3.2969,-3.3848,-3.5508,-3.6738,-3.7695,-3.8301,-3.7409,-3.5958,0.0,-3.2834,-3.1684,-3.0393,-3.0782,-3.149,-3.2198,-3.2692,-3.3334,-3.4229,-3.6363,-3.8565,-4.0827,-4.4914,-4.862,-5.1478,-5.32,-5.4244,-5.4707,-5.3828,-5.2949,-5.209,-5.1641,-5.1426,-5.1426,-5.1172,-5.0762,-5.0176,-4.9922,-4.9316,-4.8437,-4.7832,-4.709,-4.625,-4.5566,-4.4785,-4.3945,-4.3516,-4.2812,-4.207,-4.207,-4.168,-4.1172,0.0,0.0,0.0,0.0,0.0,0.0,0.0,0.0,0.0,0.0,0.0,0.0,0.0,0.0,0.0,0.0,0.0,0.0,0.0,0.0,0.0,0.0,0.0,0.0,0.0,0.0,-4.9703,-4.9523,-4.9703,-4.9703,-4.9523,-4.9733,-5.0062,-5.0465,-5.0285,-5.0285,-5.0435,-5.0255,-4.9713,-4.8932,-4.8326,-4.7186,-4.5598,-4.3808,-4.1705,-3.9812,-4.0389,-3.9453,0.0,0.0,-3.5142,-3.4941,-3.4065,-3.393,-3.3647,-3.1085,-3.0798,-3.1042,-2.9637,0.0,0.0,-3.0122,-3.1197,-3.2363,-3.3594,-3.4766,-3.5957,-3.7285,-3.8379,-3.9199,-3.9512,-3.8917,0.0,-3.4575,-3.3692,-3.2669,-3.0687,-3.0862,-3.1383,-3.181,-3.2305,-3.3229,-3.473,-3.7404,-4.0013,-4.1972,-4.731,-5.1254,-5.2848,-5.4618,-5.5312,-5.4707,-5.3711,-5.2832,-5.209,-5.1641,-5.1426,-5.1426,-5.1113,-5.0703,-5.0156,-4.9473,-4.875,-4.8008,-4.7578,-4.6855,-4.5898,-4.5156,-4.4336,-4.3476,-4.293,-4.2344,-4.1797,-4.168,-4.1426,-4.1172,0.0,0.0,0.0,0.0,0.0,0.0,0.0,0.0,0.0,0.0,0.0,0.0,0.0,0.0,0.0,0.0,0.0,0.0,0.0,0.0,0.0,0.0,0.0,0.0,0.0,0.0,0.0,-5.0166,-5.084,-5.084,-5.0166,-5.087,-5.1169,-5.1169,-5.0465,-5.0554,-5.1139,-5.0465,-4.941,-4.8173,-4.7662,-4.6196,-4.4194,-4.2482,-4.0681,-3.8878,-3.773,0.0,0.0,0.0,-3.0424,-2.9172,-2.9111,-2.951,0.0,-2.967,-2.9555,0.0,0.0,0.0,-3.0199,-3.0772,-3.209,-3.3926,-3.6074,-3.7226,-3.8203,-3.9531,-4.0156,-4.0469,-4.0488,-4.0763,-3.961,-3.5201,-3.5293,-3.4627,-3.0895,-3.0862,-3.1236,-3.1249,-3.1517,-3.2967,0.0,-3.7452,-3.9835,-4.383,-4.7283,-5.0889,-5.496,-5.4941,-5.4707,-5.4687,-5.3418,-5.2519,-5.209,-5.1641,-5.1426,-5.1426,-5.1426,-5.0976,-5.0137,-4.8848,-4.8008,-4.7578,-4.7129,-4.623,-4.5039,-4.459,-4.3887,-4.3008,-4.2168,-4.1816,-4.1758,-4.1348,-4.1191,-4.1172,0.0,0.0,0.0,0.0,0.0,0.0,0.0,0.0,0.0,0.0,0.0,0.0,0.0,0.0,0.0,0.0,0.0,0.0,0.0,0.0,0.0,0.0,0.0,0.0,0.0,0.0,0.0,-5.0196,-5.0405,-5.0405,-5.0196,-5.0405,-5.0524,-5.0524,-5.0285,-5.0315,-5.0448,-4.9357,-4.9117,-4.9157,-4.6514,-4.4952,-4.3972,-4.1495,-3.8686,-3.5981,0.0,0.0,0.0,0.0,0.0,0.0,-2.7508,0.0,0.0,-2.7321,-2.7096,-2.7064,0.0,0.0,-3.1043,-3.2623,-3.4082,-3.5644,-3.7519,-3.8613,-3.9434,-4.0156,-3.9961,-3.9551,-3.9277,-3.959,-3.8822,-3.5581,-3.6881,-3.7112,-3.3363,-3.4938,-3.5806,-3.3981,-3.6115,0.0,0.0,0.0,0.0,-4.639,-4.9939,-5.2853,-5.4844,-5.4746,-5.4687,-5.4687,-5.3398,-5.2637,-5.25,-5.1797,-5.1426,-5.1426,-5.0859,-5.0293,-4.9707,-4.8672,-4.7969,-4.7539,-4.6816,-4.5937,-4.4961,-4.4238,-4.3418,-4.2598,-4.2012,-4.1621,-4.1367,-4.123,-4.1172,-4.1172,0.0,0.0,0.0,0.0,0.0,0.0,0.0,0.0,0.0,0.0,0.0,0.0,0.0,0.0,0.0,0.0,0.0,0.0,0.0,0.0,0.0,0.0,0.0,0.0,0.0,0.0,0.0,-4.879,-4.8596,-4.8835,-4.9553,-4.9553,-4.9673,-4.9883,-4.9643,-4.9415,-4.9132,-4.809,-4.7384,-4.6811,-4.4248,-4.261,-4.1411,-3.8782,-3.6257,0.0,0.0,0.0,0.0,0.0,0.0,0.0,0.0,-2.5829,-2.6186,-2.5982,-2.6503,-2.7422,-2.8828,-3.0703,-3.2695,-3.4531,-3.5976,-3.7305,-3.873,-3.9609,-4.0156,-4.0273,-3.959,-3.875,-3.8027,-3.7988,-3.7364,-3.5354,-3.6922,-3.7626,-3.5478,-3.7247,-3.8243,-3.676,-3.8865,0.0,0.0,0.0,0.0,-4.7203,-5.0645,-5.3125,-5.416,-5.4355,-5.4531,-5.4668,-5.3398,-5.2715,-5.2715,-5.1855,-5.1367,-5.1191,-5.0351,-4.9707,-4.9258,-4.8379,-4.7754,-4.7305,-4.6445,-4.5586,-4.4726,-4.3848,-4.2969,-4.2168,-4.1738,-4.1406,-4.1172,-4.1172,-4.1172,-4.1172,0.0,0.0,0.0,0.0,0.0,0.0,0.0,0.0,0.0,0.0,0.0,0.0,0.0,0.0,0.0,0.0,0.0,0.0,0.0,0.0,0.0,0.0,0.0,0.0,-4.5065,-4.3868,-4.4127,-4.607,-4.5484,-4.6172,-4.8027,-4.8057,-4.8416,-4.903,-4.8282,-4.7657,-4.7095,-4.6321,-4.4291,-4.1607,-4.0918,-3.9284,-3.6985,-3.4776,0.0,0.0,0.0,0.0,0.0,0.0,0.0,0.0,0.0,-2.4785,-2.5771,-2.5849,-2.7715,-2.9902,-3.084,-3.293,-3.5176,-3.6484,-3.7715,-3.8828,-3.9707,-4.0176,-4.0312,-3.9883,-3.9043,-3.7988,0.0,0.0,-3.5697,-3.4704,-3.5664,-3.6772,-3.7408,-3.802,-3.873,0.0,0.0,0.0,0.0,0.0,0.0,-4.6465,0.0,-5.1992,-5.3262,-5.3769,-5.4219,-5.4629,-5.3379,-5.2715,-5.2715,-5.1836,-5.1191,-5.0762,-4.9922,-4.9277,-4.8789,-4.7969,-4.7324,-4.6855,-4.5976,-4.5137,-4.4297,-4.3379,-4.2539,-4.1758,-4.1348,-4.1172,-4.1172,-4.1152,-4.1133,-4.1133,0.0,0.0,0.0,0.0,0.0,0.0,0.0,0.0,0.0,0.0,0.0,0.0,0.0,0.0,0.0,0.0,0.0,0.0,0.0,0.0,0.0,0.0,0.0,0.0,0.0,-4.2043,-4.2372,-4.3359,0.0,-4.4107,-4.4646,-4.5095,-4.5424,0.0,-4.412,-4.3642,-4.3733,-4.1401,-4.0695,-4.0843,0.0,-3.727,-3.7563,0.0,0.0,0.0,0.0,0.0,0.0,0.0,0.0,0.0,0.0,-2.6172,-2.6934,-2.8223,-2.998,-3.1836,-3.332,-3.5371,-3.7344,-3.832,-3.8809,-3.9199,-3.9766,-3.9473,-3.8945,-3.8516,-3.6973,-3.5293,0.0,0.0,0.0,-3.5245,-3.8612,0.0,-4.0311,-4.3044,0.0,-4.3239,0.0,-4.7798,-4.8168,-4.8821,0.0,0.0,-5.0901,-5.1855,-5.2832,-5.3613,-5.4082,-5.418,-5.3223,-5.2715,-5.2715,-5.1543,-5.0762,-5.0332,-4.9785,-4.9121,-4.8359,-4.7812,-4.7168,-4.6406,-4.5234,-4.4414,-4.3789,-4.2617,-4.1992,-4.1758,-4.1348,-4.1172,-4.1133,-4.0801,-4.0684,-4.0644,0.0,0.0,0.0,0.0,0.0,0.0,0.0,0.0,0.0,0.0,0.0,0.0,0.0,0.0,0.0,0.0,0.0,0.0,0.0,0.0,0.0,0.0,0.0,0.0,0.0,0.0,0.0,0.0,0.0,0.0,0.0,-4.2432,-4.2535,-4.2345,-4.1481,-4.0666,-3.994,0.0,0.0,0.0,0.0,0.0,0.0,0.0,0.0,0.0,0.0,0.0,0.0,0.0,0.0,-2.8416,-2.839,-2.8789,-2.9609,-3.1328,0.0,-3.4434,-3.5762,-3.7422,-3.8906,-3.9394,-3.9648,-3.9648,-3.9141,-3.8789,-3.8184,-3.6797,-3.5234,0.0,0.0,0.0,0.0,0.0,0.0,0.0,-4.2499,-4.5469,-4.7476,0.0,-4.9339,0.0,-5.0937,-5.1543,-5.2031,0.0,-5.1933,-5.1933,-5.2402,-5.3262,-5.3652,-5.3457,-5.2793,-5.2246,-5.1875,-5.0976,-5.0312,-4.9883,-4.9453,-4.8769,-4.793,-4.7695,-4.7012,-4.5976,0.0,-4.4023,-4.334,-4.2246,-4.1699,-4.1504,-4.1269,-4.1055,-4.0859,-4.0605,-4.041,-4.0156,0.0,0.0,0.0,0.0,0.0,0.0,0.0,0.0,0.0,0.0,0.0,0.0,0.0,0.0,0.0,0.0,0.0,0.0,0.0,0.0,0.0,0.0,0.0,0.0,0.0,0.0,0.0,0.0,0.0,0.0,0.0,0.0,0.0,0.0,0.0,0.0,0.0,0.0,0.0,0.0,0.0,0.0,0.0,0.0,0.0,0.0,0.0,0.0,0.0,0.0,-3.127,-3.0506,-3.1166,-3.1992,-3.3008,-3.4648,-3.5976,-3.7109,-3.7949,-3.9101,-4.0059,-4.0059,-4.0293,-4.0059,-3.832,-3.8086,-3.75,-3.4902,0.0,-3.2715,-3.1484,0.0,-3.2754,-3.457,0.0,-4.0547,-4.4141,-4.6348,-4.8262,-5.0117,-5.1426,-5.2363,-5.2832,-5.3223,-5.3476,-5.3535,-5.2695,-5.2168,-5.2168,-5.293,-5.3144,-5.2637,-5.2207,-5.1621,-5.082,-5.0332,-4.9902,-4.9531,-4.9062,-4.8418,-4.7578,-4.7519,-4.6797,-4.5547,0.0,0.0,-4.293,-4.207,-4.1504,-4.1172,-4.1113,-4.0859,-4.0508,-4.0391,-4.0078,-3.9609,0.0,0.0,0.0,0.0,0.0,0.0,0.0,0.0,0.0,0.0,-3.6507,0.0,0.0,0.0,0.0,0.0,0.0,0.0,0.0,0.0,0.0,0.0,0.0,0.0,0.0,0.0,0.0,0.0,0.0,0.0,0.0,0.0,0.0,0.0,0.0,0.0,0.0,0.0,0.0,0.0,0.0,0.0,0.0,0.0,0.0,0.0,0.0,0.0,0.0,0.0,-3.3835,-3.492,-3.4255,-3.4648,-3.5625,-3.6973,-3.7773,-3.8437,-3.9316,-4.0234,-4.0957,-4.0957,-4.0742,-4.0059,-3.832,-3.7168,0.0,0.0,0.0,-3.1035,-3.0078,-3.1152,0.0,-3.5391,0.0,0.0,0.0,0.0,-4.8476,0.0,0.0,0.0,0.0,0.0,0.0,0.0,0.0,0.0,-5.2598,-5.3086,-5.3008,-5.2207,-5.1777,-5.1308,-5.0801,-5.0039,-4.9609,-4.9531,-4.9062,-4.8418,-4.7578,-4.7207,-4.6348,-4.5058,0.0,0.0,-4.248,-4.1621,-4.125,-4.1133,-4.0781,-4.0586,-4.043,-3.9707,-3.916,-3.873,0.0,0.0,0.0,0.0,0.0,0.0,0.0,0.0,0.0,0.0,-3.9685,-3.8811,0.0,0.0,0.0,0.0,0.0,0.0,0.0,0.0,0.0,0.0,0.0,0.0,0.0,0.0,0.0,0.0,0.0,0.0,0.0,0.0,0.0,0.0,0.0,0.0,0.0,0.0,0.0,0.0,0.0,0.0,0.0,0.0,0.0,0.0,0.0,0.0,0.0,0.0,-3.3826,-3.6239,-3.6336,-3.6973,-3.793,-3.9238,-3.9766,-4.0019,-4.0449,-4.1172,-4.1719,-4.1289,-4.1016,-4.0176,-3.7539,0.0,0.0,0.0,0.0,-3.041,-2.998,0.0,0.0,0.0,0.0,0.0,0.0,0.0,0.0,0.0,0.0,0.0,0.0,0.0,0.0,0.0,0.0,0.0,-5.2734,-5.248,-5.207,-5.1445,-5.1211,-5.0801,-5.0156,-4.9726,-4.9414,-4.918,-5.0194,-5.0245,-4.9352,-5.0085,-4.9512,-4.7811,0.0,0.0,-4.5062,-4.3418,-4.2713,-4.2596,-4.1048,-4.0391,-4.0117,-3.9453,-3.8945,-3.8476,0.0,0.0,0.0,0.0,0.0,0.0,0.0,-3.8003,-3.9559,-4.2261,-4.262,-4.1983,-4.0427,-3.8512,-3.7105,0.0,0.0,0.0,0.0,0.0,0.0,0.0,0.0,0.0,0.0,0.0,0.0,0.0,0.0,0.0,0.0,0.0,0.0,0.0,0.0,0.0,0.0,0.0,0.0,0.0,0.0,0.0,0.0,0.0,0.0,0.0,0.0,0.0,0.0,0.0,-3.3059,-3.5894,-3.7129,-3.8413,-3.9512,-4.0371,-4.1016,-4.1445,-4.1445,-4.2447,-4.3201,-4.2446,-4.2126,-4.1012,-3.7589,-3.5724,0.0,0.0,-3.0449,-3.0195,-3.0195,0.0,0.0,0.0,0.0,0.0,0.0,0.0,0.0,0.0,0.0,0.0,0.0,0.0,0.0,0.0,0.0,0.0,0.0,-5.1855,-5.123,-5.082,-5.0723,-5.0578,-5.0238,-5.0139,-5.0178,-5.0439,-5.2297,-5.2592,-5.1655,-5.2932,-5.2414,-5.0579,0.0,0.0,0.0,-4.5545,-4.4452,-4.3882,-4.1822,-4.0535,-3.9824,-3.916,-3.8652,-3.8184,0.0,0.0,0.0,0.0,0.0,0.0,0.0,-3.8123,-4.0277,-4.2871,-4.32,-4.314,-4.2961,-4.1235,-3.908,0.0,0.0,0.0,0.0,0.0,0.0,0.0,0.0,0.0,0.0,0.0,0.0,0.0,0.0,0.0,0.0,0.0,0.0,0.0,0.0,0.0,0.0,0.0,0.0,0.0,0.0,0.0,0.0,0.0,0.0,0.0,0.0,0.0,0.0,0.0,0.0,-3.3886,-3.5811,-3.7984,-3.9707,-3.9023,0.0,0.0,-4.2305,-4.4401,-4.6434,-4.5853,-4.4964,-4.3331,-4.0167,0.0,0.0,0.0,-3.0234,-3.0195,-3.0195,-3.0293,0.0,0.0,0.0,0.0,0.0,0.0,0.0,0.0,0.0,0.0,0.0,0.0,0.0,0.0,0.0,0.0,0.0,-5.1699,-5.123,-5.082,-5.043,-5.1069,-5.2694,-5.2298,-5.3102,-5.5158,-5.5443,-5.5018,-5.4038,-5.3331,-5.2078,-5.0557,0.0,0.0,0.0,-4.7032,-4.5701,-4.3991,-4.2983,-4.1488,-3.9746,-3.8496,-3.7773,-3.7344,0.0,0.0,0.0,0.0,0.0,0.0,0.0,-3.7793,-4.0038,-4.3439,-4.4257,-4.4496,-4.4496,-4.3449,-4.1384,0.0,0.0,0.0,0.0,0.0,0.0,0.0,0.0,0.0,0.0,0.0,0.0,0.0,0.0,0.0,0.0,0.0,0.0,0.0,0.0,0.0,0.0,0.0,0.0,0.0,0.0,0.0,0.0,0.0,0.0,0.0,0.0,0.0,0.0,0.0,0.0,0.0,-3.2657,-3.5598,0.0,0.0,-4.2418,-4.3669,-4.5616,-4.7934,-4.9605,-4.8837,-4.6548,-4.3785,-4.0912,0.0,0.0,-3.1074,-3.0391,-3.0293,-3.0566,-3.0605,-3.1172,0.0,0.0,0.0,0.0,0.0,0.0,0.0,0.0,0.0,0.0,0.0,0.0,0.0,0.0,0.0,0.0,0.0,-5.1372,-5.2096,-5.2005,-5.2848,-5.4761,-5.4565,-5.5005,-5.5856,-5.6942,-5.695,-5.595,-5.6239,-5.5284,-5.3435,0.0,0.0,0.0,-4.939,-4.8177,-4.6803,-4.3893,-4.2126,-4.0939,-3.903,-3.8047,-3.7617,0.0,0.0,0.0,0.0,0.0,0.0,-3.5878,-3.7434,-3.9679,-4.3269,-4.4466,-4.5005,-4.5005,-4.4257,-4.2521,-3.9529,0.0,0.0,0.0,0.0,0.0,0.0,0.0,0.0,0.0,0.0,-3.673,-3.7187,-3.6483,0.0,0.0,0.0,0.0,0.0,0.0,0.0,0.0,0.0,0.0,0.0,0.0,0.0,0.0,0.0,0.0,0.0,0.0,0.0,0.0,0.0,0.0,0.0,0.0,0.0,0.0,0.0,-4.301,-4.4724,-4.7403,-5.0258,-5.2194,-5.0781,-4.8024,-4.4789,0.0,0.0,0.0,-3.1269,-3.0625,-3.0508,-3.084,-3.0898,-3.1172,0.0,0.0,0.0,0.0,0.0,0.0,0.0,0.0,0.0,0.0,0.0,0.0,0.0,0.0,0.0,0.0,0.0,-5.2982,-5.4246,-5.4096,-5.4936,-5.6919,-5.6919,-5.7194,-5.7739,-5.8986,-5.8853,-5.767,-5.8238,-5.7349,0.0,0.0,0.0,0.0,-5.1272,-5.0025,-4.8802,-4.5524,-4.33,-4.1791,-4.032,-3.8897,-3.7727,0.0,0.0,0.0,0.0,0.0,0.0,0.0,-3.7135,-3.9349,-4.2081,-4.3509,-4.4317,-4.4317,-4.315,-4.2141,-4.1452,0.0,0.0,0.0,0.0,0.0,0.0,0.0,0.0,0.0,0.0,-3.6561,-3.6716,-3.6679,-3.5969,-3.4485,0.0,0.0,0.0,0.0,0.0,0.0,0.0,0.0,0.0,0.0,0.0,0.0,0.0,0.0,0.0,0.0,0.0,0.0,0.0,0.0,0.0,0.0,0.0,0.0,0.0,-4.1219,-4.5224,-4.6417,-5.0595,-5.3905,-5.1233,-4.9454,-4.6945,0.0,0.0,0.0,-3.1328,-3.0879,-3.0879,-3.0898,-3.0898,-3.1172,-3.2031,0.0,0.0,0.0,0.0,0.0,0.0,0.0,0.0,0.0,0.0,0.0,0.0,0.0,0.0,0.0,0.0,-5.6643,-5.7223,-5.6754,-5.7398,-5.9222,-5.9222,-6.0179,-6.1938,-6.1913,-6.1115,-5.9458,-5.8403,0.0,0.0,0.0,0.0,0.0,-5.2327,-5.0936,-4.8988,-4.8035,-4.5321,-4.2086,-4.2454,-4.0303,-3.7448,0.0,0.0,0.0,0.0,0.0,0.0,0.0,-3.4741,-3.654,-3.8691,-4.0127,-4.1474,-4.2821,-4.2261,-4.1841,-4.2081,0.0,0.0,0.0,0.0,0.0,0.0,0.0,0.0,0.0,0.0,-3.8066,-3.8628,-3.7889,-3.7007,-3.5999,-3.4977,-3.2507,0.0,0.0,0.0,0.0,0.0,0.0,0.0,0.0,0.0,0.0,0.0,0.0,0.0,0.0,0.0,0.0,0.0,0.0,0.0,0.0,0.0,0.0,0.0,0.0,0.0,-4.683,-4.9615,-5.1198,-4.899,-4.6289,-4.3197,-3.9606,0.0,0.0,0.0,-3.0898,-3.0898,-3.0898,-3.0898,-3.1465,-3.3184,0.0,0.0,0.0,0.0,0.0,0.0,0.0,0.0,0.0,0.0,0.0,0.0,0.0,0.0,0.0,0.0,0.0,-5.8671,-5.8508,-5.9497,-6.168,-6.131,-6.1389,-6.1994,-6.0839,-5.9633,-5.8378,-5.7248,0.0,0.0,0.0,0.0,0.0,-5.2327,-5.1512,-5.0389,-4.8459,-4.6482,-4.4595,-4.3512,-4.1183,-3.8664,0.0,0.0,0.0,0.0,0.0,0.0,0.0,-3.3634,-3.5132,-3.6836,-3.8212,-3.9798,-4.1811,-4.1175,-4.1115,-4.2291,0.0,0.0,0.0,0.0,0.0,0.0,0.0,0.0,0.0,-3.7475,-3.8269,-3.9181,-3.8346,-3.7422,-3.6333,-3.5743,-3.3247,-2.9396,-2.9621,0.0,0.0,0.0,0.0,0.0,0.0,0.0,-3.385,0.0,0.0,0.0,0.0,0.0,0.0,0.0,0.0,0.0,0.0,0.0,0.0,0.0,-4.0908,0.0,0.0,-4.8033,-4.8898,-4.6452,-4.3989,0.0,0.0,0.0,0.0,0.0,0.0,0.0,0.0,-3.0898,0.0,0.0,0.0,0.0,0.0,0.0,0.0,0.0,0.0,0.0,0.0,0.0,0.0,0.0,0.0,0.0,0.0,0.0,0.0,-6.0636,-6.0636,-6.1227,-6.2521,-6.2169,-6.1793,-6.1341,-5.9885,-5.8629,-5.7524,0.0,0.0,0.0,0.0,0.0,0.0,-5.2101,-5.1599,-5.113,-4.9156,-4.7443,-4.5841,-4.4576,-4.2038,-3.9181,0.0,0.0,0.0,0.0,0.0,0.0,0.0,0.0,0.0,0.0,-3.7375,-3.8901,-4.0853,-4.0038,-4.0127,0.0,0.0,0.0,0.0,0.0,0.0,0.0,0.0,0.0,-3.7421,-3.7099,-3.7522,-3.8699,-3.8336,-3.7321,-3.5836,-3.5679,-3.3692,-3.037,-2.9519,-2.9099,0.0,0.0,0.0,0.0,0.0,-3.4835,0.0,0.0,0.0,0.0,0.0,0.0,0.0,0.0,0.0,0.0,0.0,0.0,0.0,0.0,0.0,0.0,0.0,0.0,0.0,0.0,0.0,0.0,0.0,0.0,0.0,0.0,0.0,0.0,0.0,0.0,0.0,0.0,0.0,0.0,0.0,0.0,0.0,0.0,0.0,0.0,0.0,0.0,0.0,0.0,0.0,0.0,0.0,0.0,0.0,0.0,-6.2772,-6.2521,-6.2019,-6.1893,-6.1291,-6.0236,-5.9056,-5.7951,-5.6872,0.0,0.0,0.0,0.0,0.0,0.0,-5.1674,-5.1222,-5.1122,-5.0017,-4.8198,-4.6097,-4.5572,-4.2804,-3.9298,0.0,0.0,0.0,0.0,0.0,0.0,0.0,0.0,0.0,0.0,0.0,-3.6567,-3.7524,-3.8242,0.0,0.0,0.0,0.0,0.0,0.0,0.0,0.0,0.0,0.0,-3.7643,-3.8025,-3.843,-3.8785,-3.907,-3.8266,-3.6409,-3.7498,-3.5589,-3.1244,-3.1763,-3.1381,0.0,0.0,0.0,0.0,-3.5672,-3.5627,0.0,0.0,0.0,0.0,-3.5267,-3.6432,0.0,0.0,0.0,0.0,0.0,0.0,0.0,0.0,-3.9798,-4.0023,-4.0676,0.0,-4.1416,-3.8011,0.0,0.0,0.0,0.0,0.0,0.0,0.0,0.0,0.0,0.0,0.0,0.0,0.0,0.0,0.0,0.0,0.0,0.0,0.0,0.0,0.0,0.0,0.0,0.0,0.0,0.0,0.0,0.0,0.0,-6.222,-6.2195,-6.2144,-6.1994,-6.0738,-5.996,-5.9659,-5.7725,-5.6445,-5.5742,0.0,0.0,0.0,0.0,0.0,-5.2201,-5.1096,-5.0619,-5.0544,-4.9866,-4.8707,-4.7304,-4.5902,-4.3378,-4.0561,0.0,0.0,0.0,0.0,0.0,0.0,0.0,0.0,0.0,0.0,0.0,0.0,0.0,0.0,0.0,0.0,0.0,0.0,0.0,0.0,0.0,0.0,0.0,-3.7243,-3.6944,-3.7127,-3.7884,-3.9186,-3.8481,-3.8181,-3.8136,-3.7866,-3.5945,-3.2664,-3.2508,-3.2229,-3.2097,-3.3537,-3.3982,-3.3772,-3.485,0.0,0.0,0.0,0.0,0.0,-3.6512,-3.7573,0.0,-3.9413,-3.9697,-3.9697,0.0,0.0,0.0,0.0,-3.9521,-3.932,-3.932,-3.938,-3.8857,-3.6463,-3.554,-3.4581,0.0,0.0,0.0,0.0,0.0,0.0,0.0,0.0,0.0,0.0,0.0,0.0,0.0,0.0,0.0,0.0,0.0,0.0,0.0,0.0,0.0,0.0,0.0,0.0,0.0,0.0,0.0,0.0,-6.124,-6.0839,-6.0839,-5.9935,-5.9257,-5.873,-5.6771,-5.5666,-5.534,0.0,0.0,0.0,0.0,0.0,-5.1649,-5.077,-5.0419,-5.0368,-4.9816,-4.8912,-4.7571,-4.5124,-4.2921,-4.086,0.0,0.0,0.0,0.0,0.0,0.0,0.0,0.0,0.0,0.0,0.0,0.0,0.0,0.0,0.0,0.0,0.0,0.0,0.0,0.0,0.0,0.0,0.0,-3.6276,-3.6388,-3.5915,-3.6901,-3.9455,-3.7956,-3.8143,-3.981,-3.8126,-3.6281,-3.436,-3.3189,-3.2803,-3.3153,-3.4137,-3.3416,-3.1795,-3.4534,0.0,0.0,0.0,0.0,0.0,0.0,0.0,0.0,-3.9597,-3.9622,-3.9672,-3.9496,0.0,0.0,0.0,0.0,0.0,-3.8944,-3.8676,-3.8115,-3.6895,-3.5777,-3.455,-3.2735,0.0,0.0,0.0,0.0,0.0,0.0,0.0,0.0,0.0,0.0,0.0,0.0,0.0,0.0,0.0,0.0,0.0,0.0,0.0,0.0,0.0,0.0,0.0,0.0,0.0,0.0,0.0,-6.0085,-5.9156,-5.9006,-5.9006,-5.8504,-5.7499,-5.5892,-5.5139,-5.5089,-5.3507,0.0,0.0,0.0,0.0,-5.0971,-5.0318,-5.0092,-5.0117,-4.9665,-4.8887,-4.7633,-4.4086,-4.2186,-4.0819,0.0,0.0,0.0,0.0,0.0,0.0,0.0,0.0,0.0,0.0,0.0,0.0,0.0,0.0,0.0,0.0,0.0,0.0,0.0,0.0,0.0,0.0,-3.7112,-3.7219,-3.7714,-3.6691,-3.7124,-3.9019,-4.0042,-4.0122,-3.9266,-4.0418,-3.9192,-3.5975,-3.6194,-3.4889,-3.2614,-3.3997,-3.4406,-3.4209,-3.6317,0.0,0.0,0.0,0.0,0.0,0.0,0.0,0.0,-3.9196,-3.9295,-3.9521,-3.8567,0.0,0.0,0.0,0.0,0.0,-3.932,-3.9585,-3.9109,-3.7133,-3.7207,-3.6842,0.0,0.0,0.0,0.0,0.0,0.0,0.0,0.0,0.0,0.0,0.0,0.0,0.0,0.0,0.0,0.0,0.0,0.0,0.0,0.0,0.0,0.0,0.0,0.0,0.0,0.0,0.0,0.0,0.0,-5.7675,-5.6721,-5.6721,-5.6394,-5.5767,-5.4536,-5.3959,-5.3909,-5.2754,-5.2176,0.0,0.0,-4.9941,-4.9766,-4.8736,-4.8586,-4.9012,-4.8937,-4.8786,-4.8181,-4.4225,-4.2388,-4.1285,0.0,0.0,0.0,0.0,0.0,0.0,0.0,0.0,0.0,0.0,0.0,0.0,0.0,0.0,0.0,0.0,0.0,0.0,0.0,0.0,0.0,-3.7248,-3.6616,-3.6512,-3.7103,-3.6898,-3.7919,-4.0199,-4.0985,-4.1553,-4.184,-4.1279,-4.0267,-3.8873,-3.7241,-3.5891,-3.4818,-3.4949,-3.485,-3.4755,0.0,0.0,0.0,0.0,0.0,0.0,0.0,0.0,0.0,0.0,-3.8793,-3.917,-3.8642,0.0,0.0,0.0,0.0,0.0,-3.8191,-3.8834,-3.9149,-3.8491,-3.8816,-3.8676,0.0,0.0,0.0,0.0,0.0,0.0,0.0,0.0,0.0,0.0,0.0,0.0,0.0,0.0,0.0,0.0,0.0,0.0,0.0,0.0,0.0,0.0,0.0,0.0,0.0,0.0,0.0,0.0,0.0,0.0,-5.534,-5.5013,-5.4888,-5.4938,-5.411,-5.3557,-5.3256,-5.2477,-5.1624,-5.072,0.0,-4.9238,-4.8636,-4.8134,-4.8058,-4.8335,-4.8661,-4.8586,-4.8008,-4.5219,-4.3307,-4.1614,0.0,0.0,0.0,0.0,0.0,0.0,0.0,0.0,0.0,0.0,0.0,0.0,0.0,0.0,0.0,0.0,0.0,0.0,0.0,0.0,-3.583,-3.6935,-3.6307,-3.6307,-3.7184,-3.7287,-3.8793,-4.1731,-4.2241,-4.337,-4.4948,-4.254,-4.1406,-4.1271,-3.8684,-3.7302,-3.6935,-3.6486,-3.5933,-3.5451,0.0,0.0,0.0,0.0,0.0,0.0,0.0,0.0,0.0,0.0,0.0,0.0,0.0,0.0,0.0,-3.8668,-3.7965,-3.7236,-3.7513,-3.8391,-3.932,-3.9622,0.0,0.0,0.0,0.0,0.0,0.0,0.0,0.0,0.0,0.0,0.0,0.0,0.0,0.0,0.0,0.0,0.0,0.0,0.0,0.0,0.0,0.0,0.0,0.0,0.0,0.0,0.0,0.0,0.0,0.0,0.0,0.0,-5.4361,-5.3683,-5.3607,-5.4185,-5.3607,-5.313,-5.2703,-5.19,-5.082,-4.9565,-4.9188,-4.8535,-4.7707,-4.7581,-4.7606,-4.7782,-4.8209,-4.7996,-4.717,-4.5854,-4.3956,-4.1767,0.0,0.0,0.0,0.0,0.0,0.0,0.0,0.0,0.0,0.0,0.0,0.0,0.0,0.0,0.0,0.0,0.0,0.0,0.0,0.0,-3.5278,-3.643,-3.6835,-3.7814,-3.9421,-3.8467,-3.9546,-4.2861,-4.4928,-4.6461,-4.7436,-4.5562,-4.364,-4.1839,-4.1783,-4.0163,-3.7512,-3.8844,-3.8558,-3.7405,-3.8948,0.0,0.0,0.0,0.0,0.0,0.0,0.0,0.0,0.0,0.0,0.0,0.0,0.0,-3.8065,-3.8065,-3.7638,-3.7412,-3.8467,-3.9546,-4.0275,-3.9798,-3.9717,0.0,-4.1729,-4.134,0.0,-4.1542,0.0,0.0,0.0,0.0,0.0,0.0,0.0,0.0,0.0,0.0,0.0,0.0,0.0,0.0,0.0,0.0,0.0,0.0,0.0,0.0,0.0,0.0,0.0,0.0,0.0,0.0,-5.3758,-5.2729,-5.2503,-5.303,-5.2477,-5.2201,-5.2101,-5.0519,-4.9715,-4.9515,-4.7983,-4.7193,-4.7093,-4.6627,-4.6728,-4.7143,-4.723,-4.6549,-4.5598,-4.5469,-4.3956,-4.1918,0.0,0.0,0.0,0.0,0.0,0.0,0.0,0.0,0.0,0.0,0.0,0.0,0.0,0.0,0.0,0.0,0.0,0.0,0.0,0.0,-3.5203,-3.6355,-3.6606,-3.7511,-3.9145,-3.9772,-4.1379,-4.3991,-4.5686,-4.7507,-4.9306,-4.567,-4.3682,-4.2986,-4.0776,-3.9829,-3.9804,-3.8745,-3.8896,-3.9857,-3.974,-3.9697,0.0,0.0,0.0,0.0,0.0,0.0,0.0,0.0,-3.7437,-3.7939,0.0,-3.799,-3.8467,-3.8115,-3.7613,-3.7287,-3.7713,-3.8894,-3.9948,-3.9747,-4.0199,0.0,0.0,-4.4822,-4.5958,-4.6558,-4.8391,0.0,0.0,0.0,0.0,0.0,0.0,0.0,0.0,0.0,0.0,0.0,0.0,0.0,0.0,0.0,0.0,0.0,0.0,0.0,0.0,0.0,0.0,0.0,0.0,0.0,0.0,-5.2302,-5.185,-5.1373,-5.1147,-5.087,-5.0519,-4.954,-4.8711,-4.8033,-4.7405,-4.6928,-4.6602,-4.6401,-4.6426,-4.6652,-4.6943,-4.706,-4.6981,-4.6981,-4.6197,-4.502,0.0,0.0,0.0,0.0,0.0,0.0,0.0,0.0,0.0,0.0,0.0,0.0,0.0,0.0,0.0,0.0,0.0,0.0,-3.3907,-3.4109,-3.47,-3.578,-3.6229,-3.7109,-3.8567,-4.04,-4.2354,-4.4618,-4.6651,-4.8306,-4.95,-4.5952,-4.4328,-4.4184,-4.1139,-4.0562,-4.1727,-3.9589,-3.9574,-4.0949,-4.0074,-3.9697,0.0,0.0,0.0,0.0,0.0,0.0,0.0,0.0,-3.7059,-3.7513,0.0,0.0,0.0,0.0,-3.7889,-3.7412,-3.7236,-3.8015,-3.8994,-3.9346,0.0,0.0,-4.4995,-4.728,-4.9213,-5.0845,-5.2377,0.0,0.0,0.0,0.0,0.0,0.0,0.0,0.0,0.0,0.0,0.0,0.0,0.0,0.0,0.0,0.0,0.0,0.0,0.0,0.0,0.0,0.0,0.0,0.0,0.0,0.0,-5.1574,-5.0921,-5.0142,-4.964,-4.9364,-4.9314,-4.8586,-4.7832,-4.7043,-4.6753,-4.6401,-4.6024,-4.5849,-4.5874,-4.61,-4.6652,-4.7205,-4.7657,-4.7657,-4.7431,-4.692,0.0,0.0,0.0,0.0,0.0,0.0,0.0,0.0,0.0,0.0,0.0,0.0,0.0,0.0,0.0,0.0,0.0,0.0,-3.2738,-3.3002,-3.3571,-3.4675,-3.5755,-3.6908,-3.7965,-4.0199,-4.2379,-4.4644,-4.7933,-4.8987,-4.7857,-4.6778,-4.5999,-4.5397,-4.3714,-4.2986,-4.2911,-4.1806,-4.0974,-4.0475,-3.9923,-3.9697,-3.9697,0.0,0.0,0.0,0.0,0.0,0.0,0.0,-3.6857,-3.6707,0.0,0.0,0.0,0.0,-3.8467,-3.7889,-3.7337,-3.7186,-3.7462,0.0,0.0,0.0,-4.6928,-4.8385,-4.9891,-5.3878,0.0,-5.3105,-5.3632,0.0,0.0,0.0,0.0,0.0,0.0,0.0,0.0,0.0,0.0,0.0,0.0,0.0,0.0,0.0,0.0,0.0,0.0,0.0,0.0,0.0,0.0,0.0,0.0,-5.0419,-4.9565,-4.954,-4.7908,-4.7682,-4.8711,-4.7606,-4.7043,-4.6993,-4.5949,-4.5472,-4.5447,-4.4869,-4.497,-4.5547,-4.6075,-4.6627,-4.7043,-4.7043,-4.7043,-4.6993,0.0,0.0,0.0,0.0,0.0,0.0,0.0,0.0,0.0,0.0,0.0,0.0,0.0,0.0,0.0,0.0,0.0,0.0,-3.2738,-3.2618,-3.2968,-3.4098,-3.4826,-3.5906,-3.7387,-3.9946,-4.2755,-4.5824,-4.6803,-4.6903,-4.62,-4.5472,-4.4418,-4.3193,-4.3037,-4.276,-4.2389,-4.1229,-4.0824,-4.1,-4.0501,-4.0049,-3.9747,0.0,0.0,0.0,0.0,0.0,0.0,0.0,0.0,0.0,0.0,0.0,0.0,-3.8341,-3.814,-3.7889,-3.7337,-3.7764,0.0,0.0,0.0,0.0,0.0,0.0,0.0,0.0,0.0,0.0,0.0,0.0,0.0,0.0,0.0,0.0,0.0,0.0,0.0,0.0,0.0,0.0,0.0,0.0,0.0,0.0,0.0,0.0,0.0,0.0,0.0,0.0,0.0,0.0,0.0,0.0,-4.8033,-4.728,-4.6401,-4.6351,-4.7029,-4.6301,-4.5748,-4.5347,-4.502,-4.4895,-4.4869,-4.4694,-4.497,-4.5472,-4.5221,-4.5472,-4.5974,-4.5974,-4.5974,-4.5999,0.0,0.0,0.0,0.0,0.0,0.0,0.0,0.0,0.0,0.0,-3.262,-3.2983,0.0,0.0,0.0,0.0,0.0,0.0,0.0,0.0,-3.2164,-3.352,-3.4299,-3.5805,-3.814,-4.0249,-4.2153,-4.4016,-4.5095,-4.5121,-4.4166,-4.4945,-4.4769,-4.384,-4.4593,-4.4518,-4.3714,-4.2384,-4.163,-4.1225,-4.0752,-4.0325,-4.0049,0.0,0.0,0.0,0.0,0.0,0.0,0.0,0.0,0.0,0.0,0.0,0.0,-3.804,-3.7688,-3.7387,-3.7487,0.0,0.0,0.0,0.0,0.0,0.0,0.0,0.0,0.0,0.0,0.0,0.0,0.0,0.0,0.0,0.0,0.0,0.0,0.0,0.0,0.0,0.0,0.0,0.0,0.0,0.0,0.0,0.0,0.0,0.0,0.0,0.0,0.0,0.0,0.0,0.0,0.0,0.0,-4.5648,-4.5296,-4.497,-4.4669,-4.4995,-4.4945,-4.4618,-4.4392,-4.4166,-4.3966,-4.3966,-4.4292,-4.4794,-4.4443,-4.4644,-4.5146,-4.5146,-4.5146,-4.5196,0.0,0.0,0.0,0.0,0.0,0.0,0.0,0.0,0.0,0.0,-3.2999,-3.3691,0.0,0.0,0.0,0.0,0.0,0.0,0.0,0.0,-3.1361,-3.3111,-3.4449,-3.6609,-3.9697,-4.0752,-4.0949,-4.045,-4.2986,-4.3463,-4.2037,-4.4769,-4.605,-4.605,-4.7179,-4.7054,-4.5899,-4.4166,-4.2559,-4.11,-4.0651,-4.045,-4.045,-4.045,0.0,0.0,0.0,0.0,0.0,0.0,0.0,0.0,0.0,0.0,0.0,-3.7713,-3.7136,-3.6656,0.0,0.0,0.0,0.0,0.0,0.0,0.0,0.0,0.0,0.0,0.0,0.0,0.0,0.0,0.0,0.0,0.0,0.0,0.0,0.0,0.0,0.0,0.0,0.0,0.0,0.0,0.0,0.0,0.0,0.0,0.0,0.0,0.0,0.0,0.0,0.0,0.0,0.0,0.0,0.0,-4.4418,-4.3589,-4.2187,-4.374,-4.4418,-4.4292,-4.384,-4.3363,-4.2911,-4.2961,-4.3313,-4.379,-4.374,-4.4066,-4.4543,-4.4543,-4.4543,-4.4543,0.0,0.0,0.0,0.0,0.0,0.0,0.0,0.0,0.0,0.0,0.0,0.0,0.0,0.0,0.0,0.0,0.0,0.0,0.0,0.0,-3.1537,-3.3646,-3.686,-3.917,-4.03,-4.0576,-4.0425,-3.9873,-4.0902,-4.1003,-4.0275,-4.3037,-4.4116,-4.3765,-4.5321,-4.5146,-4.3564,-4.1455,-4.0375,-4.0049,-3.9923,-3.9873,-3.9873,-3.9873,-3.9094,0.0,0.0,0.0,0.0,0.0,0.0,0.0,-3.7036,-3.6885,-3.6606,-3.6709,-3.6558,-3.6656,0.0,0.0,0.0,0.0,0.0,0.0,0.0,0.0,0.0,0.0,0.0,0.0,0.0,0.0,0.0,0.0,0.0,0.0,0.0,0.0,0.0,0.0,0.0,0.0,0.0,0.0,0.0,0.0,0.0,0.0,0.0,0.0,0.0,0.0,0.0,0.0,-4.6024,-4.4895,-4.3991,0.0,-4.2886,-4.2283,-4.1555,-4.2785,-4.2861,-4.2003,-4.2384,-4.2489,-4.2414,-4.2866,-4.3313,-4.3765,-4.3313,-4.3489,-4.3991,-4.3991,-4.3991,-4.4041,0.0,0.0,0.0,0.0,0.0,0.0,0.0,0.0,0.0,0.0,0.0,0.0,0.0,0.0,0.0,0.0,0.0,0.0,0.0,0.0,0.0,-3.4575,-3.7638,-3.9572,-4.0124,-4.0124,-3.9722,-3.8894,-3.8919,-3.9044,-3.9371,-4.2108,-4.3388,-4.3438,-4.4869,-4.4543,-4.2861,-4.1178,-4.0174,-3.9697,-3.9697,-3.9697,-3.9697,-3.9697,-3.8818,-3.7588,-3.7287,0.0,0.0,0.0,0.0,0.0,0.0,0.0,-3.6031,-3.6307,-3.6006,-3.5931,0.0,0.0,0.0,0.0,0.0,0.0,0.0,0.0,0.0,0.0,0.0,0.0,0.0,0.0,0.0,0.0,0.0,0.0,0.0,0.0,0.0,0.0,0.0,0.0,0.0,0.0,0.0,0.0,0.0,0.0,0.0,0.0,0.0,0.0,0.0,0.0,-4.4292,-4.3689,-4.2861,-4.1806,-4.1781,-4.148,-4.0978,-4.1806,-4.1882,-4.13,-4.1907,-4.2062,-4.1831,-4.2635,-4.2986,-4.3011,-4.2986,-4.3162,-4.3413,-4.3413,-4.3413,-4.3438,0.0,0.0,0.0,0.0,0.0,0.0,0.0,0.0,0.0,0.0,0.0,0.0,0.0,0.0,0.0,0.0,0.0,0.0,0.0,0.0,0.0,0.0,-3.7814,-3.922,-3.9697,-3.9597,-3.9044,-3.8015,-3.7362,-3.7764,-3.922,-4.158,-4.3087,-4.384,-4.4669,-4.4217,-4.2735,-4.1354,-4.0249,-3.9396,-3.9295,-3.927,-3.9245,-3.9145,-3.8191,-3.6885,-3.6784,-3.6759,-3.6709,-3.6332,0.0,0.0,0.0,0.0,-3.5458,-3.5956,-3.5353,-3.5027,0.0,0.0,0.0,0.0,0.0,0.0,0.0,0.0,0.0,0.0,0.0,0.0,0.0,0.0,0.0,0.0,0.0,0.0,0.0,0.0,0.0,0.0,0.0,0.0,0.0,0.0,0.0,0.0,0.0,0.0,0.0,0.0,0.0,0.0,0.0,-4.4192,-4.271,-4.2685,-4.1957,-4.0526,-4.0877,-4.0802,-4.04,-4.0852,-4.1,-4.1025,-4.163,-4.1605,-4.1225,-4.2283,-4.2434,-4.2112,-4.2509,-4.2685,-4.2685,-4.2685,-4.2685,-4.271,0.0,0.0,0.0,0.0,0.0,0.0,0.0,0.0,0.0,0.0,0.0,0.0,0.0,0.0,0.0,0.0,0.0,0.0,-3.0608,0.0,0.0,-3.6229,-3.8391,-3.9622,-3.9697,-3.922,-3.8668,-3.8015,0.0,0.0,0.0,0.0,-4.2359,-4.379,-4.3463,-4.2911,-4.2162,-3.9546,-3.8366,-3.8191,-3.7713,-3.7513,-3.7462,-3.7033,-3.6383,-3.5658,-3.5182,-3.5052,-3.5102,-3.5483,-3.5658,0.0,0.0,0.0,-3.4806,-3.4926,-3.45,0.0,0.0,0.0,0.0,0.0,0.0,0.0,0.0,0.0,0.0,0.0,0.0,0.0,0.0,0.0,0.0,0.0,0.0,0.0,0.0,0.0,0.0,0.0,0.0,0.0,0.0,0.0,0.0,0.0,0.0,0.0,0.0,0.0,-4.3966,-4.3338,-4.2916,0.0,-4.1501,-4.1501,-4.1204,-4.0501,-4.0099,-3.9873,-3.9798,-3.9873,-3.9923,-3.9948,-4.0501,-4.0701,-4.0676,-4.125,-4.1451,-4.1401,-4.1476,-4.1501,-4.1501,-4.1501,-4.1501,-4.163,0.0,0.0,0.0,0.0,0.0,0.0,0.0,0.0,0.0,0.0,0.0,0.0,0.0,0.0,0.0,-3.0346,-3.0482,-3.0608,-3.0608,-3.2616,-3.4299,-3.5403,-3.6985,-3.8115,-3.8743,-3.7964,-3.7385,0.0,0.0,0.0,0.0,-4.03,-4.1957,0.0,-4.3514,-4.2509,-4.1505,-3.8718,-3.7387,-3.7061,-3.6508,-3.6458,-3.6707,-3.6107,-3.5708,-3.5382,-3.4575,-3.4449,-3.468,-3.465,-3.4781,-3.5082,-3.5353,0.0,0.0,0.0,-3.3872,0.0,0.0,0.0,0.0,0.0,0.0,0.0,0.0,0.0,0.0,0.0,0.0,0.0,0.0,0.0,0.0,0.0,0.0,0.0,0.0,0.0,0.0,0.0,0.0,0.0,0.0,0.0,0.0,0.0,0.0,0.0,0.0,-4.3162,-4.2635,-4.2082,-4.1831,0.0,-4.0824,-4.0824,-4.0601,-4.0049,-3.9798,-3.9697,-3.9697,-3.9697,-3.9697,-3.9722,-4.0275,-4.035,-4.0124,-4.0924,-4.11,-4.0849,-4.1175,-4.1275,-4.1275,-4.1275,-4.1275,-4.1326,0.0,0.0,0.0,0.0,0.0,0.0,0.0,0.0,0.0,0.0,0.0,0.0,0.0,0.0,0.0,0.0,-3.0532,-3.0683,-3.0809,-3.224,-3.3495,-3.4474,-3.5705,-3.6684,-3.7362,-3.6433,0.0,0.0,0.0,0.0,-4.0124,-4.0124,-4.2258,0.0,-4.4367,-4.276,-4.1125,-3.8818,-3.7437,-3.6734,-3.5683,-3.5403,-3.555,-3.5332,-3.5207,-3.4956,-3.4048,-3.4048,-3.4424,-3.3872,-3.4048,-3.455,-3.4675,-3.4248,0.0,0.0,0.0,0.0,0.0,0.0,0.0,0.0,0.0,0.0,0.0,0.0,0.0,0.0,0.0,0.0,0.0,0.0,0.0,0.0,0.0,0.0,0.0,0.0,0.0,0.0,0.0,0.0,0.0,0.0,0.0,0.0,0.0,0.0,-4.2585,-4.2032,-4.1555,-4.11,-4.0949,-4.0651,-4.0099,-4.0099,-3.9823,-3.927,-3.9421,-3.9421,-3.927,-3.9421,-3.9496,-3.9521,-4.0074,-4.0074,-3.9747,-4.0576,-4.0676,-4.035,-4.0752,-4.0874,-4.0874,-4.0874,-4.0874,-4.0899,0.0,0.0,0.0,0.0,0.0,0.0,0.0,0.0,0.0,0.0,0.0,0.0,-3.2414,-3.1741,-3.0959,-2.993,-3.0306,-3.0834,-3.1311,-3.2441,-3.3345,-3.3922,-3.555,0.0,-3.5633,-3.5056,0.0,0.0,0.0,0.0,-4.12,-4.12,-4.3589,-4.7707,-4.6075,-4.3865,-4.12,-4.0074,-3.8919,-3.7739,-3.5604,-3.4148,-3.337,-3.4374,-3.4449,-3.3897,-3.3319,-3.347,-3.3847,-3.3294,-3.3495,-3.4022,-3.455,-3.3972,-3.3162,0.0,0.0,0.0,0.0,0.0,0.0,0.0,0.0,0.0,0.0,0.0,0.0,0.0,0.0,0.0,0.0,0.0,0.0,0.0,0.0,0.0,0.0,0.0,0.0,0.0,0.0,0.0,0.0,0.0,0.0,0.0,0.0,0.0,-4.1376,-4.0902,-4.0576,-4.0551,-4.0049,-3.9521,-3.902,-3.8994,-3.8668,-3.809,-3.8642,-3.8617,-3.8115,-3.8668,-3.8969,-3.8994,-3.9496,-3.9722,-3.9697,-3.9747,-3.9772,-3.9747,-3.9772,-3.9772,-3.9772,-3.9772,-3.9772,-3.9848,0.0,0.0,0.0,0.0,0.0,0.0,0.0,0.0,0.0,0.0,0.0,0.0,0.0,-3.1504,-3.111,-3.0382,-3.0507,-3.0683,-3.0884,-3.1913,-3.2943,-3.3847,-3.4801,-3.5554,-3.6056,-3.4851,0.0,0.0,0.0,-3.3922,-3.7589,-3.8667,-4.0249,-4.2158,-4.3338,-4.3313,-4.2158,-3.8567,-3.6762,-3.6185,-3.3997,-3.3319,-3.3571,-3.3244,-3.3671,-3.4299,-3.3395,-3.3671,-3.4349,-3.3796,-3.3746,-3.3872,-3.3721,-3.3144,-3.239,-3.1712,-3.1687,0.0,0.0,0.0,0.0,0.0,0.0,0.0,0.0,0.0,0.0,0.0,0.0,0.0,0.0,0.0,0.0,0.0,0.0,0.0,0.0,0.0,0.0,0.0,0.0,0.0,0.0,0.0,0.0,0.0,0.0,0.0,-4.0802,-4.03,-3.9998,-3.9998,-3.9446,-3.8894,-3.8316,-3.8316,-3.8216,-3.8015,-3.8216,-3.8216,-3.8015,-3.8216,-3.8316,-3.8341,-3.8919,-3.9371,-3.9697,-3.9697,-3.9697,-3.9697,-3.9697,-3.9697,-3.9697,-3.9697,-3.9697,-3.9722,0.0,0.0,0.0,0.0,0.0,0.0,0.0,0.0,0.0,-3.4028,0.0,0.0,0.0,0.0,-3.1461,-3.0934,-3.0884,-3.0884,-3.0884,-3.1712,-3.2641,-3.3596,-3.4324,-3.5052,-3.578,0.0,0.0,0.0,0.0,0.0,0.0,-3.6784,-3.7965,-3.8969,-4.0199,-4.1521,0.0,0.0,0.0,-3.7286,0.0,-3.4507,-3.5383,-3.5217,-3.5974,0.0,0.0,0.0,0.0,0.0,0.0,-3.3596,-3.342,-3.2692,-3.1712,-3.0658,-3.0834,0.0,0.0,0.0,0.0,0.0,0.0,0.0,0.0,0.0,0.0,0.0,0.0,0.0,0.0,0.0,0.0,0.0,0.0,0.0,0.0,0.0,0.0,0.0,0.0,0.0,0.0,0.0,0.0,0.0,0.0,0.0,-4.0249,-3.9898,-3.9622,-3.9421,-3.8693,-3.8115,-3.7739,-3.7739,-3.7638,-3.7462,-3.7638,-3.7638,-3.7462,-3.7638,-3.7739,-3.7764,-3.8341,-3.8894,-3.9421,-3.9622,-3.9697,-3.9697,-3.9697,-3.9697,-3.9697,-3.9697,-3.9697,-3.9697,0.0,0.0,0.0,0.0,0.0,0.0,0.0,0.0,-3.6107,-3.516,0.0,0.0,0.0,0.0,0.0,-3.1512,-3.1461,-3.1461,-3.1436,-3.1938,-3.2491,-3.3111,-3.4123,-3.4655,-3.468,0.0,0.0,0.0,0.0,0.0,0.0,0.0,-3.7209,-3.8668,-3.7132,-3.8592,-4.215,0.0,-4.1834,-4.1186,0.0,-3.7645,-3.8588,0.0,0.0,0.0,-4.1302,-4.0377,0.0,-3.6522,0.0,0.0,0.0,-3.2742,-3.1185,-3.0105,-2.9804,-2.9955,0.0,0.0,0.0,0.0,0.0,0.0,0.0,0.0,0.0,0.0,0.0,0.0,0.0,0.0,0.0,0.0,0.0,0.0,0.0,0.0,0.0,0.0,0.0,0.0,0.0,0.0,0.0,0.0,0.0,-3.9697,-3.9697,-3.9672,-3.9396,-3.8894,-3.7764,-3.7186,-3.7161,-3.7161,-3.6933,-3.6405,-3.6958,-3.6885,-3.643,-3.6958,-3.7161,-3.7186,-3.7739,-3.8291,-3.8919,-3.9446,-3.9672,-3.9697,-3.9697,-3.9697,-3.9697,-3.9697,-3.9697,-3.9697,0.0,0.0,0.0,0.0,0.0,0.0,-3.6932,-3.584,-3.5329,0.0,0.0,0.0,-3.3768,-3.3219,-3.2943,-3.3194,-3.3194,-3.3043,-3.2641,-3.2742,-3.3093,-3.3646,-3.3972,-3.4299,-3.468,0.0,0.0,0.0,0.0,0.0,0.0,0.0,0.0,0.0,-3.7219,-3.8505,-3.9409,-3.7069,0.0,0.0,-3.6571,-3.669,0.0,0.0,0.0,0.0,0.0,-3.9581,-4.0039,0.0,-3.702,-3.6257,0.0,-3.2416,-3.1185,-3.0105,-3.0331,-3.0809,-3.0181,0.0,0.0,0.0,0.0,0.0,0.0,0.0,0.0,0.0,0.0,0.0,0.0,0.0,0.0,0.0,0.0,0.0,0.0,0.0,0.0,0.0,0.0,0.0,0.0,0.0,0.0,0.0,0.0,-3.9697,-3.9697,-3.932,-3.8668,-3.7688,-3.7337,-3.6985,-3.6631,-3.6631,-3.6556,-3.6405,-3.6556,-3.6556,-3.6405,-3.6556,-3.6631,-3.6656,-3.7186,-3.7513,-3.7713,-3.8693,-3.932,-3.9697,-3.9697,-3.9697,-3.9697,-3.9697,-3.9697,-3.9697,0.0,0.0,0.0,0.0,0.0,0.0,-3.8362,-3.7742,-3.7564,0.0,0.0,0.0,-3.4682,-3.4742,-3.4826,-3.4951,-3.4726,-3.4349,-3.3796,-3.3545,-3.347,-3.3545,-3.3771,-3.4148,-3.468,0.0,0.0,0.0,0.0,0.0,0.0,0.0,0.0,0.0,0.0,0.0,0.0,0.0,0.0,0.0,-3.8083,0.0,0.0,-4.0728,-4.1439,0.0,0.0,0.0,-4.1568,-3.9478,-3.828,0.0,0.0,0.0,-3.2742,-3.0733,-3.0884,-3.1512,-3.0432,-3.0984,-3.1964,0.0,0.0,0.0,0.0,0.0,0.0,0.0,0.0,0.0,0.0,0.0,0.0,0.0,0.0,0.0,0.0,0.0,0.0,0.0,0.0,0.0,0.0,0.0,0.0,0.0,-3.9954,-3.8994,-3.8994,-3.8467,-3.7864,-3.7211,-3.696,-3.6732,-3.6405,-3.6132,-3.6006,-3.6006,-3.6006,-3.6006,-3.6031,-3.6304,-3.6405,-3.643,-3.6757,-3.696,-3.7236,-3.7938,-3.8642,-3.9371,-3.9597,-3.9697,-3.9697,-3.9697,-3.9697,-3.9697,0.0,0.0,0.0,0.0,0.0,0.0,0.0,-4.0934,-4.1173,0.0,-3.9218,-3.7591,-3.6063,-3.6734,-3.7111,-3.6709,-3.606,-3.5433,-3.4806,-3.4248,-3.3646,-3.3093,-3.3545,-3.4048,-3.4525,0.0,0.0,0.0,0.0,0.0,0.0,0.0,0.0,0.0,0.0,0.0,0.0,0.0,0.0,-4.0038,-4.0756,-4.2372,0.0,0.0,-4.6064,-4.6183,-4.6045,-4.483,-4.2961,-4.0683,-3.8714,0.0,0.0,0.0,0.0,0.0,-3.1562,-3.2089,-3.116,-3.1311,-3.2064,0.0,0.0,0.0,-3.1989,-3.1763,-3.1461,0.0,0.0,0.0,0.0,0.0,0.0,0.0,0.0,0.0,0.0,0.0,0.0,0.0,0.0,0.0,0.0,0.0,0.0,-4.1353,-3.9263,-3.799,-3.7914,-3.7387,-3.7061,-3.701,-3.6458,-3.6229,-3.6229,-3.5705,-3.5408,-3.5408,-3.5408,-3.5433,-3.5508,-3.6056,-3.6355,-3.6405,-3.6405,-3.6681,-3.7086,-3.7161,-3.7814,-3.8818,-3.9396,-3.9597,-3.9622,-3.9672,-3.9697,-3.9697,-3.7336,0.0,0.0,0.0,0.0,0.0,0.0,-4.0848,-4.1175,-4.191,-4.0118,-3.8594,-3.8238,-3.799,-3.799,-3.8366,-3.7462,-3.6433,-3.5408,-3.4449,-3.3646,-3.3093,-3.3194,-3.3294,-3.3395,-3.3395,0.0,0.0,0.0,0.0,0.0,0.0,0.0,0.0,0.0,0.0,0.0,0.0,0.0,-3.7345,-3.8512,0.0,-4.4287,-4.3977,-4.4255,-4.4633,-4.3648,-4.297,-4.2364,-4.0849,-3.9247,-3.7588,0.0,0.0,0.0,-3.2918,0.0,0.0,0.0,0.0,0.0,0.0,0.0,0.0,-3.1411,-3.1512,-3.1913,0.0,0.0,0.0,0.0,0.0,0.0,0.0,0.0,0.0,0.0,0.0,0.0,0.0,0.0,0.0,0.0,0.0,-3.9002,-4.0166,-3.8877,-3.7814,-3.7362,-3.6883,-3.6307,-3.5834,-3.5328,-3.5052,-3.5052,-3.4926,-3.4831,-3.4831,-3.4831,-3.5082,-3.5508,-3.5608,-3.5956,-3.6405,-3.6405,-3.6455,-3.6606,-3.701,-3.7588,-3.8241,-3.8818,-3.9044,-3.9094,-3.9521,-3.9697,-3.9697,-3.7089,0.0,0.0,0.0,0.0,0.0,0.0,0.0,-4.3387,-4.2969,-4.1324,-3.9823,-3.8969,-3.9094,-3.927,-3.927,-3.8241,-3.7236,-3.6408,-3.5077,-3.4073,-3.352,-3.2943,-3.3043,-3.3872,-3.3068,0.0,0.0,0.0,0.0,0.0,0.0,0.0,0.0,0.0,0.0,0.0,0.0,-3.6477,-3.6686,-3.896,0.0,-4.291,-4.3569,-4.3478,-4.3026,-4.262,-4.186,-4.0875,-3.9651,-3.9069,0.0,0.0,-3.6107,-3.6408,0.0,-3.4299,-3.45,0.0,0.0,0.0,-3.3596,0.0,0.0,0.0,-3.1411,0.0,0.0,0.0,0.0,0.0,0.0,0.0,0.0,0.0,0.0,0.0,0.0,0.0,0.0,0.0,0.0,0.0,0.0,-3.832,-3.7753,-3.7394,-3.6835,-3.6006,-3.5705,-3.5403,-3.5107,-3.4831,-3.468,-3.468,-3.4449,-3.4299,-3.4299,-3.4299,-3.4449,-3.4705,-3.5257,-3.5658,-3.5981,-3.6279,-3.6405,-3.643,-3.6707,-3.6935,-3.7262,-3.8115,-3.8617,-3.8944,-3.917,-3.9446,-3.9697,-3.6827,0.0,0.0,0.0,0.0,0.0,0.0,0.0,-4.5217,-4.3298,-4.1903,-4.0588,-3.9373,-3.9973,-4.0501,-4.0475,-3.8868,-3.7839,-3.7839,-3.578,-3.4324,-3.3771,-3.2867,-3.3003,-3.4312,-3.314,-3.3081,0.0,0.0,0.0,0.0,0.0,0.0,0.0,0.0,0.0,0.0,0.0,0.0,-3.6926,0.0,-4.0995,-4.1205,-4.2942,-4.2609,-4.1341,-4.1575,-4.0683,-3.922,-3.8316,0.0,-3.8743,-3.6056,-3.691,0.0,0.0,0.0,0.0,0.0,0.0,0.0,0.0,0.0,-3.352,0.0,0.0,0.0,0.0,0.0,0.0,0.0,0.0,0.0,0.0,0.0,0.0,0.0,0.0,0.0,0.0,0.0,0.0,0.0,0.0,-3.7266,-3.5324,-3.5629,-3.5504,-3.46,-3.4575,-3.464,-3.4863,-3.4539,-3.4488,-3.4686,-3.4079,-3.3746,-3.3746,-3.3746,-3.3847,-3.4098,-3.4931,-3.5458,-3.5683,-3.6182,-3.6405,-3.6405,-3.6405,-3.6405,-3.6505,-3.7462,-3.814,-3.8617,-3.8668,-3.9044,-3.9546,-3.7712,-3.8871,0.0,0.0,0.0,0.0,0.0,0.0,-4.386,-4.1959,-4.0683,-4.0003,-4.0275,-4.045,-4.1279,-4.3162,-3.9622,-3.809,-4.0023,0.0,-3.3746,-3.3194,0.0,-3.2988,-3.3012,-3.3366,-3.3542,0.0,0.0,0.0,0.0,0.0,0.0,0.0,-3.4801,0.0,0.0,0.0,-3.6207,0.0,-3.902,-3.9649,0.0,-4.0654,-4.0576,-3.982,-3.8873,-3.8362,-3.8165,0.0,-3.7764,-3.7412,0.0,-3.6483,-3.5984,0.0,0.0,0.0,0.0,0.0,0.0,0.0,-3.5353,0.0,0.0,0.0,0.0,0.0,0.0,0.0,0.0,0.0,0.0,0.0,0.0,0.0,0.0,0.0,0.0,0.0,0.0,0.0,0.0,0.0,0.0,-3.4098,-3.4148,-3.4123,-3.3997,-3.3997,-3.4456,-3.5372,-3.4058,-3.3734,-3.4695,-3.3683,-3.3212,-3.3212,-3.3212,-3.3696,-3.4625,-3.4751,-3.5353,-3.6329,-3.638,-3.6405,-3.6405,-3.6405,-3.6405,-3.6455,-3.7036,-3.7312,-3.7437,-3.7914,-3.8467,-3.902,-3.6248,-3.7184,-3.815,0.0,0.0,0.0,0.0,0.0,0.0,-4.1255,-4.0561,-4.0501,-4.1379,0.0,0.0,-4.4303,0.0,-4.1145,0.0,0.0,-3.7491,-3.7685,0.0,0.0,-3.5791,-3.51,-3.4684,-3.4719,-3.4847,0.0,0.0,0.0,0.0,0.0,-3.4474,0.0,-3.516,0.0,0.0,0.0,0.0,0.0,0.0,-3.9266,-3.9578,-3.8612,-3.7453,-3.7462,-3.7864,0.0,-3.7061,0.0,0.0,0.0,0.0,0.0,0.0,0.0,0.0,0.0,0.0,0.0,0.0,0.0,-3.2039,0.0,-3.1185,0.0,0.0,0.0,0.0,0.0,0.0,0.0,0.0,0.0,0.0,0.0,0.0,0.0,0.0,0.0,0.0,0.0,0.0,0.0,0.0,-3.3627,-3.3292,-3.417,-3.4641,-3.4436,-3.4194,-3.3953,-3.3742,-3.3629,-3.3545,-3.3545,-3.3872,-3.4274,-3.4726,-3.5006,-3.5454,-3.5906,-3.6279,-3.6405,-3.6405,-3.6405,-3.6405,-3.643,-3.6656,-3.6958,-3.7211,-3.7437,-3.7889,-3.8417,-3.5127,-3.5944,-3.6967,0.0,0.0,0.0,0.0,0.0,0.0,0.0,0.0,0.0,-4.2837,-4.3252,0.0,0.0,-4.5393,-4.4432,0.0,0.0,-4.038,0.0,0.0,0.0,0.0,-3.6615,-3.6033,-3.5925,0.0,0.0,0.0,0.0,0.0,0.0,0.0,-3.4681,-3.4622,0.0,0.0,-3.6025,-3.606,-3.5554,-3.5038,-3.7427,-3.7781,-3.6864,-3.6155,-3.6433,-3.6935,-3.5683,-3.606,0.0,-3.5658,0.0,0.0,0.0,0.0,0.0,-3.6193,0.0,0.0,0.0,0.0,0.0,0.0,0.0,0.0,0.0,0.0,0.0,0.0,0.0,0.0,0.0,0.0,0.0,0.0,0.0,0.0,0.0,0.0,0.0,0.0,0.0,0.0,0.0,-3.3052,0.0,-3.2729,-3.417,-3.4765,-3.414,-3.4324,-3.4147,-3.3556,-3.3644,-3.3671,-3.3671,-3.4223,-3.4575,-3.4751,-3.5257,-3.5583,-3.578,-3.6182,-3.6405,-3.6405,-3.6405,-3.6405,-3.6405,-3.6405,-3.6656,-3.696,-3.696,-3.7312,-3.7839,-3.5294,-3.6055,0.0,0.0,0.0,0.0,0.0,0.0,0.0,0.0,0.0,0.0,0.0,0.0,0.0,0.0,0.0,-4.7258,-4.8613,0.0,-4.0594,0.0,0.0,-3.9168,0.0,0.0,-3.7325,0.0,0.0,0.0,0.0,0.0,0.0,0.0,0.0,-3.6148,-3.7195,-3.6028,-3.6207,-3.7216,-3.5676,-3.4774,-3.4424,0.0,-3.4408,-3.4092,-3.4575,0.0,0.0,-3.4731,-3.4776,0.0,0.0,0.0,0.0,0.0,0.0,0.0,0.0,0.0,0.0,-3.4965,0.0,0.0,0.0,0.0,-3.2014,0.0,0.0,0.0,0.0,0.0,-3.2792,-3.224,0.0,0.0,0.0,0.0,0.0,0.0,0.0,0.0,0.0,0.0,0.0,0.0,-3.2847,0.0,-3.2552,-3.3688,-3.4596,-3.5212,-3.4246,-3.4015,-3.4609,-3.3666,-3.3136,-3.3119,-3.3671,-3.4198,-3.4751,-3.5257,-3.583,-3.638,-3.6405,-3.6405,-3.6405,-3.6405,-3.6405,-3.6405,-3.6405,-3.6405,-3.643,-3.643,-3.6782,-3.7211,-3.6081,-3.6656,0.0,0.0,0.0,0.0,0.0,-3.7479,0.0,0.0,0.0,0.0,0.0,0.0,-5.1682,0.0,0.0,-5.1316,-5.1116,-4.8243,0.0,0.0,0.0,-4.3466,0.0,0.0,0.0,0.0,0.0,0.0,0.0,0.0,0.0,0.0,0.0,-3.531,0.0,0.0,0.0,0.0,0.0,-3.4158,-3.4434,0.0,0.0,-3.4305,-3.4486,-3.5072,0.0,-3.5763,-3.6218,-3.6796,-3.6796,-3.7053,-3.7296,-3.7106,-3.7617,0.0,0.0,0.0,-3.8928,-3.6634,0.0,0.0,0.0,0.0,0.0,0.0,0.0,0.0,0.0,0.0,-3.5063,-3.3948,-3.4059,-3.3843,0.0,0.0,0.0,0.0,0.0,0.0,0.0,0.0,0.0,-3.1703,-3.2236,-3.2642,0.0,-3.4277,-3.4781,-3.4075,-3.4519,-3.4206,-3.3053,-3.346,-3.3621,-3.3621,-3.4173,-3.455,-3.4726,-3.4881,-3.5102,-3.5278,-3.5278,-3.5278,-3.5303,-3.568,-3.5805,-3.5855,-3.6254,-3.6405,-3.6405,-3.6405,-3.6531,-3.6732,-3.6237,0.0,0.0,0.0,0.0,0.0,0.0,0.0,0.0,0.0,-4.5562,0.0,-5.2291,0.0,-5.4455,0.0,-5.5508,-5.4325,-5.2677,-5.093,0.0,-4.7997,-4.7369,0.0,0.0,0.0,0.0,0.0,0.0,-3.8542,0.0,0.0,0.0,0.0,0.0,0.0,0.0,0.0,-3.5729,0.0,0.0,-3.3928,0.0,0.0,-3.39,-3.4821,0.0,-3.5289,-3.5945,-3.5945,-3.6401,-3.6974,-3.6974,-3.7189,-3.751,-3.751,-3.8126,-3.8785,-3.8729,-3.9252,0.0,-3.7591,-3.7007,0.0,-3.4381,0.0,0.0,0.0,0.0,0.0,0.0,0.0,-3.6358,-3.536,-3.5059,-3.4691,0.0,-3.3325,0.0,0.0,0.0,0.0,0.0,0.0,-3.2227,-3.1746,-3.2274,-3.2788,0.0,0.0,-3.4264,-3.344,-3.4083,-3.3688,-3.2215,-3.3144,-3.3596,-3.3621,-3.4173,-3.4424,-3.4424,-3.4625,-3.468,-3.468,-3.468,-3.468,-3.4731,-3.5282,-3.5508,-3.5558,-3.6132,-3.6405,-3.6405,-3.6405,-3.6405,-3.648,0.0,0.0,0.0,0.0,-3.6241,0.0,0.0,0.0,-4.338,0.0,-4.7186,-5.0275,-5.4033,-5.501,-5.6372,-5.8782,-5.7842,0.0,-5.3443,-5.2037,0.0,0.0,-4.8027,-4.713,-4.4526,0.0,0.0,0.0,0.0,0.0,0.0,0.0,0.0,0.0,-3.6985,0.0,-3.5489,-3.6118,-3.5995,-3.5299,-3.438,-3.4036,-3.4099,-3.4007,0.0,-3.5492,-3.5349,-3.5311,-3.5339,-3.5339,-3.5339,-3.5415,-3.5415,-3.6062,-3.6843,-3.6872,-3.8502,-4.0038,-3.8811,-3.9888,-4.0688,-3.7878,0.0,0.0,0.0,0.0,-3.7078,0.0,0.0,0.0,0.0,0.0,0.0,-3.633,-3.593,-3.5629,-3.5538,0.0,0.0,0.0,0.0,0.0,0.0,-3.367,-3.337,-3.2065,-3.2869,0.0,0.0,0.0,0.0,-3.3294,-3.3001,-3.2642,-3.2164,-3.2767,-3.3111,-3.3136,-3.3621,-3.3847,-3.3872,-3.4399,-3.465,-3.465,-3.465,-3.465,-3.463,-3.5232,-3.5458,-3.5508,-3.6132,-3.6405,-3.6405,-3.6405,-3.6405,-3.648,-3.6862,-3.7181,-3.7777,0.0,-3.6862,-3.5859,0.0,0.0,0.0,0.0,-5.0909,-5.3791,-5.61,-5.7446,-5.797,-5.7663,-5.7304,0.0,0.0,0.0,0.0,-4.9538,-4.9194,-4.8237,-4.6591,-4.6052,0.0,-4.306,0.0,0.0,-3.9379,0.0,0.0,0.0,0.0,0.0,-3.4773,-3.4953,-3.4507,-3.3736,-3.3907,-3.4589,0.0,0.0,-3.5212,-3.6716,-3.5475,-3.5301,-3.5736,-3.5736,-3.6245,-3.6881,-3.6881,-3.7022,-3.7321,-3.786,-3.8424,-3.905,-3.9709,-4.0247,-4.0479,-3.9713,-3.929,-3.8773,0.0,0.0,0.0,0.0,0.0,0.0,0.0,0.0,0.0,-3.7344,-3.6227,-3.5518,0.0,0.0,0.0,0.0,0.0,0.0,0.0,0.0,-3.3439,-3.3114,-3.2437,0.0,0.0,0.0,0.0,-3.2116,-3.3274,-3.3184,-3.1628,-3.2591,-3.3111,-3.3111,-3.3262,-3.3294,-3.3294,-3.3445,-3.3495,-3.3495,-3.3495,-3.3495,-3.3571,-3.4525,-3.4881,-3.4981,-3.5981,-3.6405,-3.6405,-3.6405,-3.6405,-3.643,-3.6816,0.0,0.0,-4.0636,0.0,0.0,-4.1405,0.0,0.0,-4.9168,-5.2414,0.0,-5.5338,-5.6825,-5.7393,-5.6346,-5.5987,0.0,0.0,0.0,0.0,-4.9883,-4.9194,-4.8356,-4.7339,-4.6082,0.0,-4.3858,0.0,0.0,-3.9379,0.0,0.0,0.0,0.0,-3.513,0.0,-3.4503,-3.4335,-3.4145,-3.4204,0.0,0.0,-3.4936,-3.5448,-3.647,-3.5482,-3.5605,-3.6166,-3.6166,-3.6542,-3.7015,-3.7015,-3.7015,-3.7135,-3.7764,-3.7973,-3.8123,-3.8871,-3.929,-3.9529,-3.9529,-3.9469,-3.932,-3.8931,-3.9439,-3.9593,0.0,0.0,0.0,0.0,0.0,0.0,-3.7285,-3.6387,0.0,0.0,0.0,0.0,0.0,0.0,0.0,0.0,0.0,0.0,0.0,0.0,0.0,0.0,0.0,0.0,0.0,-3.2917,-3.2762,-3.1427,-3.2742,-3.3319,-3.3111,-3.3111,-3.3111,-3.3111,-3.3111,-3.3111,-3.3111,-3.3111,-3.3111,-3.3144,-3.3997,-3.45,-3.4826,-3.5931,-3.6405,-3.6405,-3.6405,-3.6405,-3.6405,0.0,0.0,0.0,0.0,0.0,0.0,0.0,-4.677,0.0,-5.0196,0.0,-5.4072,-5.3384,-5.479,-5.5508,-5.485,0.0,-5.3324,-5.2157,-5.1439,-5.0541,-4.9359,-4.8566,-4.7848,-4.7189,-4.5125,0.0,0.0,0.0,0.0,0.0,0.0,0.0,0.0,0.0,0.0,0.0,-3.4474,-3.4771,0.0,-3.4771,-3.4981,-3.5519,-3.5519,-3.5519,-3.5519,-3.5519,-3.5878,-3.6357,-3.6357,-3.6357,-3.6357,-3.6357,-3.6357,-3.6477,-3.7105,-3.7285,-3.7315,-3.7375,-3.7823,-3.8272,-3.8272,-3.8721,-3.9134,-3.9134,-3.923,-3.929,-3.929,-3.9349,0.0,0.0,0.0,0.0,0.0,0.0,0.0,0.0,0.0,0.0,0.0,0.0,0.0,0.0,0.0,0.0,0.0,0.0,0.0,0.0,0.0,0.0,0.0,-3.2215,0.0,-3.1486,0.0,-3.352,-3.3194,-3.3119,-3.3111,-3.3111,-3.3111,-3.3111,-3.3111,-3.3111,-3.3111,-3.3162,-3.3671,-3.4274,-3.4926,-3.5956,-3.6405,-3.6405,-3.6405,-3.6405,-3.6405,0.0,0.0,0.0,0.0,0.0,-4.5574,-4.7489,-4.8416,-4.9643,-5.1588,-5.3713,0.0,-5.4102,-5.3832,-5.3443,-5.2785,-5.2127,0.0,0.0,0.0,0.0,-4.9329,-4.8117,-4.716,-4.6501,-4.4018,-4.268,0.0,0.0,0.0,0.0,0.0,0.0,0.0,0.0,0.0,-3.3694,-3.4264,0.0,-3.3933,-3.4921,-3.54,-3.5519,-3.5519,-3.5519,-3.5519,-3.5519,-3.5579,-3.5669,-3.5669,-3.5669,-3.5669,-3.5669,-3.5669,-3.5818,-3.6447,-3.6656,-3.6776,-3.7255,-3.7494,-3.7584,-3.7584,-3.7674,-3.7764,-3.7764,-3.8182,-3.8571,-3.8571,-3.902,-3.926,-3.8691,0.0,0.0,0.0,0.0,0.0,0.0,0.0,0.0,0.0,0.0,0.0,0.0,0.0,0.0,0.0,0.0,0.0,0.0,0.0,0.0,0.0,0.0,0.0,0.0,0.0,0.0,-3.3746,-3.3294,-3.3111,-3.3111,-3.3111,-3.3111,-3.3111,-3.3111,-3.3111,-3.3162,-3.3671,-3.45,-3.5433,-3.6107,-3.6405,-3.6405,-3.6405,-3.6405,-3.6405,0.0,0.0,0.0,0.0,0.0,0.0,0.0,-4.9553,0.0,-5.105,-5.2037,-5.2366,-5.1708,-5.1947,-5.1887,-5.1229,-5.0571,-5.0212,-5.0212,-4.9583,-4.9075,-4.8775,-4.7489,0.0,-4.6279,-4.306,-4.1833,-4.288,0.0,0.0,0.0,0.0,0.0,0.0,0.0,-3.3664,0.0,0.0,0.0,-3.4084,-3.4711,-3.519,-3.5519,-3.5519,-3.5519,-3.5519,-3.5519,-3.5519,-3.5519,-3.5519,-3.5519,-3.5519,-3.5519,-3.5519,-3.5579,-3.5878,-3.5968,-3.6028,-3.6357,-3.6656,-3.6926,-3.6926,-3.7165,-3.7404,-3.7404,-3.7644,-3.7973,-3.8332,-3.8661,-3.8901,-3.8901,-3.7853,0.0,0.0,0.0,0.0,0.0,0.0,0.0,0.0,0.0,0.0,0.0,0.0,0.0,0.0,0.0,0.0,0.0,0.0,0.0,0.0,0.0,0.0,0.0,0.0,0.0,-3.347,-3.3194,-3.3111,-3.3111,-3.3683,-3.3641,-3.3111,-3.3683,-3.3598,-3.3162,-3.3671,-3.4198,-3.4751,-3.5303,-3.568,-3.5931,-3.5931,-3.6107,-3.6405,0.0,-4.3472,0.0,0.0,-4.624,0.0,0.0,-5.0016,-5.0345,-5.0764,-5.0315,-4.9942,-4.9703,-5.0212,-5.0391,-4.9837,-4.9224,-4.888,-4.888,-4.8356,-4.8087,-4.8087,-4.68,-4.6112,-4.6112,-4.2372,-4.1085,0.0,0.0,0.0,0.0,0.0,0.0,0.0,0.0,0.0,0.0,0.0,-3.4024,-3.4503,-3.4683,-3.5011,-3.5519,-3.5519,-3.5519,-3.5519,-3.5519,-3.5519,-3.5519,-3.5519,-3.5519,-3.5519,-3.5519,-3.5519,-3.5519,-3.5519,-3.5519,-3.5519,-3.5519,-3.5878,-3.6267,-3.6267,-3.6656,-3.7015,-3.7015,-3.7105,-3.7404,-3.8033,-3.8392,-3.8721,-3.914,-3.8332,0.0,0.0,0.0,0.0,0.0,0.0,0.0,0.0,0.0,0.0,0.0,0.0,0.0,0.0,0.0,0.0,0.0,0.0,0.0,0.0,0.0,0.0,-3.1945,0.0,-3.4816,0.0,-3.3607,-3.3556,-3.3784,-3.4204,-3.4037,-3.3471,-3.4079,-3.3869,-3.3162,-3.3671,-3.3972,-3.4123,-3.4675,-3.5182,-3.5683,-3.5683,-3.5981,-3.6405,0.0,0.0,0.0,0.0,0.0,0.0,0.0,-4.9494,-5.0823,-5.2665,-5.084,-4.9793,-5.09,-4.9553,-4.8536,-4.8476,-4.7878,-4.7489,-4.7489,-4.7429,-4.7399,-4.7399,-4.6112,-4.5394,-4.5394,-4.2102,-4.0187,0.0,0.0,0.0,0.0,0.0,0.0,0.0,0.0,0.0,0.0,-3.3934,-3.4444,-3.4563,-3.516,-3.5459,-3.5519,-3.5519,-3.5519,-3.5519,-3.5519,-3.5519,-3.5519,-3.5519,-3.5519,-3.5519,-3.5519,-3.5519,-3.5519,-3.5519,-3.5519,-3.5519,-3.5519,-3.5549,-3.5579,-3.5579,-3.5639,-3.5699,-3.5699,-3.6148,-3.6746,-3.7375,-3.8482,-3.914,-3.8571,-3.8392,-3.7943,0.0,0.0,0.0,0.0,0.0,0.0,0.0,0.0,0.0,0.0,0.0,0.0,0.0,0.0,0.0,0.0,0.0,0.0,0.0,0.0,-3.3098,-3.3594,-3.4206,0.0,-3.6702,-3.5245,-3.5061,-3.5854,-3.4053,-3.3725,-3.4511,-3.3641,-3.3197,-3.3162,-3.3671,-3.4198,-3.47,-3.5207,-3.5805,-3.6329,-3.6329,-3.6355,-3.6405,0.0,0.0,0.0,0.0,0.0,0.0,0.0,-4.8985,-4.9494,-5.0707,-4.9958,-4.9509,-5.0002,-4.8985,-4.8297,-4.8297,-4.7339,-4.689,-4.7279,-4.6561,-4.6292,-4.6681,-4.5424,-4.4706,-4.4706,-4.1893,-4.0277,0.0,0.0,0.0,0.0,0.0,0.0,0.0,0.0,-3.3455,-3.3724,-3.4294,-3.4503,-3.4563,-3.522,-3.5519,-3.5519,-3.5519,-3.5519,-3.5519,-3.5519,-3.5519,-3.5519,-3.5519,-3.5519,-3.5519,-3.5519,-3.5519,-3.5519,-3.5519,-3.5519,-3.5519,-3.5519,-3.5519,-3.5519,-3.5519,-3.5519,-3.5519,-3.5519,-3.5699,-3.6178,-3.7195,-3.8482,-3.92,-3.8512,-3.8392,-3.8212,0.0,0.0,0.0,0.0,0.0,0.0,0.0,0.0,0.0,0.0,0.0,0.0,0.0,0.0,0.0,0.0,0.0,0.0,-3.2122,0.0,-3.4676,-3.4174,-3.5302,-3.6069,-3.6531,-3.5911,-3.5814,-3.6172,-3.5359,-3.4856,-3.4635,-3.3556,-3.3269,-3.3596,-3.3796,-3.4641,-3.5737,-3.5546,-3.6524,-3.7838,-3.6746,-3.6787,-3.7335,-4.1501,0.0,-4.3995,0.0,-4.6131,-4.7644,-4.882,-4.8566,-4.8446,-4.897,-4.8805,-4.882,-4.9,-4.8386,-4.7997,-4.7997,-4.698,-4.6531,-4.698,-4.5933,-4.5514,-4.5992,-4.4915,0.0,-4.4317,-4.1923,-4.0487,-4.0098,-3.7853,0.0,0.0,0.0,0.0,0.0,-3.3006,-3.3484,-3.4234,-3.4414,-3.4623,-3.4863,-3.531,-3.5519,-3.5519,-3.5519,-3.5519,-3.5519,-3.5519,-3.5519,-3.5519,-3.5519,-3.5519,-3.5519,-3.5519,-3.5519,-3.5519,-3.5519,-3.5519,-3.5519,-3.5519,-3.5519,-3.5519,-3.5519,-3.5519,-3.5519,-3.5519,-3.5519,-3.5818,-3.6926,-3.8033,-3.8691,-3.8182,-3.8093,-3.8033,-3.7853,0.0,0.0,0.0,0.0,0.0,0.0,-3.4412,-3.4053,-3.3275,0.0,0.0,0.0,0.0,0.0,0.0,0.0,0.0,0.0,0.0,0.0,0.0,0.0,-3.6929,-3.6854,-3.6715,-3.6838,-3.7137,-3.6799,-3.5961,-3.4677,-3.3911,-3.393,-3.4521,-3.4272,-3.5115,-3.663,-3.6186,-3.7079,-3.8473,-3.687,-3.6832,-3.7408,-4.0578,-4.167,-4.3049,-4.5046,-4.6379,-4.7433,-4.8209,-4.8297,-4.8297,-4.8297,-4.7728,-4.7578,-4.8237,-4.7698,-4.7309,-4.7309,-4.6711,-4.6279,-4.6279,-4.5693,-4.5304,0.0,0.0,-4.4317,-4.4317,-4.2372,-4.0726,-3.9403,0.0,0.0,-3.4503,0.0,-3.4113,-3.3514,-3.4204,-3.4144,-3.3544,-3.4234,-3.4861,-3.5489,-3.5519,-3.5519,-3.5519,-3.5519,-3.5519,-3.5519,-3.5519,-3.5519,-3.5519,-3.5519,-3.5519,-3.5519,-3.5519,-3.5519,-3.5519,-3.5519,-3.5519,-3.5519,-3.5519,-3.5519,-3.5519,-3.5519,-3.5519,-3.5519,-3.5519,-3.5519,-3.5699,-3.6357,-3.6985,-3.7434,-3.7434,-3.7434,-3.7225,-3.6596,0.0,0.0,0.0,0.0,0.0,0.0,-3.5639,-3.5429,-3.2766,0.0,0.0,0.0,0.0,0.0,0.0,0.0,0.0,-3.2141,-3.4322,0.0,-3.4998,-3.6601,-3.7699,-3.8357,-3.7965,-3.836,-3.9337,-3.8256,-3.6632,-3.4718,-3.4718,-3.5238,-3.6093,-3.5102,-3.5655,-3.707,-3.707,-3.7428,-3.777,-3.6694,-3.6305,-3.6236,-4.1278,-4.3006,-4.4621,-4.5281,-4.6443,-4.7036,-4.6398,-4.7052,-4.6978,-4.5263,-4.6328,-4.6886,-4.5756,-4.6237,-4.6621,0.0,-4.5603,-4.5334,0.0,-4.4825,-4.4167,-4.4616,-4.3988,-4.3449,-4.3,-4.1961,-4.0516,-3.8721,0.0,0.0,0.0,-3.4294,-3.4144,-3.3514,-3.4204,-3.4653,-3.4891,-3.51,-3.531,-3.5519,-3.5519,-3.5519,-3.5519,-3.5519,-3.522,-3.4861,-3.534,-3.522,-3.4891,-3.534,-3.5519,-3.5519,-3.5519,-3.5519,-3.5519,-3.5519,-3.5519,-3.5519,-3.5519,-3.5519,-3.5519,-3.5519,-3.5519,-3.5519,-3.5519,-3.5848,-3.6118,-3.5878,-3.6656,-3.7285,-3.6866,-3.7135,-3.7195,-3.6596,0.0,0.0,0.0,0.0,0.0,0.0,0.0,-3.3933,0.0,-3.3125,0.0,0.0,0.0,0.0,0.0,0.0,0.0,0.0,-3.5568,0.0,-3.6635,-3.7595,-3.8422,-3.908,-3.8964,-3.8694,-3.8294,-3.7956,-3.7021,-3.5694,-3.5694,-3.6141,-3.6807,-3.647,-3.7315,-3.8745,-3.8292,-3.9021,-4.0031,-3.8104,-3.7679,-3.7898,-4.2079,-4.3598,-4.4892,-4.5593,-4.6197,-4.6211,-4.5162,-4.5544,-4.5298,-4.3693,-4.5096,-4.5639,-4.415,-4.4945,0.0,-4.5903,-4.4945,0.0,-4.5514,-4.4127,-4.3379,-4.3569,-4.318,-4.2671,-4.2051,0.0,0.0,-3.8781,-3.7614,-3.6088,-3.4262,-3.4681,-3.4651,-3.4262,-3.4681,-3.51,-3.5519,-3.5519,-3.5519,-3.5519,-3.5519,-3.5519,-3.5519,-3.5519,-3.525,-3.4921,-3.534,-3.522,-3.4921,-3.537,-3.5519,-3.5519,-3.5519,-3.5519,-3.5519,-3.5519,-3.5519,-3.5519,-3.5519,-3.5519,-3.5519,-3.5519,-3.5519,-3.5519,-3.5519,-3.5818,-3.5998,-3.5579,-3.6148,-3.6567,-3.6178,-3.6417,-3.6567,-3.6178,0.0,-3.5878,0.0,0.0,0.0,0.0,0.0,0.0,0.0,-3.3634,0.0,0.0,0.0,0.0,0.0,0.0,0.0,-3.5489,-3.6148,0.0,-3.7404,-3.8063,-3.8601,-3.902,-3.929,-3.8952,-3.8189,-3.8335,-3.7958,-3.7136,-3.6911,-3.7247,-3.7926,-3.7535,-3.8193,-3.9498,-3.906,-3.9622,-4.0345,-3.8098,-3.751,-3.7632,-4.291,-4.3543,0.0,0.0,-4.5625,0.0,-4.4199,-4.3686,-4.3318,-4.3271,-4.3867,-4.4106,-4.3372,-4.3914,-4.4556,-4.5095,0.0,0.0,0.0,-4.3618,-4.3,-4.241,-4.2351,0.0,-4.1324,-4.0726,-4.0038,-3.9254,-3.7404,-3.6148,-3.5519,-3.5519,-3.5519,-3.5519,-3.5519,-3.5519,-3.5519,-3.5519,-3.5519,-3.5519,-3.5519,-3.5519,-3.5519,-3.5519,-3.5459,-3.5429,-3.5489,-3.5459,-3.5429,-3.5489,-3.5519,-3.5519,-3.5519,-3.5519,-3.5519,-3.5519,-3.5519,-3.5519,-3.5519,-3.5519,-3.5519,-3.5519,-3.5519,-3.5519,-3.5519,-3.5519,-3.5519,-3.5519,-3.5519,-3.5519,-3.5519,-3.5519,-3.5519,-3.5519,-3.5459,-3.522,-3.4653,0.0,0.0,0.0,0.0,0.0,0.0,-3.4563,-3.4563,0.0,0.0,0.0,0.0,0.0,-3.4921,-3.5549,-3.6237,-3.6896,-3.7464,-3.8123,-3.8452,-3.8482,-3.911,-3.9203,-3.8832,-3.921,-3.9195,-3.8794,-3.8178,-3.8472,-3.9301,-3.8323,-3.8509,-3.9373,-3.9373,-3.9373,-3.9156,-3.7127,-3.6385,-3.6151,0.0,0.0,-4.4506,-4.4894,-4.3706,-4.2268,-4.1117,-4.1663,-4.1818,-4.0796,-4.2513,-4.3488,-4.274,-4.3649,-4.4167,-4.3798,-4.3618,-4.3738,-4.4287,-4.324,-4.256,-4.241,-4.1931,-4.1294,-4.0636,-4.0487,-3.9559,-3.7883,-3.6956,-3.6148,-3.5519,-3.5519,-3.5519,-3.5519,-3.5519,-3.5519,-3.5519,-3.5519,-3.5519,-3.5519,-3.5519,-3.5519,-3.5519,-3.5519,-3.519,-3.4771,-3.531,-3.516,-3.4801,-3.534,-3.5519,-3.5519,-3.5519,-3.5519,-3.5519,-3.5519,-3.5519,-3.5519,-3.5519,-3.5519,-3.5519,-3.5519,-3.5519,-3.5519,-3.5519,-3.5519,-3.5519,-3.5519,-3.5519,-3.5519,-3.5519,-3.5519,-3.5519,-3.5519,-3.507,-3.4831,-3.522,0.0,0.0,0.0,-3.4653,-3.4651,-3.4533,-3.4951,-3.525,0.0,0.0,0.0,0.0,0.0,-3.6088,-3.6237,-3.7345,-3.8003,-3.8153,-3.8841,-3.917,-3.917,-3.9313,-3.9354,-3.9254,-3.9361,-3.9354,-3.9254,-3.9076,-3.9192,-3.9373,-3.9156,-3.9192,-3.9373,-3.9373,-3.9373,-3.9288,-3.8438,-3.8108,-3.7997,-4.124,-4.1993,-4.2552,-4.281,-4.1799,-4.0607,-3.962,-4.0274,-4.0622,-3.9876,-4.1702,-4.2898,-4.2438,-4.3254,-4.3678,-4.3319,-4.329,-4.3439,-4.3798,-4.291,-4.2261,-4.1961,-4.1294,-4.0636,-3.9978,-3.9649,-3.8661,-3.6985,-3.6656,-3.6148,-3.5519,-3.5519,-3.5519,-3.5519,-3.5519,-3.5519,-3.5519,-3.5519,-3.5519,-3.5519,-3.5519,-3.5519,-3.5519,-3.5519,-3.528,-3.4981,-3.537,-3.528,-3.5011,-3.537,-3.5519,-3.5519,-3.5519,-3.5519,-3.5519,-3.5519,-3.5519,-3.5519,-3.5519,-3.5519,-3.5519,-3.5519,-3.5519,-3.5519,-3.5519,-3.5519,-3.5519,-3.5519,-3.5519,-3.5519,-3.5519,-3.5519,-3.54,-3.507,-3.4743,-3.4414,-3.4173,-3.4023,0.0,-3.4054,-3.4562,-3.4951,-3.4951,-3.528,-3.5519,-3.5519,0.0,0.0,-3.5938,-3.6567,-3.6896,-3.6896,-3.7883,-3.8542,-3.8841,-3.923,-3.9373,-3.9373,-3.9373,-3.9589,-3.9858,-3.9559,-3.9589,-3.9858,-3.9523,-3.9373,-3.9373,-3.9373,-3.9373,-3.9373,-3.9373,-3.9373,-3.9294,-3.8559,-3.8294,-3.8198,-3.947,-3.9785,-3.9954,-4.0422,-3.9872,-3.9192,-3.86,-3.8966,-3.9423,-3.9753,-4.1096,-4.2181,-4.252,-4.2994,-4.329,-4.329,-4.32,-4.314,-4.314,-4.2581,-4.1961,-4.1265,-4.0606,-3.9948,-3.9254,-3.8601,-3.7674,-3.6477,-3.6477,-3.6148,-3.5519,-3.5519,-3.5519,-3.5519,-3.5519,-3.5519,-3.5519,-3.5519,-3.5519,-3.5519,-3.5519,-3.5519,-3.5519,-3.5519,-3.5519,-3.5519,-3.5519,-3.5519,-3.5519,-3.5519,-3.5519,-3.5519,-3.5519,-3.5519,-3.5519,-3.5519,-3.5519,-3.5519,-3.5519,-3.5519,-3.5519,-3.5519,-3.5519,-3.5519,-3.5519,-3.5519,-3.5519,-3.5639,-3.5579,-3.5519,-3.5639,-3.5579,-3.531,-3.4711,-3.4563,-3.4114,-3.2976,0.0,-3.4294,-3.3694,-3.4741,-3.5549,-3.5639,-3.5639,-3.5699,-3.5789,-3.5789,0.0,0.0,-3.7225,-3.7554,-3.7554,-3.8212,-3.8811,-3.9373,-3.9373,-3.9373,-3.9373,-3.9373,-3.9709,-4.0217,-3.9679,-3.9738,-4.0217,-3.9679,-3.9373,-3.9373,-3.9373,-3.9373,-3.9373,-3.9373,-3.9373,-3.9301,-3.8397,-3.8032,-3.7919,-3.9177,-3.925,-3.9243,-3.9348,-3.8013,-3.689,-3.6814,-3.689,-3.764,-3.9615,-4.015,-4.1015,-4.2968,-4.323,-4.329,-4.329,-4.2821,-4.256,-4.256,-4.1931,-4.1272,-4.0576,-3.9918,-3.926,-3.8571,-3.7913,-3.7195,-3.6477,-3.6477,-3.6148,-3.5519,-3.5519,-3.5519,-3.5519,-3.5519,-3.5519,-3.5519,-3.5519,-3.5519,-3.5519,-3.5519,-3.5519,-3.5519,-3.5519,-3.5519,-3.5519,-3.5519,-3.5519,-3.5519,-3.5519,-3.5519,-3.5519,-3.5519,-3.5519,-3.5519,-3.5519,-3.5519,-3.5519,-3.5519,-3.5519,-3.5519,-3.5519,-3.5519,-3.5519,-3.5519,-3.5519,-3.5669,-3.6207,-3.5878,-3.5669,-3.6237,-3.5878,-3.5459,-3.537,-3.4861,-3.4444,-3.4234,0.0,-3.4474,-3.4384,-3.5011,-3.5729,-3.6267,-3.6327,-3.6537,-3.7075,-3.7105,-3.7165,-3.7255,-3.7883,-3.8242,-3.8242,-3.8901,-3.9284,-3.9373,-3.9373,-3.9373,-3.9373,-3.9373,-3.9433,-3.9559,-3.9433,-3.9433,-3.9559,-3.9433,-3.9373,-3.9373,-3.9373,-3.9373,-3.9373,-3.9373,-3.9373,-3.9373,-3.9228,-3.9156,-3.9156,-3.7676,-3.7676,-3.7676,-3.7676,-3.6934,-3.6405,-3.6405,-3.7474,-3.8649,-3.9782,-4.0986,-4.214,-4.321,-4.329,-4.329,-4.329,-4.2731,-4.2261,-4.1901,-4.1205,-4.0726,-4.0397,-3.9768,-3.8931,-3.7883,-3.7225,-3.6596,-3.5968,-3.5968,-3.5789,-3.5519,-3.5519,-3.5519,-3.5519,-3.5519,-3.5519,-3.5519,-3.5519,-3.5519,-3.5519,-3.5519,-3.5519,-3.5519,-3.5519,-3.5519,-3.5519,-3.5519,-3.5519,-3.5519,-3.5519,-3.5519,-3.5519,-3.5519,-3.5519,-3.5519,-3.5519,-3.5519,-3.5519,-3.5519,-3.5519,-3.5519,-3.5519,-3.5519,-3.5519,-3.5519,-3.5519,-3.5699,-3.6357,-3.6237,-3.6118,-3.6417,-3.6237,-3.5789,-3.507,-3.4382,0.0,0.0,-3.4294,-3.4503,-3.4503,-3.54,-3.6148,-3.6447,-3.6477,-3.6746,-3.7375,-3.7404,-3.7554,-3.7913,-3.8212,-3.8571,-3.8931,-3.926,-3.9373,-3.9373,-3.9373,-3.9373,-3.9373,-3.9373,-3.9373,-3.9373,-3.9373,-3.9373,-3.9373,-3.9373,-3.9373,-3.9373,-3.9373,-3.9373,-3.9373,-3.9373,-3.9373,-3.9373,-3.9373,-3.9373,-3.9373,-3.6405,-3.6405,-3.6405,-3.6405,-3.6405,-3.6405,-3.6405,-3.8134,-3.9579,-3.9842,-4.1657,-4.2961,-4.308,-4.312,-4.306,-4.2841,-4.2282,-4.1722,-4.1175,-4.0546,-4.0157,-4.0157,-3.9529,-3.8691,-3.7644,-3.6896,-3.6237,-3.5729,-3.5579,-3.5519,-3.5519,-3.5519,-3.5519,-3.5519,-3.5519,-3.5519,-3.5519,-3.5519,-3.5519,-3.5519,-3.5519,-3.5519,-3.5519,-3.5519,-3.5519,-3.5519,-3.5519,-3.5519,-3.5519,-3.5519,-3.5519,-3.5519,-3.5519,-3.5519,-3.5519,-3.5519,-3.5519,-3.5519,-3.5519,-3.5519,-3.5519,-3.5519,-3.5609,-3.5729,-3.5729,-3.5848,-3.6118,-3.6776,-3.6806,-3.6746,-3.6896,-3.6806,-3.6327,-3.5162,0.0,0.0,0.0,-3.4532,-3.4983,-3.4983,-3.5998,-3.6746,-3.6926,-3.6926,-3.7195,-3.7823,-3.7883,-3.8093,-3.8601,-3.8631,-3.8871,-3.9373,-3.9373,-3.9373,-3.9373,-3.9373,-3.9373,-3.9373,-3.9373,-3.9373,-3.9373,-3.9373,-3.9373,-3.9373,-3.9373,-3.9373,-3.9373,-3.9373,-3.9373,-3.9373,-3.9373,-3.9373,-3.9373,-3.9373,-3.9373,-3.9373,-3.6405,-3.6405,-3.6405,-3.6405,-3.6405,-3.6405,-3.6405,-3.7448,-3.8649,-3.9754,-4.0958,-4.1919,-4.2414,-4.247,-4.2231,-4.1564,-4.0935,-4.0516,-4.0487,-3.9858,-3.9463,-3.9463,-3.8841,-3.8422,-3.8332,-3.7105,-3.6477,-3.6417,-3.5789,-3.5519,-3.5519,-3.5519,-3.5519,-3.5519,-3.5519,-3.5519,-3.5519,-3.5519,-3.5519,-3.5519,-3.5519,-3.5519,-3.5519,-3.5519,-3.5519,-3.5519,-3.5519,-3.5519,-3.5519,-3.5519,-3.5519,-3.5519,-3.5519,-3.5519,-3.5519,-3.5519,-3.5519,-3.5519,-3.5519,-3.5519,-3.5519,-3.5519,-3.5968,-3.6417,-3.6417,-3.6866,-3.7464,-3.8123,-3.7764,-3.7524,-3.8153,-3.7764,-3.7135,-3.6447,0.0,0.0,-3.5429,-3.5938,-3.6327,-3.6327,-3.6926,-3.7584,-3.8182,-3.8242,-3.8542,-3.9194,-3.926,-3.9254,-3.9313,-3.9349,-3.9379,-3.9373,-3.9373,-3.9373,-3.9373,-3.9373,-3.9373,-3.9373,-3.9373,-3.9373,-3.9373,-3.9373,-3.9373,-3.9373,-3.9373,-3.9373,-3.9373,-3.9373,-3.9373,-3.9373,-3.9373,-3.9373,-3.9373,-3.9373,-3.9373,-3.9373,-3.6405,-3.6405,-3.6405,-3.6405,-3.6405,-3.6405,-3.6405,-3.7637,-3.8924,-3.9814,-4.0802,-4.1705,-4.2342,-4.2021,-4.1692,-4.1414,-4.0161,-3.9702,-4.036,-3.915,-3.8694,-3.9373,-3.8751,-3.8392,-3.8392,-3.7524,-3.6866,-3.6477,-3.6237,-3.5908,-3.5519,-3.5519,-3.5519,-3.5519,-3.5519,-3.5519,-3.5519,-3.5519,-3.5519,-3.5519,-3.5519,-3.5519,-3.5519,-3.5519,-3.5519,-3.5519,-3.5519,-3.5519,-3.5519,-3.5519,-3.5519,-3.5519,-3.5519,-3.5519,-3.5519,-3.5519,-3.5519,-3.5519,-3.5519,-3.5519,-3.5609,-3.5998,-3.6297,-3.6596,-3.6956,-3.7255,-3.7584,-3.8242,-3.8182,-3.8093,-3.8332,-3.8182,-3.7793,-3.7165,0.0,-3.6537,-3.6656,-3.6896,-3.7075,-3.7075,-3.7614,-3.8123,-3.8362,-3.8392,-3.8691,-3.9379,-3.9373,-3.9373,-3.9373,-3.9373,-3.9373,-3.9373,-3.9373,-3.9373,-3.9373,-3.9373,-3.9373,-3.9373,-3.9373,-3.9373,-3.9373,-3.9373,-3.9373,-3.9373,-3.9373,-3.9373,-3.9373,-3.9373,-3.9373,-3.9373,-3.9373,-3.9373,-3.9373,-3.9373,-3.9373,-3.9373,-3.638,-3.6405,-3.6405,-3.6405,-3.6405,-3.6355,-3.6132,-3.7411,-3.8601,-3.9235,-3.9951,-4.0646,-4.1222,-4.0837,-4.0368,-3.9827,-3.9302,-3.9153,-3.9557,-3.878,-3.862,-3.9373,-3.896,-3.8601,-3.8392,-3.7734,-3.7105,-3.6477,-3.6267,-3.5938,-3.5519,-3.5519,-3.5519,-3.5519,-3.5519,-3.5519,-3.5519,-3.5519,-3.5519,-3.5519,-3.5519,-3.5519,-3.5519,-3.5519,-3.5519,-3.5519,-3.5519,-3.5519,-3.5519,-3.5519,-3.5519,-3.5519,-3.5519,-3.5519,-3.5519,-3.5519,-3.5519,-3.5519,-3.5519,-3.5519,-3.5669,-3.6327,-3.6626,-3.6956,-3.7584,-3.7883,-3.8182,-3.8631,-3.8721,-3.8721,-3.8721,-3.8721,-3.8482,-3.7823,-3.7375,-3.7225,-3.7674,-3.7704,-3.7793,-3.8003,-3.8422,-3.8721,-3.8721,-3.8721,-3.8901,-3.9379,-3.9373,-3.9373,-3.9373,-3.9373,-3.9373,-3.9373,-3.9053,-3.8907,-3.8907,-3.9228,-3.9228,-3.8907,-3.9228,-3.9228,-3.8907,-3.9265,-3.9373,-3.9373,-3.9373,-3.9373,-3.9373,-3.9373,-3.9373,-3.9373,-3.9373,-3.9373,-3.9373,-3.9373,-3.9373,-3.9373,-3.6279,-3.6405,-3.6405,-3.6405,-3.6405,-3.6182,-3.5583,-3.6528,-3.7508,-3.7992,-3.8117,-3.8346,-3.8744,-3.8803,-3.809,-3.6385,-3.8182,-3.8943,-3.7852,-3.8804,-3.9373,-3.9373,-3.9373,-3.908,-3.8392,-3.7734,-3.7105,-3.6477,-3.5818,-3.5519,-3.5519,-3.5519,-3.5519,-3.5519,-3.5519,-3.5519,-3.5519,-3.5519,-3.5519,-3.5519,-3.5519,-3.5519,-3.5519,-3.5519,-3.5519,-3.5519,-3.5519,-3.5519,-3.5519,-3.5519,-3.5519,-3.5519,-3.5519,-3.5519,-3.5519,-3.5519,-3.5519,-3.5519,-3.5519,-3.5519,-3.5669,-3.6327,-3.6956,-3.7584,-3.8242,-3.8931,-3.9373,-3.9373,-3.9373,-3.9373,-3.9373,-3.9373,-3.92,-3.8512,-3.8392,-3.8392,-3.8392,-3.8392,-3.8661,-3.9313,-3.9373,-3.9373,-3.9373,-3.9373,-3.9373,-3.9373,-3.9373,-3.9373,-3.9373,-3.9373,-3.9373,-3.9373,-3.836,-3.7805,-3.7805,-3.8833,-3.8833,-3.7805,-3.887,-3.8833,-3.7843,-3.8907,-3.9373,-3.9373,-3.9373,-3.9373,-3.9373,-3.9373,-3.9373,-3.9373,-3.9373,-3.9373,-3.9373,-3.9373,-3.9373,-3.9373,-3.5177,-3.5203,-3.5203,-3.5203,-3.5529,-3.5558,-3.5006,-3.5889,-3.6707,-3.6952,-3.688,-3.7007,-3.7606,-3.7937,-3.7863,-3.7357,-3.7919,-3.7941,-3.7143,-3.7647,-3.8003,-3.8003,-3.8452,-3.8601,-3.8392,-3.7734,-3.7105,-3.6477,-3.6297,-3.5968,-3.5519,-3.5519,-3.5519,-3.5519,-3.5519,-3.5519,-3.5519,-3.5519,-3.5519,-3.5519,-3.5519,-3.5519,-3.5519,-3.5519,-3.5519,-3.5519,-3.5519,-3.5519,-3.5519,-3.5519,-3.5519,-3.5519,-3.5519,-3.5519,-3.5519,-3.5519,-3.5519,-3.5519,-3.5519,-3.5848,-3.6357,-3.6985,-3.7285,-3.7704,-3.8841,-3.926,-3.9373,-3.9373,-3.9373,-3.9373,-3.9373,-3.9373,-3.9313,-3.914,-3.911,-3.911,-3.911,-3.911,-3.92,-3.9409,-3.9373,-3.9373,-3.9373,-3.9373,-3.9373,-3.9373,-3.9373,-3.9373,-3.9373,-3.9373,-3.9053,-3.8294,-3.7956,-3.7434,-3.6682,-3.6993,-3.6993,-3.6682,-3.6993,-3.6993,-3.6682,-3.6993,-3.7587,-3.8256,-3.8256,-3.8694,-3.9373,-3.9373,-3.9373,-3.9373,-3.9373,-3.9373,-3.9373,-3.9373,-3.9373,-3.9373,-3.4675,-3.468,-3.468,-3.468,-3.4956,-3.4981,-3.4474,-3.4926,-3.5479,-3.5732,-3.5322,-3.529,-3.6117,-3.6777,-3.7021,-3.6593,-3.7092,-3.7416,-3.7441,-3.7386,-3.7524,-3.7793,-3.7704,-3.7644,-3.7644,-3.7255,-3.6746,-3.6088,-3.6088,-3.5908,-3.5519,-3.5519,-3.5519,-3.5519,-3.5519,-3.5519,-3.5519,-3.5519,-3.5519,-3.5519,-3.5519,-3.5519,-3.5519,-3.5519,-3.5519,-3.5519,-3.5519,-3.5519,-3.5519,-3.5519,-3.5519,-3.5519,-3.5519,-3.5519,-3.5519,-3.5519,-3.5519,-3.5579,-3.5818,-3.6178,-3.6686,-3.7584,-3.7793,-3.8093,-3.9134,-3.9373,-3.9373,-3.9373,-3.9373,-3.9373,-3.9373,-3.9373,-3.9373,-3.9373,-3.9373,-3.9373,-3.9373,-3.9373,-3.9373,-3.9373,-3.9373,-3.9373,-3.9373,-3.9373,-3.9373,-3.9373,-3.9373,-3.9373,-3.9373,-3.9373,-3.8907,-3.7843,-3.7396,-3.6671,-3.5614,-3.5197,-3.5197,-3.5614,-3.6013,-3.6013,-3.5614,-3.6013,-3.6565,-3.7175,-3.7625,-3.8182,-3.8797,-3.9228,-3.9373,-3.9373,-3.9373,-3.9373,-3.9373,-3.9373,-3.9373,-3.9373,-3.4474,-3.4575,-3.4575,-3.4575,-3.4625,-3.4449,-3.3897,-3.3872,-3.4063,-3.4507,-3.3725,-3.3471,-3.447,-3.5561,-3.5814,-3.4897,-3.6123,-3.731,-3.8267,-3.7734,-3.7614,-3.8123,-3.7075,-3.6447,-3.6387,-3.6387,-3.6118,-3.5519,-3.5519,-3.5519,-3.5519,-3.5519,-3.5519,-3.5519,-3.5519,-3.5519,-3.5519,-3.5519,-3.5519,-3.5519,-3.5519,-3.5519,-3.5519,-3.5519,-3.5519,-3.5519,-3.5519,-3.5519,-3.5519,-3.5519,-3.5519,-3.5519,-3.5519,-3.5519,-3.5519,-3.5519,-3.5519,-3.5639,-3.6297,-3.6537,-3.6866,-3.8093,-3.8452,-3.8631,-3.926,-3.9373,-3.9373,-3.9373,-3.9373,-3.9373,-3.9373,-3.9373,-3.9373,-3.9373,-3.9373,-3.9373,-3.9373,-3.9373,-3.9373,-3.9373,-3.9373,-3.9373,-3.9373,-3.9373,-3.9373,-3.9373,-3.9373,-3.9373,-3.9373,-3.9301,-3.8797,-3.7701,-3.6604,-3.5601,-3.4594,-3.3598,-3.3598,-3.4594,-3.5521,-3.544,-3.4594,-3.5521,-3.5974,-3.6132,-3.7175,-3.7701,-3.7881,-3.8943,-3.9373,-3.9373,-3.9373,-3.9373,-3.9373,-3.9373,-3.9373,-3.9373,-3.342,-3.3445,-3.3445,-3.3445,-3.3796,-3.3897,-3.3345,-3.3621,-3.3784,-3.3462,-3.324,-3.3197,-3.3428,-3.5075,-3.6132,-3.5894,-3.7209,-3.7942,-3.7609,-3.7494,-3.7015,-3.6178,-3.6357,-3.6237,-3.5729,-3.5729,-3.5639,-3.5519,-3.5519,-3.5519,-3.5519,-3.5519,-3.5519,-3.5519,-3.5519,-3.5519,-3.5519,-3.5519,-3.5519,-3.5519,-3.5519,-3.5519,-3.5519,-3.5519,-3.5519,-3.5519,-3.5519,-3.5519,-3.5519,-3.5519,-3.5519,-3.5519,-3.5519,-3.5519,-3.5519,-3.5519,-3.5519,-3.5639,-3.6297,-3.6836,-3.7404,-3.8182,-3.8781,-3.923,-3.9379,-3.9373,-3.9373,-3.9373,-3.9373,-3.9373,-3.9373,-3.9373,-3.9373,-3.9373,-3.9373,-3.9373,-3.9373,-3.9373,-3.9373,-3.9373,-3.9373,-3.9373,-3.9373,-3.9373,-3.9373,-3.9373,-3.9373,-3.9373,-3.9373,-3.8583,-3.7663,-3.6565,-3.5561,-3.4511,-3.3471,-3.324,-3.324,-3.3428,-3.3683,-3.3683,-3.3428,-3.3658,-3.422,-3.5102,-3.6093,-3.7021,-3.7881,-3.8943,-3.9373,-3.9373,-3.9373,-3.9373,-3.9373,-3.9373,-3.9373,-3.9373,-3.3111,-3.3111,-3.3111,-3.3111,-3.3319,-3.3395,-3.3162,-3.3319,-3.3395,-3.3162,-3.3111,-3.3111,-3.3111,-3.4526,-3.5854,-3.6905,-3.7828,-3.8242,-3.7913,-3.7315,-3.6806,-3.6417,-3.6148,-3.577,-3.5247,-3.4953,-3.4773,-3.4773,-3.4341,-3.4138,-3.4138,-3.4576,-3.4773,-3.4806,-3.5294,-3.5519,-3.5519,-3.5519,-3.5519,-3.5519,-3.5519,-3.5519,-3.5519,-3.5519,-3.5519,-3.5519,-3.5519,-3.5519,-3.5519,-3.5519,-3.5519,-3.5519,-3.5519,-3.5519,-3.5519,-3.5519,-3.5519,-3.5699,-3.6656,-3.7165,-3.7644,-3.8631,-3.914,-3.9373,-3.9373,-3.9373,-3.9499,-3.9828,-3.9649,-3.9529,-3.9828,-3.9619,-3.9373,-3.9373,-3.9373,-3.9373,-3.9373,-3.9373,-3.9373,-3.9373,-3.9373,-3.9373,-3.9373,-3.9373,-3.9373,-3.9373,-3.9373,-3.9192,-3.8657,-3.8107,-3.7088,-3.5521,-3.4979,-3.4204,-3.3111,-3.3111,-3.3111,-3.3111,-3.3111,-3.3111,-3.3111,-3.3111,-3.3386,-3.3995,-3.5034,-3.6053,-3.7137,-3.8182,-3.8943,-3.9373,-3.9373,-3.9373,-3.9373,-3.9373,-3.9373,-3.9373,-3.3111,-3.3111,-3.3111,-3.3111,-3.3111,-3.3111,-3.3111,-3.3111,-3.3111,-3.3111,-3.3111,-3.3043,-3.2943,-3.3923,-3.5385,-3.7481,-3.8032,-3.8275,-3.8242,-3.7345,-3.6896,-3.7075,-3.5982,-3.5226,-3.4825,-3.3962,-3.3602,-3.3774,-3.2982,-3.2593,-3.2629,-3.3394,-3.3842,-3.4041,-3.4872,-3.5359,-3.5519,-3.5519,-3.5519,-3.5519,-3.5519,-3.5519,-3.5519,-3.5519,-3.5519,-3.5519,-3.5519,-3.5519,-3.5519,-3.5519,-3.5519,-3.5519,-3.5519,-3.5519,-3.5519,-3.5519,-3.5519,-3.5789,-3.7075,-3.7404,-3.7734,-3.9044,-3.9373,-3.9373,-3.9373,-3.9373,-3.9589,-4.0127,-3.9888,-3.9738,-4.0307,-4.0038,-3.9709,-3.9619,-3.9553,-3.9559,-3.9439,-3.9373,-3.9373,-3.9373,-3.9373,-3.9373,-3.9373,-3.9373,-3.9373,-3.9373,-3.9228,-3.873,-3.7843,-3.7472,-3.6476,-3.4759,-3.4511,-3.3995,-3.3111,-3.3111,-3.3111,-3.3111,-3.3111,-3.3111,-3.3111,-3.3111,-3.3111,-3.3154,-3.422,-3.5156,-3.6013,-3.7098,-3.8069,-3.8841,-3.9053,-3.9017,-3.8907,-3.9053,-3.9228,-3.9373,-3.3111,-3.3111,-3.3111,-3.3111,-3.3111,-3.3111,-3.3111,-3.3111,-3.3111,-3.3111,-3.3111,-3.2893,-3.239,-3.326,-3.4775,-3.6897,-3.7589,-3.7755,-3.7545,-3.7913,-3.7434,-3.5818,-3.5321,-3.4784,-3.4157,-3.247,-3.1983,-3.277,-3.2664,-3.2593,-3.2593,-3.2735,-3.3192,-3.4013,-3.4143,-3.4706,-3.5519,-3.5519,-3.5519,-3.5519,-3.5519,-3.5519,-3.5519,-3.5519,-3.5519,-3.5519,-3.5519,-3.5519,-3.5519,-3.5519,-3.5519,-3.5519,-3.5519,-3.5519,-3.5519,-3.5519,-3.5519,-3.5789,-3.7075,-3.7404,-3.7734,-3.9044,-3.9373,-3.9373,-3.9373,-3.9373,-3.9439,-3.9529,-3.9918,-4.0277,-4.0397,-4.0786,-4.0935,-4.0367,-4.0277,-4.0068,-3.9463,-3.9373,-3.9373,-3.9373,-3.9373,-3.9373,-3.9373,-3.9373,-3.9373,-3.9373,-3.8546,-3.7956,-3.7805,-3.6081,-3.4979,-3.4718,-3.3784,-3.324,-3.3111,-3.3111,-3.3111,-3.3111,-3.3111,-3.3111,-3.3111,-3.3111,-3.3111,-3.3154,-3.422,-3.4774,-3.4979,-3.5974,-3.6487,-3.6721,-3.7663,-3.7472,-3.676,-3.7663,-3.8583,-3.9373,-3.2139,-3.239,-3.2591,-3.2591,-3.2591,-3.2591,-3.2591,-3.234,-3.224,-3.2541,-3.234,-3.2139,-3.2215,-3.2872,-3.408,-3.5939,-3.6548,-3.7128,-3.7903,-3.7044,-3.6118,-3.5263,-3.4231,-3.3261,-3.2451,-3.1609,-3.1156,-3.1033,-3.1033,-3.1033,-3.1071,-3.2119,-3.2806,-3.329,-3.4375,-3.51,-3.5519,-3.5519,-3.5519,-3.5519,-3.5519,-3.5519,-3.5519,-3.5519,-3.5519,-3.5519,-3.5519,-3.5519,-3.5519,-3.5519,-3.5519,-3.5579,-3.5938,-3.6058,-3.6118,-3.6477,-3.6567,-3.6776,-3.7704,-3.7973,-3.8182,-3.917,-3.9373,-3.9373,-3.9373,-3.9373,-3.9529,-3.9888,-3.9918,-3.9978,-4.0337,-4.0636,-4.0726,-4.0457,-4.0397,-4.0307,-4.0008,-3.9649,-3.9373,-3.9373,-3.9373,-3.9373,-3.9373,-3.9373,-3.9156,-3.8546,-3.8069,-3.7281,-3.612,-3.5183,-3.4428,-3.3827,-3.3368,-3.3111,-3.3111,-3.3111,-3.3111,-3.3111,-3.3111,-3.3111,-3.3111,-3.3111,-3.3111,-3.3154,-3.422,-3.4718,-3.4815,-3.6436,-3.6721,-3.633,-3.7396,-3.751,-3.7137,-3.7625,-3.8472,-3.9373]}]]